﻿<?xml version="1.0" encoding="utf-8"?><gpx creator="Garmin Desktop App" version="1.1" xsi:schemaLocation="http://www.topografix.com/GPX/1/1 http://www.topografix.com/GPX/1/1/gpx.xsd http://www.garmin.com/xmlschemas/WaypointExtension/v1 http://www8.garmin.com/xmlschemas/WaypointExtensionv1.xsd http://www.garmin.com/xmlschemas/TrackPointExtension/v1 http://www.garmin.com/xmlschemas/TrackPointExtensionv1.xsd http://www.garmin.com/xmlschemas/GpxExtensions/v3 http://www8.garmin.com/xmlschemas/GpxExtensionsv3.xsd http://www.garmin.com/xmlschemas/ActivityExtension/v1 http://www8.garmin.com/xmlschemas/ActivityExtensionv1.xsd http://www.garmin.com/xmlschemas/AdventuresExtensions/v1 http://www8.garmin.com/xmlschemas/AdventuresExtensionv1.xsd http://www.garmin.com/xmlschemas/PressureExtension/v1 http://www.garmin.com/xmlschemas/PressureExtensionv1.xsd http://www.garmin.com/xmlschemas/TripExtensions/v1 http://www.garmin.com/xmlschemas/TripExtensionsv1.xsd http://www.garmin.com/xmlschemas/TripMetaDataExtensions/v1 http://www.garmin.com/xmlschemas/TripMetaDataExtensionsv1.xsd http://www.garmin.com/xmlschemas/ViaPointTransportationModeExtensions/v1 http://www.garmin.com/xmlschemas/ViaPointTransportationModeExtensionsv1.xsd http://www.garmin.com/xmlschemas/CreationTimeExtension/v1 http://www.garmin.com/xmlschemas/CreationTimeExtensionsv1.xsd http://www.garmin.com/xmlschemas/AccelerationExtension/v1 http://www.garmin.com/xmlschemas/AccelerationExtensionv1.xsd http://www.garmin.com/xmlschemas/PowerExtension/v1 http://www.garmin.com/xmlschemas/PowerExtensionv1.xsd http://www.garmin.com/xmlschemas/VideoExtension/v1 http://www.garmin.com/xmlschemas/VideoExtensionv1.xsd" xmlns="http://www.topografix.com/GPX/1/1" xmlns:xsi="http://www.w3.org/2001/XMLSchema-instance" xmlns:wptx1="http://www.garmin.com/xmlschemas/WaypointExtension/v1" xmlns:gpxtrx="http://www.garmin.com/xmlschemas/GpxExtensions/v3" xmlns:gpxtpx="http://www.garmin.com/xmlschemas/TrackPointExtension/v1" xmlns:gpxx="http://www.garmin.com/xmlschemas/GpxExtensions/v3" xmlns:trp="http://www.garmin.com/xmlschemas/TripExtensions/v1" xmlns:adv="http://www.garmin.com/xmlschemas/AdventuresExtensions/v1" xmlns:prs="http://www.garmin.com/xmlschemas/PressureExtension/v1" xmlns:tmd="http://www.garmin.com/xmlschemas/TripMetaDataExtensions/v1" xmlns:vptm="http://www.garmin.com/xmlschemas/ViaPointTransportationModeExtensions/v1" xmlns:ctx="http://www.garmin.com/xmlschemas/CreationTimeExtension/v1" xmlns:gpxacc="http://www.garmin.com/xmlschemas/AccelerationExtension/v1" xmlns:gpxpx="http://www.garmin.com/xmlschemas/PowerExtension/v1" xmlns:vidx1="http://www.garmin.com/xmlschemas/VideoExtension/v1">

  <metadata>
    <link href="http://www.garmin.com">
      <text>Garmin International</text>
    </link>
    <time>2021-03-01T09:15:35Z</time>
    <bounds maxlat="45.923560252413154" maxlon="9.239304475486279" minlat="45.912381056696177" minlon="9.213186213746667" />
  </metadata>

  <trk>
    <name>monte-san-primo2021-02-28</name>
    <extensions>
      <gpxx:TrackExtension>
        <gpxx:DisplayColor>Yellow</gpxx:DisplayColor>
      </gpxx:TrackExtension>
      <gpxtrkx:TrackStatsExtension xmlns:gpxtrkx="http://www.garmin.com/xmlschemas/TrackStatsExtension/v1">
        <gpxtrkx:Distance>8384</gpxtrkx:Distance>
        <gpxtrkx:TotalElapsedTime>26506</gpxtrkx:TotalElapsedTime>
        <gpxtrkx:MovingTime>10815</gpxtrkx:MovingTime>
        <gpxtrkx:StoppedTime>15680</gpxtrkx:StoppedTime>
        <gpxtrkx:MovingSpeed>0.775</gpxtrkx:MovingSpeed>
        <gpxtrkx:MaxSpeed>1.574</gpxtrkx:MaxSpeed>
        <gpxtrkx:MaxElevation>1615.864</gpxtrkx:MaxElevation>
        <gpxtrkx:MinElevation>1107.295</gpxtrkx:MinElevation>
        <gpxtrkx:Ascent>656</gpxtrkx:Ascent>
        <gpxtrkx:Descent>673.828</gpxtrkx:Descent>
        <gpxtrkx:AvgAscentRate>0.035</gpxtrkx:AvgAscentRate>
        <gpxtrkx:MaxAscentRate>0.253</gpxtrkx:MaxAscentRate>
        <gpxtrkx:AvgDescentRate>0.058</gpxtrkx:AvgDescentRate>
        <gpxtrkx:MaxDescentRate>-0.418</gpxtrkx:MaxDescentRate>
      </gpxtrkx:TrackStatsExtension>
    </extensions>
    <trkseg>
      <trkpt lat="45.923528652638197" lon="9.230703301727772">
        <ele>1127.5</ele>
        <time>2021-02-28T06:43:46Z</time>
      </trkpt>
      <trkpt lat="45.923527479171753" lon="9.23070372082293">
        <ele>1127.5</ele>
        <time>2021-02-28T06:43:47Z</time>
      </trkpt>
      <trkpt lat="45.923514822497964" lon="9.230689890682697">
        <ele>1125.3399999999999</ele>
        <time>2021-02-28T06:44:17Z</time>
      </trkpt>
      <trkpt lat="45.923530412837863" lon="9.230712605640292">
        <ele>1125.3599999999999</ele>
        <time>2021-02-28T06:44:45Z</time>
      </trkpt>
      <trkpt lat="45.923519935458899" lon="9.230707325041294">
        <ele>1125.1199999999999</ele>
        <time>2021-02-28T06:45:15Z</time>
      </trkpt>
      <trkpt lat="45.923526557162404" lon="9.230693662539125">
        <ele>1125.0999999999999</ele>
        <time>2021-02-28T06:45:47Z</time>
      </trkpt>
      <trkpt lat="45.923546086996794" lon="9.23068318516016">
        <ele>1125.3699999999999</ele>
        <time>2021-02-28T06:46:16Z</time>
      </trkpt>
      <trkpt lat="45.923551032319665" lon="9.230688046664">
        <ele>1125.47</ele>
        <time>2021-02-28T06:46:47Z</time>
      </trkpt>
      <trkpt lat="45.923560252413154" lon="9.230675389990211">
        <ele>1125.0999999999999</ele>
        <time>2021-02-28T06:47:22Z</time>
      </trkpt>
      <trkpt lat="45.923549523577094" lon="9.230671701952815">
        <ele>1125.48</ele>
        <time>2021-02-28T06:47:53Z</time>
      </trkpt>
      <trkpt lat="45.923538040369749" lon="9.230688633397222">
        <ele>1126.2</ele>
        <time>2021-02-28T06:48:06Z</time>
      </trkpt>
      <trkpt lat="45.923526892438531" lon="9.230708917602897">
        <ele>1125.54</ele>
        <time>2021-02-28T06:48:22Z</time>
      </trkpt>
      <trkpt lat="45.92351021245122" lon="9.230713192373514">
        <ele>1125.8</ele>
        <time>2021-02-28T06:48:38Z</time>
      </trkpt>
      <trkpt lat="45.923475930467248" lon="9.230701960623264">
        <ele>1125.73</ele>
        <time>2021-02-28T06:48:49Z</time>
      </trkpt>
      <trkpt lat="45.923471404239535" lon="9.230701457709074">
        <ele>1125.77</ele>
        <time>2021-02-28T06:49:02Z</time>
      </trkpt>
      <trkpt lat="45.923475259914994" lon="9.230702044442296">
        <ele>1125.8299999999999</ele>
        <time>2021-02-28T06:49:04Z</time>
      </trkpt>
      <trkpt lat="45.923499315977097" lon="9.230748061090708">
        <ele>1125.6600000000001</ele>
        <time>2021-02-28T06:49:13Z</time>
      </trkpt>
      <trkpt lat="45.923470482230186" lon="9.230698188766837">
        <ele>1125.73</ele>
        <time>2021-02-28T06:49:23Z</time>
      </trkpt>
      <trkpt lat="45.923471823334694" lon="9.230699446052313">
        <ele>1125.6800000000001</ele>
        <time>2021-02-28T06:49:41Z</time>
      </trkpt>
      <trkpt lat="45.923433350399137" lon="9.230671282857657">
        <ele>1125.55</ele>
        <time>2021-02-28T06:49:48Z</time>
      </trkpt>
      <trkpt lat="45.923395212739706" lon="9.23067782074213">
        <ele>1125.6600000000001</ele>
        <time>2021-02-28T06:49:52Z</time>
      </trkpt>
      <trkpt lat="45.923353219404817" lon="9.230680502951145">
        <ele>1125.5699999999999</ele>
        <time>2021-02-28T06:49:56Z</time>
      </trkpt>
      <trkpt lat="45.9233333542943" lon="9.230671366676688">
        <ele>1125.5999999999999</ele>
        <time>2021-02-28T06:49:58Z</time>
      </trkpt>
      <trkpt lat="45.923276273533702" lon="9.230707241222262">
        <ele>1125.5699999999999</ele>
        <time>2021-02-28T06:50:04Z</time>
      </trkpt>
      <trkpt lat="45.923250876367092" lon="9.230808075517416">
        <ele>1125.8099999999999</ele>
        <time>2021-02-28T06:50:10Z</time>
      </trkpt>
      <trkpt lat="45.923178372904658" lon="9.230839088559151">
        <ele>1125.7</ele>
        <time>2021-02-28T06:50:18Z</time>
      </trkpt>
      <trkpt lat="45.923144426196814" lon="9.230843866243959">
        <ele>1125.3599999999999</ele>
        <time>2021-02-28T06:50:27Z</time>
      </trkpt>
      <trkpt lat="45.923125315457582" lon="9.230839004740119">
        <ele>1125.1800000000001</ele>
        <time>2021-02-28T06:50:29Z</time>
      </trkpt>
      <trkpt lat="45.923018865287304" lon="9.230848224833608">
        <ele>1126.0599999999999</ele>
        <time>2021-02-28T06:50:42Z</time>
      </trkpt>
      <trkpt lat="45.922960359603167" lon="9.230854846537113">
        <ele>1126.8</ele>
        <time>2021-02-28T06:50:48Z</time>
      </trkpt>
      <trkpt lat="45.92286229133606" lon="9.23090111464262">
        <ele>1128.3299999999999</ele>
        <time>2021-02-28T06:51:01Z</time>
      </trkpt>
      <trkpt lat="45.922792721539736" lon="9.23096121288836">
        <ele>1130.8499999999999</ele>
        <time>2021-02-28T06:51:14Z</time>
      </trkpt>
      <trkpt lat="45.922713177278638" lon="9.2310472112149">
        <ele>1133.3900000000001</ele>
        <time>2021-02-28T06:51:29Z</time>
      </trkpt>
      <trkpt lat="45.922642014920712" lon="9.231086522340775">
        <ele>1135.3099999999999</ele>
        <time>2021-02-28T06:51:43Z</time>
      </trkpt>
      <trkpt lat="45.922569679096341" lon="9.231135472655296">
        <ele>1137.75</ele>
        <time>2021-02-28T06:51:57Z</time>
      </trkpt>
      <trkpt lat="45.922506228089333" lon="9.231172688305378">
        <ele>1139.27</ele>
        <time>2021-02-28T06:52:09Z</time>
      </trkpt>
      <trkpt lat="45.9224509075284" lon="9.231186518445611">
        <ele>1141.1600000000001</ele>
        <time>2021-02-28T06:52:21Z</time>
      </trkpt>
      <trkpt lat="45.92237907461822" lon="9.231207640841603">
        <ele>1143.1600000000001</ele>
        <time>2021-02-28T06:52:34Z</time>
      </trkpt>
      <trkpt lat="45.922307576984167" lon="9.231217280030251">
        <ele>1144.8099999999999</ele>
        <time>2021-02-28T06:52:48Z</time>
      </trkpt>
      <trkpt lat="45.922250915318727" lon="9.231245694682002">
        <ele>1146.3399999999999</ele>
        <time>2021-02-28T06:53:00Z</time>
      </trkpt>
      <trkpt lat="45.922179836779833" lon="9.231312163174152">
        <ele>1148.6199999999999</ele>
        <time>2021-02-28T06:53:15Z</time>
      </trkpt>
      <trkpt lat="45.922142537310719" lon="9.231336722150445">
        <ele>1149.3099999999999</ele>
        <time>2021-02-28T06:53:27Z</time>
      </trkpt>
      <trkpt lat="45.922138011083007" lon="9.231351558119059">
        <ele>1148.96</ele>
        <time>2021-02-28T06:53:40Z</time>
      </trkpt>
      <trkpt lat="45.922134993597865" lon="9.231365723535419">
        <ele>1148.71</ele>
        <time>2021-02-28T06:53:52Z</time>
      </trkpt>
      <trkpt lat="45.922134406864643" lon="9.231347618624568">
        <ele>1148.49</ele>
        <time>2021-02-28T06:54:12Z</time>
      </trkpt>
      <trkpt lat="45.922132395207882" lon="9.231330938637257">
        <ele>1149.0899999999999</ele>
        <time>2021-02-28T06:54:24Z</time>
      </trkpt>
      <trkpt lat="45.922132814303041" lon="9.231318533420563">
        <ele>1148.71</ele>
        <time>2021-02-28T06:54:40Z</time>
      </trkpt>
      <trkpt lat="45.92213180847466" lon="9.231333201751113">
        <ele>1148.3599999999999</ele>
        <time>2021-02-28T06:54:57Z</time>
      </trkpt>
      <trkpt lat="45.922094257548451" lon="9.231397239491344">
        <ele>1149.54</ele>
        <time>2021-02-28T06:55:06Z</time>
      </trkpt>
      <trkpt lat="45.922030555084348" lon="9.23147133551538">
        <ele>1151.24</ele>
        <time>2021-02-28T06:55:20Z</time>
      </trkpt>
      <trkpt lat="45.921970708295703" lon="9.231550544500351">
        <ele>1153.0599999999999</ele>
        <time>2021-02-28T06:55:32Z</time>
      </trkpt>
      <trkpt lat="45.921906251460314" lon="9.23163989558816">
        <ele>1154.6300000000001</ele>
        <time>2021-02-28T06:55:45Z</time>
      </trkpt>
      <trkpt lat="45.921857468783855" lon="9.231705777347088">
        <ele>1156.1500000000001</ele>
        <time>2021-02-28T06:55:56Z</time>
      </trkpt>
      <trkpt lat="45.92178731225431" lon="9.231801498681307">
        <ele>1158.0599999999999</ele>
        <time>2021-02-28T06:56:11Z</time>
      </trkpt>
      <trkpt lat="45.921722771599889" lon="9.231892777606845">
        <ele>1159.54</ele>
        <time>2021-02-28T06:56:24Z</time>
      </trkpt>
      <trkpt lat="45.921646412461996" lon="9.232024708762765">
        <ele>1162.1199999999999</ele>
        <time>2021-02-28T06:56:40Z</time>
      </trkpt>
      <trkpt lat="45.921598048880696" lon="9.232119508087635">
        <ele>1163.99</ele>
        <time>2021-02-28T06:56:53Z</time>
      </trkpt>
      <trkpt lat="45.921556139364839" lon="9.232221767306328">
        <ele>1166.2</ele>
        <time>2021-02-28T06:57:06Z</time>
      </trkpt>
      <trkpt lat="45.921568963676691" lon="9.232355710119009">
        <ele>1168.04</ele>
        <time>2021-02-28T06:57:22Z</time>
      </trkpt>
      <trkpt lat="45.921588996425271" lon="9.232461238279939">
        <ele>1169.03</ele>
        <time>2021-02-28T06:57:34Z</time>
      </trkpt>
      <trkpt lat="45.921636186540127" lon="9.232582440599799">
        <ele>1170.54</ele>
        <time>2021-02-28T06:57:47Z</time>
      </trkpt>
      <trkpt lat="45.921684466302395" lon="9.232684699818492">
        <ele>1171.1900000000001</ele>
        <time>2021-02-28T06:57:58Z</time>
      </trkpt>
      <trkpt lat="45.921760071069002" lon="9.232822749763727">
        <ele>1172.5799999999999</ele>
        <time>2021-02-28T06:58:13Z</time>
      </trkpt>
      <trkpt lat="45.921826120465994" lon="9.232960632070899">
        <ele>1174.3900000000001</ele>
        <time>2021-02-28T06:58:28Z</time>
      </trkpt>
      <trkpt lat="45.921870963647962" lon="9.233097676187754">
        <ele>1175.74</ele>
        <time>2021-02-28T06:58:43Z</time>
      </trkpt>
      <trkpt lat="45.921919327229261" lon="9.233225667849183">
        <ele>1177.55</ele>
        <time>2021-02-28T06:58:59Z</time>
      </trkpt>
      <trkpt lat="45.921947909519076" lon="9.233305966481566">
        <ele>1179.8800000000001</ele>
        <time>2021-02-28T06:59:13Z</time>
      </trkpt>
      <trkpt lat="45.921968445181847" lon="9.233370255678892">
        <ele>1180.6800000000001</ele>
        <time>2021-02-28T06:59:24Z</time>
      </trkpt>
      <trkpt lat="45.922002475708723" lon="9.233478549867868">
        <ele>1183.0899999999999</ele>
        <time>2021-02-28T06:59:39Z</time>
      </trkpt>
      <trkpt lat="45.92204581014812" lon="9.233588017523289">
        <ele>1185.7</ele>
        <time>2021-02-28T06:59:55Z</time>
      </trkpt>
      <trkpt lat="45.922082355245948" lon="9.233669321984053">
        <ele>1187.5799999999999</ele>
        <time>2021-02-28T07:00:08Z</time>
      </trkpt>
      <trkpt lat="45.922084534540772" lon="9.233699580654502">
        <ele>1188.3</ele>
        <time>2021-02-28T07:00:18Z</time>
      </trkpt>
      <trkpt lat="45.922071626409888" lon="9.233695976436138">
        <ele>1188.0999999999999</ele>
        <time>2021-02-28T07:00:33Z</time>
      </trkpt>
      <trkpt lat="45.922065591439605" lon="9.233691366389394">
        <ele>1188.23</ele>
        <time>2021-02-28T07:00:46Z</time>
      </trkpt>
      <trkpt lat="45.922064669430256" lon="9.233690863475204">
        <ele>1188.04</ele>
        <time>2021-02-28T07:01:28Z</time>
      </trkpt>
      <trkpt lat="45.922064166516066" lon="9.233693378046155">
        <ele>1187.8800000000001</ele>
        <time>2021-02-28T07:01:43Z</time>
      </trkpt>
      <trkpt lat="45.922061065211892" lon="9.233689270913601">
        <ele>1187.95</ele>
        <time>2021-02-28T07:02:01Z</time>
      </trkpt>
      <trkpt lat="45.922064082697034" lon="9.233700837939978">
        <ele>1187.6900000000001</ele>
        <time>2021-02-28T07:02:21Z</time>
      </trkpt>
      <trkpt lat="45.922057209536433" lon="9.23369849100709">
        <ele>1187.4200000000001</ele>
        <time>2021-02-28T07:02:46Z</time>
      </trkpt>
      <trkpt lat="45.922051928937435" lon="9.233689522370696">
        <ele>1187.24</ele>
        <time>2021-02-28T07:03:05Z</time>
      </trkpt>
      <trkpt lat="45.922053856775165" lon="9.233689941465855">
        <ele>1187.29</ele>
        <time>2021-02-28T07:03:23Z</time>
      </trkpt>
      <trkpt lat="45.922064334154129" lon="9.233707711100578">
        <ele>1187.3199999999999</ele>
        <time>2021-02-28T07:03:34Z</time>
      </trkpt>
      <trkpt lat="45.922093335539103" lon="9.233769653365016">
        <ele>1188.73</ele>
        <time>2021-02-28T07:03:53Z</time>
      </trkpt>
      <trkpt lat="45.92212543822825" lon="9.233841318637133">
        <ele>1190.6500000000001</ele>
        <time>2021-02-28T07:04:04Z</time>
      </trkpt>
      <trkpt lat="45.922131473198533" lon="9.233945673331618">
        <ele>1192.8599999999999</ele>
        <time>2021-02-28T07:04:17Z</time>
      </trkpt>
      <trkpt lat="45.922137591987848" lon="9.234042735770345">
        <ele>1194.98</ele>
        <time>2021-02-28T07:04:30Z</time>
      </trkpt>
      <trkpt lat="45.922166258096695" lon="9.234134601429105">
        <ele>1197.29</ele>
        <time>2021-02-28T07:04:43Z</time>
      </trkpt>
      <trkpt lat="45.922197438776493" lon="9.234196292236447">
        <ele>1199.24</ele>
        <time>2021-02-28T07:04:54Z</time>
      </trkpt>
      <trkpt lat="45.922216633334756" lon="9.234241554513574">
        <ele>1200.71</ele>
        <time>2021-02-28T07:05:05Z</time>
      </trkpt>
      <trkpt lat="45.922221746295691" lon="9.23429461196065">
        <ele>1202.24</ele>
        <time>2021-02-28T07:05:16Z</time>
      </trkpt>
      <trkpt lat="45.922242952510715" lon="9.234307520091534">
        <ele>1203.6300000000001</ele>
        <time>2021-02-28T07:05:26Z</time>
      </trkpt>
      <trkpt lat="45.922276731580496" lon="9.234294360503554">
        <ele>1204.8599999999999</ele>
        <time>2021-02-28T07:05:36Z</time>
      </trkpt>
      <trkpt lat="45.922291232272983" lon="9.234311208128929">
        <ele>1206.0799999999999</ele>
        <time>2021-02-28T07:05:48Z</time>
      </trkpt>
      <trkpt lat="45.922285281121731" lon="9.234333671629429">
        <ele>1206.6099999999999</ele>
        <time>2021-02-28T07:06:05Z</time>
      </trkpt>
      <trkpt lat="45.922344541177154" lon="9.234352027997375">
        <ele>1208.3199999999999</ele>
        <time>2021-02-28T07:06:17Z</time>
      </trkpt>
      <trkpt lat="45.922368597239256" lon="9.234401229768992">
        <ele>1208.74</ele>
        <time>2021-02-28T07:06:29Z</time>
      </trkpt>
      <trkpt lat="45.922361053526402" lon="9.234443809837103">
        <ele>1209.76</ele>
        <time>2021-02-28T07:06:41Z</time>
      </trkpt>
      <trkpt lat="45.922328531742096" lon="9.234552020207048">
        <ele>1212.3299999999999</ele>
        <time>2021-02-28T07:06:56Z</time>
      </trkpt>
      <trkpt lat="45.922310929745436" lon="9.234625361859798">
        <ele>1214.27</ele>
        <time>2021-02-28T07:07:12Z</time>
      </trkpt>
      <trkpt lat="45.922310762107372" lon="9.234609855338931">
        <ele>1213.8399999999999</ele>
        <time>2021-02-28T07:07:25Z</time>
      </trkpt>
      <trkpt lat="45.922294752672315" lon="9.234586050733924">
        <ele>1213.21</ele>
        <time>2021-02-28T07:07:48Z</time>
      </trkpt>
      <trkpt lat="45.922297853976488" lon="9.234588146209717">
        <ele>1214.5899999999999</ele>
        <time>2021-02-28T07:07:59Z</time>
      </trkpt>
      <trkpt lat="45.922293160110712" lon="9.234601808711886">
        <ele>1214.51</ele>
        <time>2021-02-28T07:08:12Z</time>
      </trkpt>
      <trkpt lat="45.922268768772483" lon="9.234704906120896">
        <ele>1216.6800000000001</ele>
        <time>2021-02-28T07:08:26Z</time>
      </trkpt>
      <trkpt lat="45.922237588092685" lon="9.234822085127235">
        <ele>1219.0599999999999</ele>
        <time>2021-02-28T07:08:41Z</time>
      </trkpt>
      <trkpt lat="45.92220121063292" lon="9.23490540124476">
        <ele>1221.3900000000001</ele>
        <time>2021-02-28T07:08:54Z</time>
      </trkpt>
      <trkpt lat="45.922149242833257" lon="9.234975390136242">
        <ele>1224.3099999999999</ele>
        <time>2021-02-28T07:09:07Z</time>
      </trkpt>
      <trkpt lat="45.922053940594196" lon="9.235003972426057">
        <ele>1227.1400000000001</ele>
        <time>2021-02-28T07:09:24Z</time>
      </trkpt>
      <trkpt lat="45.921964757144451" lon="9.234998188912869">
        <ele>1229.54</ele>
        <time>2021-02-28T07:09:38Z</time>
      </trkpt>
      <trkpt lat="45.921895690262318" lon="9.235033644363284">
        <ele>1231.6800000000001</ele>
        <time>2021-02-28T07:09:52Z</time>
      </trkpt>
      <trkpt lat="45.92185964807868" lon="9.23512383364141">
        <ele>1234.26</ele>
        <time>2021-02-28T07:10:06Z</time>
      </trkpt>
      <trkpt lat="45.921831401064992" lon="9.235243275761604">
        <ele>1236.97</ele>
        <time>2021-02-28T07:10:23Z</time>
      </trkpt>
      <trkpt lat="45.92180541716516" lon="9.235351318493486">
        <ele>1239.53</ele>
        <time>2021-02-28T07:10:38Z</time>
      </trkpt>
      <trkpt lat="45.921770632266998" lon="9.23547126352787">
        <ele>1242.21</ele>
        <time>2021-02-28T07:10:55Z</time>
      </trkpt>
      <trkpt lat="45.921736098825932" lon="9.235584419220686">
        <ele>1245.26</ele>
        <time>2021-02-28T07:11:11Z</time>
      </trkpt>
      <trkpt lat="45.921713467687368" lon="9.235682487487793">
        <ele>1247.6500000000001</ele>
        <time>2021-02-28T07:11:25Z</time>
      </trkpt>
      <trkpt lat="45.921688321977854" lon="9.235785333439708">
        <ele>1250.52</ele>
        <time>2021-02-28T07:11:41Z</time>
      </trkpt>
      <trkpt lat="45.921665774658322" lon="9.235883736982942">
        <ele>1253.1600000000001</ele>
        <time>2021-02-28T07:11:56Z</time>
      </trkpt>
      <trkpt lat="45.92165244743228" lon="9.235938051715493">
        <ele>1254.6800000000001</ele>
        <time>2021-02-28T07:12:08Z</time>
      </trkpt>
      <trkpt lat="45.921627134084702" lon="9.236043998971582">
        <ele>1257.6400000000001</ele>
        <time>2021-02-28T07:12:22Z</time>
      </trkpt>
      <trkpt lat="45.921604167670012" lon="9.236161932349205">
        <ele>1260.1600000000001</ele>
        <time>2021-02-28T07:12:38Z</time>
      </trkpt>
      <trkpt lat="45.921580446884036" lon="9.236265029758215">
        <ele>1261.3399999999999</ele>
        <time>2021-02-28T07:12:48Z</time>
      </trkpt>
      <trkpt lat="45.921539291739464" lon="9.236372653394938">
        <ele>1262.76</ele>
        <time>2021-02-28T07:13:01Z</time>
      </trkpt>
      <trkpt lat="45.921489922329783" lon="9.23647491261363">
        <ele>1264.3199999999999</ele>
        <time>2021-02-28T07:13:14Z</time>
      </trkpt>
      <trkpt lat="45.921414066106081" lon="9.236586894840002">
        <ele>1266.48</ele>
        <time>2021-02-28T07:13:29Z</time>
      </trkpt>
      <trkpt lat="45.921320775523782" lon="9.236595192924142">
        <ele>1267.3099999999999</ele>
        <time>2021-02-28T07:13:40Z</time>
      </trkpt>
      <trkpt lat="45.921222371980548" lon="9.236622517928481">
        <ele>1268.3599999999999</ele>
        <time>2021-02-28T07:13:58Z</time>
      </trkpt>
      <trkpt lat="45.921151963993907" lon="9.236700469627976">
        <ele>1268.77</ele>
        <time>2021-02-28T07:14:12Z</time>
      </trkpt>
      <trkpt lat="45.921075604856014" lon="9.236783282831311">
        <ele>1270.0599999999999</ele>
        <time>2021-02-28T07:14:25Z</time>
      </trkpt>
      <trkpt lat="45.921069737523794" lon="9.236790994182229">
        <ele>1270.1400000000001</ele>
        <time>2021-02-28T07:14:26Z</time>
      </trkpt>
      <trkpt lat="45.920949038118124" lon="9.236859977245331">
        <ele>1271.4200000000001</ele>
        <time>2021-02-28T07:14:42Z</time>
      </trkpt>
      <trkpt lat="45.92087360098958" lon="9.236935749650002">
        <ele>1272.0999999999999</ele>
        <time>2021-02-28T07:14:53Z</time>
      </trkpt>
      <trkpt lat="45.920819202437997" lon="9.237042283639312">
        <ele>1272.6400000000001</ele>
        <time>2021-02-28T07:15:03Z</time>
      </trkpt>
      <trkpt lat="45.920753655955195" lon="9.237108249217272">
        <ele>1273.3599999999999</ele>
        <time>2021-02-28T07:15:14Z</time>
      </trkpt>
      <trkpt lat="45.92068349942565" lon="9.23719416372478">
        <ele>1274.6400000000001</ele>
        <time>2021-02-28T07:15:30Z</time>
      </trkpt>
      <trkpt lat="45.92063857242465" lon="9.23730798996985">
        <ele>1276.0699999999999</ele>
        <time>2021-02-28T07:15:43Z</time>
      </trkpt>
      <trkpt lat="45.920580234378576" lon="9.237336656078696">
        <ele>1276.8699999999999</ele>
        <time>2021-02-28T07:15:53Z</time>
      </trkpt>
      <trkpt lat="45.92050613835454" lon="9.237401615828276">
        <ele>1277.9000000000001</ele>
        <time>2021-02-28T07:16:04Z</time>
      </trkpt>
      <trkpt lat="45.920435227453709" lon="9.237467665225267">
        <ele>1278.9000000000001</ele>
        <time>2021-02-28T07:16:15Z</time>
      </trkpt>
      <trkpt lat="45.920351911336184" lon="9.237529942765832">
        <ele>1280.4000000000001</ele>
        <time>2021-02-28T07:16:28Z</time>
      </trkpt>
      <trkpt lat="45.920281754806638" lon="9.237597333267331">
        <ele>1282.5699999999999</ele>
        <time>2021-02-28T07:16:42Z</time>
      </trkpt>
      <trkpt lat="45.920208999887109" lon="9.237667908892036">
        <ele>1284.8900000000001</ele>
        <time>2021-02-28T07:16:58Z</time>
      </trkpt>
      <trkpt lat="45.920127611607313" lon="9.237736640498042">
        <ele>1287.6300000000001</ele>
        <time>2021-02-28T07:17:13Z</time>
      </trkpt>
      <trkpt lat="45.920057119801641" lon="9.237792044878006">
        <ele>1289.8099999999999</ele>
        <time>2021-02-28T07:17:28Z</time>
      </trkpt>
      <trkpt lat="45.920011941343546" lon="9.237851640209556">
        <ele>1292.22</ele>
        <time>2021-02-28T07:17:41Z</time>
      </trkpt>
      <trkpt lat="45.91997304931283" lon="9.237887850031257">
        <ele>1293.9000000000001</ele>
        <time>2021-02-28T07:17:55Z</time>
      </trkpt>
      <trkpt lat="45.91987288556993" lon="9.237846694886684">
        <ele>1295.01</ele>
        <time>2021-02-28T07:18:09Z</time>
      </trkpt>
      <trkpt lat="45.919766183942556" lon="9.237825572490692">
        <ele>1296.95</ele>
        <time>2021-02-28T07:18:26Z</time>
      </trkpt>
      <trkpt lat="45.919677251949906" lon="9.237834373489022">
        <ele>1298.4200000000001</ele>
        <time>2021-02-28T07:18:39Z</time>
      </trkpt>
      <trkpt lat="45.919599970802665" lon="9.237848874181509">
        <ele>1299.8099999999999</ele>
        <time>2021-02-28T07:18:51Z</time>
      </trkpt>
      <trkpt lat="45.919498968869448" lon="9.237943254411221">
        <ele>1301.95</ele>
        <time>2021-02-28T07:19:08Z</time>
      </trkpt>
      <trkpt lat="45.919413641095161" lon="9.238041993230581">
        <ele>1304.3299999999999</ele>
        <time>2021-02-28T07:19:25Z</time>
      </trkpt>
      <trkpt lat="45.919327391311526" lon="9.238049117848277">
        <ele>1307.1700000000001</ele>
        <time>2021-02-28T07:19:42Z</time>
      </trkpt>
      <trkpt lat="45.919264024123549" lon="9.238064959645271">
        <ele>1309.5899999999999</ele>
        <time>2021-02-28T07:19:55Z</time>
      </trkpt>
      <trkpt lat="45.919212056323886" lon="9.238028666004539">
        <ele>1311.5699999999999</ele>
        <time>2021-02-28T07:20:07Z</time>
      </trkpt>
      <trkpt lat="45.919205769896507" lon="9.237941913306713">
        <ele>1313.4300000000001</ele>
        <time>2021-02-28T07:20:19Z</time>
      </trkpt>
      <trkpt lat="45.919196885079145" lon="9.237868571653962">
        <ele>1315.22</ele>
        <time>2021-02-28T07:20:33Z</time>
      </trkpt>
      <trkpt lat="45.919196885079145" lon="9.237858848646283">
        <ele>1315.05</ele>
        <time>2021-02-28T07:20:45Z</time>
      </trkpt>
      <trkpt lat="45.919192526489496" lon="9.237877205014229">
        <ele>1315.01</ele>
        <time>2021-02-28T07:20:54Z</time>
      </trkpt>
      <trkpt lat="45.919200656935573" lon="9.237893465906382">
        <ele>1315.1099999999999</ele>
        <time>2021-02-28T07:21:07Z</time>
      </trkpt>
      <trkpt lat="45.919159417971969" lon="9.237929759547114">
        <ele>1315.9300000000001</ele>
        <time>2021-02-28T07:21:28Z</time>
      </trkpt>
      <trkpt lat="45.919068474322557" lon="9.237992120906711">
        <ele>1318.6300000000001</ele>
        <time>2021-02-28T07:21:44Z</time>
      </trkpt>
      <trkpt lat="45.91901239939034" lon="9.23804241232574">
        <ele>1321.51</ele>
        <time>2021-02-28T07:21:58Z</time>
      </trkpt>
      <trkpt lat="45.9189523011446" lon="9.238102594390512">
        <ele>1324.54</ele>
        <time>2021-02-28T07:22:15Z</time>
      </trkpt>
      <trkpt lat="45.918888514861465" lon="9.238167805597186">
        <ele>1326.4100000000001</ele>
        <time>2021-02-28T07:22:29Z</time>
      </trkpt>
      <trkpt lat="45.918787512928247" lon="9.238219521939755">
        <ele>1327.8599999999999</ele>
        <time>2021-02-28T07:22:44Z</time>
      </trkpt>
      <trkpt lat="45.918705202639103" lon="9.238274339586496">
        <ele>1329.8</ele>
        <time>2021-02-28T07:22:59Z</time>
      </trkpt>
      <trkpt lat="45.91863957233727" lon="9.238295964896679">
        <ele>1332.0599999999999</ele>
        <time>2021-02-28T07:23:12Z</time>
      </trkpt>
      <trkpt lat="45.91856187209487" lon="9.238327229395509">
        <ele>1334.46</ele>
        <time>2021-02-28T07:23:27Z</time>
      </trkpt>
      <trkpt lat="45.918501270934939" lon="9.238344160839915">
        <ele>1337.0999999999999</ele>
        <time>2021-02-28T07:23:41Z</time>
      </trkpt>
      <trkpt lat="45.918456092476845" lon="9.238348100334406">
        <ele>1339.4400000000001</ele>
        <time>2021-02-28T07:23:54Z</time>
      </trkpt>
      <trkpt lat="45.918428683653474" lon="9.238347848877311">
        <ele>1340.52</ele>
        <time>2021-02-28T07:24:15Z</time>
      </trkpt>
      <trkpt lat="45.918367663398385" lon="9.238377185538411">
        <ele>1341.71</ele>
        <time>2021-02-28T07:24:29Z</time>
      </trkpt>
      <trkpt lat="45.918295662850142" lon="9.238413143903017">
        <ele>1343.23</ele>
        <time>2021-02-28T07:24:42Z</time>
      </trkpt>
      <trkpt lat="45.918223494663835" lon="9.238482546061277">
        <ele>1345.27</ele>
        <time>2021-02-28T07:24:56Z</time>
      </trkpt>
      <trkpt lat="45.918166916817427" lon="9.238536022603512">
        <ele>1347.04</ele>
        <time>2021-02-28T07:25:08Z</time>
      </trkpt>
      <trkpt lat="45.918083852156997" lon="9.238600144162774">
        <ele>1348.8800000000001</ele>
        <time>2021-02-28T07:25:23Z</time>
      </trkpt>
      <trkpt lat="45.918009839951992" lon="9.238654123619199">
        <ele>1350.9400000000001</ele>
        <time>2021-02-28T07:25:37Z</time>
      </trkpt>
      <trkpt lat="45.917936582118273" lon="9.23870500177145">
        <ele>1353.03</ele>
        <time>2021-02-28T07:25:51Z</time>
      </trkpt>
      <trkpt lat="45.917867682874203" lon="9.238738864660263">
        <ele>1355.1500000000001</ele>
        <time>2021-02-28T07:26:05Z</time>
      </trkpt>
      <trkpt lat="45.917804902419448" lon="9.238772476091981">
        <ele>1357.73</ele>
        <time>2021-02-28T07:26:18Z</time>
      </trkpt>
      <trkpt lat="45.917752934619784" lon="9.23880759626627">
        <ele>1359.4200000000001</ele>
        <time>2021-02-28T07:26:30Z</time>
      </trkpt>
      <trkpt lat="45.917684873566031" lon="9.238839782774448">
        <ele>1362.21</ele>
        <time>2021-02-28T07:26:46Z</time>
      </trkpt>
      <trkpt lat="45.917623601853848" lon="9.238882195204496">
        <ele>1363.74</ele>
        <time>2021-02-28T07:26:59Z</time>
      </trkpt>
      <trkpt lat="45.917545314878225" lon="9.238929050043225">
        <ele>1365.4100000000001</ele>
        <time>2021-02-28T07:27:12Z</time>
      </trkpt>
      <trkpt lat="45.91748203150928" lon="9.238965762779117">
        <ele>1367.22</ele>
        <time>2021-02-28T07:27:24Z</time>
      </trkpt>
      <trkpt lat="45.917412294074893" lon="9.23898939974606">
        <ele>1369.46</ele>
        <time>2021-02-28T07:27:39Z</time>
      </trkpt>
      <trkpt lat="45.917359152808785" lon="9.239001804962754">
        <ele>1371.3900000000001</ele>
        <time>2021-02-28T07:27:53Z</time>
      </trkpt>
      <trkpt lat="45.917314141988754" lon="9.239021753892303">
        <ele>1372.8800000000001</ele>
        <time>2021-02-28T07:28:13Z</time>
      </trkpt>
      <trkpt lat="45.917301569133997" lon="9.239035416394472">
        <ele>1373.74</ele>
        <time>2021-02-28T07:28:29Z</time>
      </trkpt>
      <trkpt lat="45.91723769903183" lon="9.239080846309662">
        <ele>1375.6400000000001</ele>
        <time>2021-02-28T07:28:46Z</time>
      </trkpt>
      <trkpt lat="45.917165530845523" lon="9.239098532125354">
        <ele>1378.0799999999999</ele>
        <time>2021-02-28T07:28:59Z</time>
      </trkpt>
      <trkpt lat="45.917101241648197" lon="9.239141866564751">
        <ele>1381.02</ele>
        <time>2021-02-28T07:29:13Z</time>
      </trkpt>
      <trkpt lat="45.917037203907967" lon="9.239188972860575">
        <ele>1383.76</ele>
        <time>2021-02-28T07:29:28Z</time>
      </trkpt>
      <trkpt lat="45.916972747072577" lon="9.239249909296632">
        <ele>1386.9100000000001</ele>
        <time>2021-02-28T07:29:44Z</time>
      </trkpt>
      <trkpt lat="45.916925892233849" lon="9.239296680316329">
        <ele>1389.1300000000001</ele>
        <time>2021-02-28T07:29:57Z</time>
      </trkpt>
      <trkpt lat="45.916881216689944" lon="9.239293243736029">
        <ele>1390.72</ele>
        <time>2021-02-28T07:30:11Z</time>
      </trkpt>
      <trkpt lat="45.916818268597126" lon="9.239256195724011">
        <ele>1392.6199999999999</ele>
        <time>2021-02-28T07:30:22Z</time>
      </trkpt>
      <trkpt lat="45.916746770963073" lon="9.239233648404479">
        <ele>1395.2</ele>
        <time>2021-02-28T07:30:35Z</time>
      </trkpt>
      <trkpt lat="45.916685247793794" lon="9.239210179075599">
        <ele>1396.77</ele>
        <time>2021-02-28T07:30:49Z</time>
      </trkpt>
      <trkpt lat="45.916687343269587" lon="9.239212945103645">
        <ele>1396.9400000000001</ele>
        <time>2021-02-28T07:31:05Z</time>
      </trkpt>
      <trkpt lat="45.916665969416499" lon="9.239211017265916">
        <ele>1397.3800000000001</ele>
        <time>2021-02-28T07:31:22Z</time>
      </trkpt>
      <trkpt lat="45.916579132899642" lon="9.239221243187785">
        <ele>1399.76</ele>
        <time>2021-02-28T07:31:36Z</time>
      </trkpt>
      <trkpt lat="45.91649254783988" lon="9.239251920953393">
        <ele>1402.1199999999999</ele>
        <time>2021-02-28T07:31:51Z</time>
      </trkpt>
      <trkpt lat="45.916395485401154" lon="9.239282514899969">
        <ele>1405.01</ele>
        <time>2021-02-28T07:32:08Z</time>
      </trkpt>
      <trkpt lat="45.916307894513011" lon="9.239282850176096">
        <ele>1407.4000000000001</ele>
        <time>2021-02-28T07:32:21Z</time>
      </trkpt>
      <trkpt lat="45.91625408269465" lon="9.239302799105644">
        <ele>1408.24</ele>
        <time>2021-02-28T07:32:33Z</time>
      </trkpt>
      <trkpt lat="45.916224997490644" lon="9.239293159916997">
        <ele>1408.74</ele>
        <time>2021-02-28T07:32:41Z</time>
      </trkpt>
      <trkpt lat="45.916112177073956" lon="9.239304475486279">
        <ele>1410.1500000000001</ele>
        <time>2021-02-28T07:32:56Z</time>
      </trkpt>
      <trkpt lat="45.91603615321219" lon="9.239295674487948">
        <ele>1411.3099999999999</ele>
        <time>2021-02-28T07:33:07Z</time>
      </trkpt>
      <trkpt lat="45.916016874834895" lon="9.239285532385111">
        <ele>1411.6500000000001</ele>
        <time>2021-02-28T07:33:09Z</time>
      </trkpt>
      <trkpt lat="45.915911179035902" lon="9.239250076934695">
        <ele>1412.49</ele>
        <time>2021-02-28T07:33:21Z</time>
      </trkpt>
      <trkpt lat="45.915806489065289" lon="9.239208167418838">
        <ele>1413.5699999999999</ele>
        <time>2021-02-28T07:33:34Z</time>
      </trkpt>
      <trkpt lat="45.915734404698014" lon="9.239190984517336">
        <ele>1414.4300000000001</ele>
        <time>2021-02-28T07:33:46Z</time>
      </trkpt>
      <trkpt lat="45.915620997548103" lon="9.239125940948725">
        <ele>1416.46</ele>
        <time>2021-02-28T07:34:01Z</time>
      </trkpt>
      <trkpt lat="45.915515050292015" lon="9.239040529355407">
        <ele>1417.79</ele>
        <time>2021-02-28T07:34:16Z</time>
      </trkpt>
      <trkpt lat="45.915428549051285" lon="9.23894296400249">
        <ele>1419.6099999999999</ele>
        <time>2021-02-28T07:34:30Z</time>
      </trkpt>
      <trkpt lat="45.915345149114728" lon="9.23884036950767">
        <ele>1421.1900000000001</ele>
        <time>2021-02-28T07:34:45Z</time>
      </trkpt>
      <trkpt lat="45.915276668965816" lon="9.238739870488644">
        <ele>1422.55</ele>
        <time>2021-02-28T07:34:58Z</time>
      </trkpt>
      <trkpt lat="45.91519720852375" lon="9.238612214103341">
        <ele>1424.6300000000001</ele>
        <time>2021-02-28T07:35:13Z</time>
      </trkpt>
      <trkpt lat="45.91514004394412" lon="9.238529149442911">
        <ele>1426.0899999999999</ele>
        <time>2021-02-28T07:35:25Z</time>
      </trkpt>
      <trkpt lat="45.915087321773171" lon="9.238417586311698">
        <ele>1427.6900000000001</ele>
        <time>2021-02-28T07:35:38Z</time>
      </trkpt>
      <trkpt lat="45.915034180507064" lon="9.238334354013205">
        <ele>1429.03</ele>
        <time>2021-02-28T07:35:50Z</time>
      </trkpt>
      <trkpt lat="45.914951870217919" lon="9.238179875537753">
        <ele>1431.79</ele>
        <time>2021-02-28T07:36:09Z</time>
      </trkpt>
      <trkpt lat="45.914891436696053" lon="9.238049034029245">
        <ele>1432.99</ele>
        <time>2021-02-28T07:36:23Z</time>
      </trkpt>
      <trkpt lat="45.914828404784203" lon="9.237915594130755">
        <ele>1434.3499999999999</ele>
        <time>2021-02-28T07:36:37Z</time>
      </trkpt>
      <trkpt lat="45.914768055081367" lon="9.23776782117784">
        <ele>1435.6900000000001</ele>
        <time>2021-02-28T07:36:52Z</time>
      </trkpt>
      <trkpt lat="45.914714997634292" lon="9.237603452056646">
        <ele>1436.8599999999999</ele>
        <time>2021-02-28T07:37:07Z</time>
      </trkpt>
      <trkpt lat="45.914643416181207" lon="9.237453080713749">
        <ele>1437.98</ele>
        <time>2021-02-28T07:37:24Z</time>
      </trkpt>
      <trkpt lat="45.914526991546154" lon="9.23747269436717">
        <ele>1440.0899999999999</ele>
        <time>2021-02-28T07:37:40Z</time>
      </trkpt>
      <trkpt lat="45.914457840844989" lon="9.23756112344563">
        <ele>1440.01</ele>
        <time>2021-02-28T07:37:51Z</time>
      </trkpt>
      <trkpt lat="45.914425486698747" lon="9.237739406526089">
        <ele>1438.3499999999999</ele>
        <time>2021-02-28T07:38:06Z</time>
      </trkpt>
      <trkpt lat="45.914412746205926" lon="9.237812329083681">
        <ele>1437.76</ele>
        <time>2021-02-28T07:38:18Z</time>
      </trkpt>
      <trkpt lat="45.914449542760849" lon="9.237924562767148">
        <ele>1437.24</ele>
        <time>2021-02-28T07:38:31Z</time>
      </trkpt>
      <trkpt lat="45.914499163627625" lon="9.238138888031244">
        <ele>1436.74</ele>
        <time>2021-02-28T07:38:48Z</time>
      </trkpt>
      <trkpt lat="45.914504108950496" lon="9.238195717334747">
        <ele>1436.24</ele>
        <time>2021-02-28T07:39:00Z</time>
      </trkpt>
      <trkpt lat="45.914510227739811" lon="9.238225473091006">
        <ele>1436.0699999999999</ele>
        <time>2021-02-28T07:39:16Z</time>
      </trkpt>
      <trkpt lat="45.914517603814602" lon="9.238269897177815">
        <ele>1435.21</ele>
        <time>2021-02-28T07:39:19Z</time>
      </trkpt>
      <trkpt lat="45.914543168619275" lon="9.238456394523382">
        <ele>1433.96</ele>
        <time>2021-02-28T07:39:35Z</time>
      </trkpt>
      <trkpt lat="45.914546605199575" lon="9.238499896600843">
        <ele>1433.6400000000001</ele>
        <time>2021-02-28T07:39:45Z</time>
      </trkpt>
      <trkpt lat="45.914541408419609" lon="9.238660493865609">
        <ele>1431.78</ele>
        <time>2021-02-28T07:39:59Z</time>
      </trkpt>
      <trkpt lat="45.9145194478333" lon="9.23870399594307">
        <ele>1430.9400000000001</ele>
        <time>2021-02-28T07:40:09Z</time>
      </trkpt>
      <trkpt lat="45.914484411478043" lon="9.238653453066945">
        <ele>1429.1600000000001</ele>
        <time>2021-02-28T07:40:21Z</time>
      </trkpt>
      <trkpt lat="45.914456248283386" lon="9.238703744485974">
        <ele>1427.47</ele>
        <time>2021-02-28T07:40:35Z</time>
      </trkpt>
      <trkpt lat="45.914452895522118" lon="9.238708773627877">
        <ele>1427.48</ele>
        <time>2021-02-28T07:40:48Z</time>
      </trkpt>
      <trkpt lat="45.914423558861017" lon="9.238732997328043">
        <ele>1425.99</ele>
        <time>2021-02-28T07:41:00Z</time>
      </trkpt>
      <trkpt lat="45.914393719285727" lon="9.238751018419862">
        <ele>1424.47</ele>
        <time>2021-02-28T07:41:12Z</time>
      </trkpt>
      <trkpt lat="45.914390701800585" lon="9.238754622638226">
        <ele>1424.21</ele>
        <time>2021-02-28T07:41:35Z</time>
      </trkpt>
      <trkpt lat="45.914386594668031" lon="9.238747833296657">
        <ele>1424.1199999999999</ele>
        <time>2021-02-28T07:41:57Z</time>
      </trkpt>
      <trkpt lat="45.914364717900753" lon="9.238769877701998">
        <ele>1423.03</ele>
        <time>2021-02-28T07:42:10Z</time>
      </trkpt>
      <trkpt lat="45.914355413988233" lon="9.23879150301218">
        <ele>1422.6900000000001</ele>
        <time>2021-02-28T07:42:20Z</time>
      </trkpt>
      <trkpt lat="45.914350971579552" lon="9.238802902400494">
        <ele>1421.47</ele>
        <time>2021-02-28T07:42:33Z</time>
      </trkpt>
      <trkpt lat="45.914347618818283" lon="9.238802902400494">
        <ele>1421.3399999999999</ele>
        <time>2021-02-28T07:43:02Z</time>
      </trkpt>
      <trkpt lat="45.91435038484633" lon="9.238803237676621">
        <ele>1421.1600000000001</ele>
        <time>2021-02-28T07:43:14Z</time>
      </trkpt>
      <trkpt lat="45.914354575797915" lon="9.238811871036887">
        <ele>1421.3499999999999</ele>
        <time>2021-02-28T07:43:35Z</time>
      </trkpt>
      <trkpt lat="45.914345858618617" lon="9.238806674256921">
        <ele>1421.1700000000001</ele>
        <time>2021-02-28T07:44:11Z</time>
      </trkpt>
      <trkpt lat="45.914335465058684" lon="9.238799549639225">
        <ele>1421.25</ele>
        <time>2021-02-28T07:44:44Z</time>
      </trkpt>
      <trkpt lat="45.914333369582891" lon="9.238793598487973">
        <ele>1420.9300000000001</ele>
        <time>2021-02-28T07:45:34Z</time>
      </trkpt>
      <trkpt lat="45.914329765364528" lon="9.2387904971838">
        <ele>1420.6600000000001</ele>
        <time>2021-02-28T07:46:32Z</time>
      </trkpt>
      <trkpt lat="45.914328591898084" lon="9.238791167736054">
        <ele>1420.75</ele>
        <time>2021-02-28T07:47:19Z</time>
      </trkpt>
      <trkpt lat="45.914329262450337" lon="9.238793766126037">
        <ele>1420.8299999999999</ele>
        <time>2021-02-28T07:48:13Z</time>
      </trkpt>
      <trkpt lat="45.91433085501194" lon="9.238786892965436">
        <ele>1420.8199999999999</ele>
        <time>2021-02-28T07:49:08Z</time>
      </trkpt>
      <trkpt lat="45.914328591898084" lon="9.238789658993483">
        <ele>1420.6199999999999</ele>
        <time>2021-02-28T07:50:04Z</time>
      </trkpt>
      <trkpt lat="45.914327502250671" lon="9.23878856934607">
        <ele>1420.1500000000001</ele>
        <time>2021-02-28T07:51:03Z</time>
      </trkpt>
      <trkpt lat="45.91432741843164" lon="9.2387904971838">
        <ele>1420.0599999999999</ele>
        <time>2021-02-28T07:52:00Z</time>
      </trkpt>
      <trkpt lat="45.914328256621957" lon="9.238786390051246">
        <ele>1419.6099999999999</ele>
        <time>2021-02-28T07:52:58Z</time>
      </trkpt>
      <trkpt lat="45.914329346269369" lon="9.238783540204167">
        <ele>1419.95</ele>
        <time>2021-02-28T07:53:57Z</time>
      </trkpt>
      <trkpt lat="45.914332363754511" lon="9.23878219909966">
        <ele>1420.29</ele>
        <time>2021-02-28T07:54:53Z</time>
      </trkpt>
      <trkpt lat="45.914332112297416" lon="9.238783372566104">
        <ele>1420.46</ele>
        <time>2021-02-28T07:55:53Z</time>
      </trkpt>
      <trkpt lat="45.914337644353509" lon="9.238786473870277">
        <ele>1421.27</ele>
        <time>2021-02-28T07:56:52Z</time>
      </trkpt>
      <trkpt lat="45.914336554706097" lon="9.238791251555085">
        <ele>1420.73</ele>
        <time>2021-02-28T07:57:39Z</time>
      </trkpt>
      <trkpt lat="45.914348959922791" lon="9.238803740590811">
        <ele>1420.73</ele>
        <time>2021-02-28T07:58:34Z</time>
      </trkpt>
      <trkpt lat="45.914349881932139" lon="9.238799130544066">
        <ele>1420.48</ele>
        <time>2021-02-28T07:59:21Z</time>
      </trkpt>
      <trkpt lat="45.914349881932139" lon="9.238796699792147">
        <ele>1420.5</ele>
        <time>2021-02-28T08:00:10Z</time>
      </trkpt>
      <trkpt lat="45.914350133389235" lon="9.238794939592481">
        <ele>1420.02</ele>
        <time>2021-02-28T08:00:49Z</time>
      </trkpt>
      <trkpt lat="45.914350552484393" lon="9.238796196877956">
        <ele>1420.04</ele>
        <time>2021-02-28T08:01:40Z</time>
      </trkpt>
      <trkpt lat="45.914346445351839" lon="9.238798459991813">
        <ele>1419.8199999999999</ele>
        <time>2021-02-28T08:02:31Z</time>
      </trkpt>
      <trkpt lat="45.914348121732473" lon="9.238797286525369">
        <ele>1419.48</ele>
        <time>2021-02-28T08:03:20Z</time>
      </trkpt>
      <trkpt lat="45.914348121732473" lon="9.238792257383466">
        <ele>1418.9400000000001</ele>
        <time>2021-02-28T08:04:09Z</time>
      </trkpt>
      <trkpt lat="45.914349881932139" lon="9.238781947642565">
        <ele>1419.6400000000001</ele>
        <time>2021-02-28T08:04:48Z</time>
      </trkpt>
      <trkpt lat="45.914348121732473" lon="9.238784797489643">
        <ele>1420.1700000000001</ele>
        <time>2021-02-28T08:05:50Z</time>
      </trkpt>
      <trkpt lat="45.914342673495412" lon="9.23878856934607">
        <ele>1420.4400000000001</ele>
        <time>2021-02-28T08:06:39Z</time>
      </trkpt>
      <trkpt lat="45.914344936609268" lon="9.238789072260261">
        <ele>1420.3800000000001</ele>
        <time>2021-02-28T08:07:00Z</time>
      </trkpt>
      <trkpt lat="45.914348121732473" lon="9.238793095573783">
        <ele>1419.9000000000001</ele>
        <time>2021-02-28T08:07:22Z</time>
      </trkpt>
      <trkpt lat="45.914341332390904" lon="9.238787731155753">
        <ele>1421.5</ele>
        <time>2021-02-28T08:07:25Z</time>
      </trkpt>
      <trkpt lat="45.914352228865027" lon="9.238795610144734">
        <ele>1420.28</ele>
        <time>2021-02-28T08:07:38Z</time>
      </trkpt>
      <trkpt lat="45.914354743435979" lon="9.238804327324033">
        <ele>1420.02</ele>
        <time>2021-02-28T08:08:01Z</time>
      </trkpt>
      <trkpt lat="45.914350301027298" lon="9.238811116665602">
        <ele>1420.6199999999999</ele>
        <time>2021-02-28T08:08:25Z</time>
      </trkpt>
      <trkpt lat="45.914358515292406" lon="9.238810949027538">
        <ele>1421.4300000000001</ele>
        <time>2021-02-28T08:08:39Z</time>
      </trkpt>
      <trkpt lat="45.914367064833641" lon="9.238786809146404">
        <ele>1421.8800000000001</ele>
        <time>2021-02-28T08:08:55Z</time>
      </trkpt>
      <trkpt lat="45.914377626031637" lon="9.238776080310345">
        <ele>1423.3499999999999</ele>
        <time>2021-02-28T08:09:06Z</time>
      </trkpt>
      <trkpt lat="45.914426241070032" lon="9.238715311512351">
        <ele>1425.7</ele>
        <time>2021-02-28T08:09:20Z</time>
      </trkpt>
      <trkpt lat="45.914484411478043" lon="9.238700643181801">
        <ele>1428.4100000000001</ele>
        <time>2021-02-28T08:09:35Z</time>
      </trkpt>
      <trkpt lat="45.914534032344818" lon="9.238682705909014">
        <ele>1430.51</ele>
        <time>2021-02-28T08:09:48Z</time>
      </trkpt>
      <trkpt lat="45.9145971480757" lon="9.238663259893656">
        <ele>1432.27</ele>
        <time>2021-02-28T08:10:03Z</time>
      </trkpt>
      <trkpt lat="45.914673004299402" lon="9.238671055063605">
        <ele>1433.95</ele>
        <time>2021-02-28T08:10:17Z</time>
      </trkpt>
      <trkpt lat="45.91474668122828" lon="9.238533088937402">
        <ele>1435.5699999999999</ele>
        <time>2021-02-28T08:10:33Z</time>
      </trkpt>
      <trkpt lat="45.914781969040632" lon="9.238433511927724">
        <ele>1435.6400000000001</ele>
        <time>2021-02-28T08:10:46Z</time>
      </trkpt>
      <trkpt lat="45.914787836372852" lon="9.238443989306688">
        <ele>1435.4100000000001</ele>
        <time>2021-02-28T08:11:00Z</time>
      </trkpt>
      <trkpt lat="45.914786327630281" lon="9.238443318754435">
        <ele>1434.79</ele>
        <time>2021-02-28T08:11:23Z</time>
      </trkpt>
      <trkpt lat="45.914794122800231" lon="9.238431416451931">
        <ele>1435</ele>
        <time>2021-02-28T08:11:39Z</time>
      </trkpt>
      <trkpt lat="45.914797727018595" lon="9.238436277955771">
        <ele>1435.05</ele>
        <time>2021-02-28T08:11:55Z</time>
      </trkpt>
      <trkpt lat="45.914801247417927" lon="9.238434182479978">
        <ele>1435.04</ele>
        <time>2021-02-28T08:12:17Z</time>
      </trkpt>
      <trkpt lat="45.914834355935454" lon="9.23831750638783">
        <ele>1434.52</ele>
        <time>2021-02-28T08:12:28Z</time>
      </trkpt>
      <trkpt lat="45.914872158318758" lon="9.23820611089468">
        <ele>1433.3499999999999</ele>
        <time>2021-02-28T08:12:42Z</time>
      </trkpt>
      <trkpt lat="45.914878444746137" lon="9.238158836960793">
        <ele>1432.8499999999999</ele>
        <time>2021-02-28T08:12:56Z</time>
      </trkpt>
      <trkpt lat="45.914880791679025" lon="9.23815724439919">
        <ele>1433.0599999999999</ele>
        <time>2021-02-28T08:13:20Z</time>
      </trkpt>
      <trkpt lat="45.914879282936454" lon="9.238164285197854">
        <ele>1433.7</ele>
        <time>2021-02-28T08:13:40Z</time>
      </trkpt>
      <trkpt lat="45.9148820489645" lon="9.238166883587837">
        <ele>1433.3699999999999</ele>
        <time>2021-02-28T08:13:59Z</time>
      </trkpt>
      <trkpt lat="45.91487911529839" lon="9.238168392330408">
        <ele>1432.9300000000001</ele>
        <time>2021-02-28T08:14:27Z</time>
      </trkpt>
      <trkpt lat="45.914878696203232" lon="9.238171577453613">
        <ele>1432.4000000000001</ele>
        <time>2021-02-28T08:14:54Z</time>
      </trkpt>
      <trkpt lat="45.914862351492047" lon="9.238150371238589">
        <ele>1433.03</ele>
        <time>2021-02-28T08:15:07Z</time>
      </trkpt>
      <trkpt lat="45.914823962375522" lon="9.238093961030245">
        <ele>1433.6199999999999</ele>
        <time>2021-02-28T08:15:19Z</time>
      </trkpt>
      <trkpt lat="45.914760259911418" lon="9.237967729568481">
        <ele>1435.1800000000001</ele>
        <time>2021-02-28T08:15:32Z</time>
      </trkpt>
      <trkpt lat="45.914711058139801" lon="9.237869158387184">
        <ele>1436.1600000000001</ele>
        <time>2021-02-28T08:15:43Z</time>
      </trkpt>
      <trkpt lat="45.914643751457334" lon="9.237680984660983">
        <ele>1437.8299999999999</ele>
        <time>2021-02-28T08:16:00Z</time>
      </trkpt>
      <trkpt lat="45.914577366784215" lon="9.237561374902725">
        <ele>1438.2</ele>
        <time>2021-02-28T08:16:13Z</time>
      </trkpt>
      <trkpt lat="45.914457505568862" lon="9.237478142604232">
        <ele>1438.25</ele>
        <time>2021-02-28T08:16:27Z</time>
      </trkpt>
      <trkpt lat="45.914450129494071" lon="9.23747411929071">
        <ele>1438.25</ele>
        <time>2021-02-28T08:16:28Z</time>
      </trkpt>
      <trkpt lat="45.914397574961185" lon="9.237423408776522">
        <ele>1437.98</ele>
        <time>2021-02-28T08:16:40Z</time>
      </trkpt>
      <trkpt lat="45.914374608546495" lon="9.237378146499395">
        <ele>1437.6300000000001</ele>
        <time>2021-02-28T08:16:50Z</time>
      </trkpt>
      <trkpt lat="45.914359269663692" lon="9.237360460683703">
        <ele>1437.51</ele>
        <time>2021-02-28T08:17:02Z</time>
      </trkpt>
      <trkpt lat="45.914356587454677" lon="9.237332297489047">
        <ele>1437.77</ele>
        <time>2021-02-28T08:17:14Z</time>
      </trkpt>
      <trkpt lat="45.914340075105429" lon="9.237205814570189">
        <ele>1437.8399999999999</ele>
        <time>2021-02-28T08:17:24Z</time>
      </trkpt>
      <trkpt lat="45.91432155109942" lon="9.237018143758178">
        <ele>1438.27</ele>
        <time>2021-02-28T08:17:39Z</time>
      </trkpt>
      <trkpt lat="45.914298165589571" lon="9.236853271722794">
        <ele>1438</ele>
        <time>2021-02-28T08:17:52Z</time>
      </trkpt>
      <trkpt lat="45.914253490045667" lon="9.236658392474055">
        <ele>1436.8699999999999</ele>
        <time>2021-02-28T08:18:06Z</time>
      </trkpt>
      <trkpt lat="45.914218118414283" lon="9.236441887915134">
        <ele>1435.4200000000001</ele>
        <time>2021-02-28T08:18:21Z</time>
      </trkpt>
      <trkpt lat="45.9141930565238" lon="9.236285733059049">
        <ele>1434.22</ele>
        <time>2021-02-28T08:18:35Z</time>
      </trkpt>
      <trkpt lat="45.91418668627739" lon="9.236235022544861">
        <ele>1433.7</ele>
        <time>2021-02-28T08:19:04Z</time>
      </trkpt>
      <trkpt lat="45.914247035980225" lon="9.236115328967571">
        <ele>1433.8099999999999</ele>
        <time>2021-02-28T08:19:16Z</time>
      </trkpt>
      <trkpt lat="45.914249550551176" lon="9.236111221835017">
        <ele>1433.8699999999999</ele>
        <time>2021-02-28T08:19:31Z</time>
      </trkpt>
      <trkpt lat="45.914241503924131" lon="9.236054811626673">
        <ele>1434.27</ele>
        <time>2021-02-28T08:19:40Z</time>
      </trkpt>
      <trkpt lat="45.914265224710107" lon="9.235891364514828">
        <ele>1434.3599999999999</ele>
        <time>2021-02-28T08:19:53Z</time>
      </trkpt>
      <trkpt lat="45.914252232760191" lon="9.235723474994302">
        <ele>1435.3199999999999</ele>
        <time>2021-02-28T08:20:08Z</time>
      </trkpt>
      <trkpt lat="45.914257597178221" lon="9.235605290159583">
        <ele>1435.3299999999999</ele>
        <time>2021-02-28T08:20:19Z</time>
      </trkpt>
      <trkpt lat="45.914264637976885" lon="9.2355543281883">
        <ele>1435.27</ele>
        <time>2021-02-28T08:20:29Z</time>
      </trkpt>
      <trkpt lat="45.914267152547836" lon="9.235551310703158">
        <ele>1435.5</ele>
        <time>2021-02-28T08:20:57Z</time>
      </trkpt>
      <trkpt lat="45.914296321570873" lon="9.235504120588303">
        <ele>1435.3699999999999</ele>
        <time>2021-02-28T08:21:10Z</time>
      </trkpt>
      <trkpt lat="45.91438508592546" lon="9.235450057312846">
        <ele>1433.1900000000001</ele>
        <time>2021-02-28T08:21:23Z</time>
      </trkpt>
      <trkpt lat="45.914385505020618" lon="9.235448380932212">
        <ele>1433.3499999999999</ele>
        <time>2021-02-28T08:21:36Z</time>
      </trkpt>
      <trkpt lat="45.914364969357848" lon="9.23541652970016">
        <ele>1434.1099999999999</ele>
        <time>2021-02-28T08:21:52Z</time>
      </trkpt>
      <trkpt lat="45.91436019167304" lon="9.235421977937222">
        <ele>1434.1099999999999</ele>
        <time>2021-02-28T08:22:06Z</time>
      </trkpt>
      <trkpt lat="45.914361700415611" lon="9.235428348183632">
        <ele>1433.55</ele>
        <time>2021-02-28T08:22:31Z</time>
      </trkpt>
      <trkpt lat="45.914361532777548" lon="9.235542425885797">
        <ele>1433.02</ele>
        <time>2021-02-28T08:22:42Z</time>
      </trkpt>
      <trkpt lat="45.914365388453007" lon="9.23563638702035">
        <ele>1432.54</ele>
        <time>2021-02-28T08:22:54Z</time>
      </trkpt>
      <trkpt lat="45.91435675509274" lon="9.235813161358237">
        <ele>1432.1400000000001</ele>
        <time>2021-02-28T08:23:08Z</time>
      </trkpt>
      <trkpt lat="45.91434795409441" lon="9.235879965126514">
        <ele>1432.1800000000001</ele>
        <time>2021-02-28T08:23:14Z</time>
      </trkpt>
      <trkpt lat="45.914326831698418" lon="9.236104851588607">
        <ele>1431.8900000000001</ele>
        <time>2021-02-28T08:23:30Z</time>
      </trkpt>
      <trkpt lat="45.914327837526798" lon="9.236281625926495">
        <ele>1432.1600000000001</ele>
        <time>2021-02-28T08:23:44Z</time>
      </trkpt>
      <trkpt lat="45.91436798684299" lon="9.236467955633998">
        <ele>1433.3699999999999</ele>
        <time>2021-02-28T08:23:59Z</time>
      </trkpt>
      <trkpt lat="45.914411824196577" lon="9.236639030277729">
        <ele>1433.8199999999999</ele>
        <time>2021-02-28T08:24:13Z</time>
      </trkpt>
      <trkpt lat="45.914464965462685" lon="9.236842878162861">
        <ele>1434.8800000000001</ele>
        <time>2021-02-28T08:24:31Z</time>
      </trkpt>
      <trkpt lat="45.91449161991477" lon="9.236994339153171">
        <ele>1435.26</ele>
        <time>2021-02-28T08:24:44Z</time>
      </trkpt>
      <trkpt lat="45.914532355964184" lon="9.237173544242978">
        <ele>1436.0699999999999</ele>
        <time>2021-02-28T08:25:00Z</time>
      </trkpt>
      <trkpt lat="45.914559261873364" lon="9.237277479842305">
        <ele>1436.24</ele>
        <time>2021-02-28T08:25:13Z</time>
      </trkpt>
      <trkpt lat="45.914563201367855" lon="9.23727479763329">
        <ele>1436.23</ele>
        <time>2021-02-28T08:25:25Z</time>
      </trkpt>
      <trkpt lat="45.914565296843648" lon="9.237276976928115">
        <ele>1435.9200000000001</ele>
        <time>2021-02-28T08:25:47Z</time>
      </trkpt>
      <trkpt lat="45.914568733423948" lon="9.23727622255683">
        <ele>1435.9100000000001</ele>
        <time>2021-02-28T08:26:09Z</time>
      </trkpt>
      <trkpt lat="45.914566973224282" lon="9.237278066575527">
        <ele>1436.05</ele>
        <time>2021-02-28T08:26:34Z</time>
      </trkpt>
      <trkpt lat="45.914565045386553" lon="9.237283179536462">
        <ele>1435.71</ele>
        <time>2021-02-28T08:26:55Z</time>
      </trkpt>
      <trkpt lat="45.914495307952166" lon="9.237280078232288">
        <ele>1437.1099999999999</ele>
        <time>2021-02-28T08:27:06Z</time>
      </trkpt>
      <trkpt lat="45.914420457556844" lon="9.237341769039631">
        <ele>1438.0999999999999</ele>
        <time>2021-02-28T08:27:17Z</time>
      </trkpt>
      <trkpt lat="45.914387181401253" lon="9.23736515454948">
        <ele>1437.47</ele>
        <time>2021-02-28T08:27:21Z</time>
      </trkpt>
      <trkpt lat="45.914256842806935" lon="9.237341936677694">
        <ele>1434.1400000000001</ele>
        <time>2021-02-28T08:27:36Z</time>
      </trkpt>
      <trkpt lat="45.914227422326803" lon="9.237347636371851">
        <ele>1432.5699999999999</ele>
        <time>2021-02-28T08:27:49Z</time>
      </trkpt>
      <trkpt lat="45.914207138121128" lon="9.237360125407577">
        <ele>1431.8199999999999</ele>
        <time>2021-02-28T08:28:03Z</time>
      </trkpt>
      <trkpt lat="45.914141424000263" lon="9.237388372421265">
        <ele>1428.71</ele>
        <time>2021-02-28T08:28:15Z</time>
      </trkpt>
      <trkpt lat="45.91408065520227" lon="9.237421564757824">
        <ele>1425.71</ele>
        <time>2021-02-28T08:28:25Z</time>
      </trkpt>
      <trkpt lat="45.914030196145177" lon="9.237452996894717">
        <ele>1422.51</ele>
        <time>2021-02-28T08:28:36Z</time>
      </trkpt>
      <trkpt lat="45.913972025737166" lon="9.237503288313747">
        <ele>1419.3399999999999</ele>
        <time>2021-02-28T08:28:46Z</time>
      </trkpt>
      <trkpt lat="45.913910586386919" lon="9.23756891861558">
        <ele>1416.0599999999999</ele>
        <time>2021-02-28T08:28:57Z</time>
      </trkpt>
      <trkpt lat="45.913897007703781" lon="9.237658521160483">
        <ele>1413.9100000000001</ele>
        <time>2021-02-28T08:29:06Z</time>
      </trkpt>
      <trkpt lat="45.913844956085086" lon="9.237756757065654">
        <ele>1411.0899999999999</ele>
        <time>2021-02-28T08:29:19Z</time>
      </trkpt>
      <trkpt lat="45.913819056004286" lon="9.237916432321072">
        <ele>1409.45</ele>
        <time>2021-02-28T08:29:33Z</time>
      </trkpt>
      <trkpt lat="45.913813859224319" lon="9.237952893599868">
        <ele>1409.3099999999999</ele>
        <time>2021-02-28T08:29:46Z</time>
      </trkpt>
      <trkpt lat="45.913816373795271" lon="9.237958174198866">
        <ele>1409.48</ele>
        <time>2021-02-28T08:29:59Z</time>
      </trkpt>
      <trkpt lat="45.913823917508125" lon="9.237948870286346">
        <ele>1408.29</ele>
        <time>2021-02-28T08:30:09Z</time>
      </trkpt>
      <trkpt lat="45.91382559388876" lon="9.237938476726413">
        <ele>1408.9000000000001</ele>
        <time>2021-02-28T08:31:01Z</time>
      </trkpt>
      <trkpt lat="45.913824420422316" lon="9.237938141450286">
        <ele>1409.1800000000001</ele>
        <time>2021-02-28T08:31:52Z</time>
      </trkpt>
      <trkpt lat="45.913823414593935" lon="9.237940488383174">
        <ele>1409.26</ele>
        <time>2021-02-28T08:32:50Z</time>
      </trkpt>
      <trkpt lat="45.913825342431664" lon="9.237940907478333">
        <ele>1409.1400000000001</ele>
        <time>2021-02-28T08:33:41Z</time>
      </trkpt>
      <trkpt lat="45.913829198107123" lon="9.237944427877665">
        <ele>1409.3199999999999</ele>
        <time>2021-02-28T08:34:31Z</time>
      </trkpt>
      <trkpt lat="45.913827186450362" lon="9.237940153107047">
        <ele>1408.9200000000001</ele>
        <time>2021-02-28T08:35:21Z</time>
      </trkpt>
      <trkpt lat="45.91382609680295" lon="9.237937889993191">
        <ele>1409.6300000000001</ele>
        <time>2021-02-28T08:36:23Z</time>
      </trkpt>
      <trkpt lat="45.913822911679745" lon="9.237934537231922">
        <ele>1409.99</ele>
        <time>2021-02-28T08:37:19Z</time>
      </trkpt>
      <trkpt lat="45.913826934993267" lon="9.237936129793525">
        <ele>1410.01</ele>
        <time>2021-02-28T08:38:14Z</time>
      </trkpt>
      <trkpt lat="45.913820313289762" lon="9.237938225269318">
        <ele>1410.3800000000001</ele>
        <time>2021-02-28T08:39:19Z</time>
      </trkpt>
      <trkpt lat="45.913819475099444" lon="9.237932190299034">
        <ele>1409.9400000000001</ele>
        <time>2021-02-28T08:40:18Z</time>
      </trkpt>
      <trkpt lat="45.913825342431664" lon="9.237927244976163">
        <ele>1410.3</ele>
        <time>2021-02-28T08:41:27Z</time>
      </trkpt>
      <trkpt lat="45.913819056004286" lon="9.237930430099368">
        <ele>1410.8299999999999</ele>
        <time>2021-02-28T08:42:21Z</time>
      </trkpt>
      <trkpt lat="45.913821822032332" lon="9.237930933013558">
        <ele>1411.1199999999999</ele>
        <time>2021-02-28T08:42:34Z</time>
      </trkpt>
      <trkpt lat="45.913820564746857" lon="9.237931771203876">
        <ele>1410.8499999999999</ele>
        <time>2021-02-28T08:42:42Z</time>
      </trkpt>
      <trkpt lat="45.913818133994937" lon="9.237924981862307">
        <ele>1410.77</ele>
        <time>2021-02-28T08:43:29Z</time>
      </trkpt>
      <trkpt lat="45.913814948871732" lon="9.237926993519068">
        <ele>1410.71</ele>
        <time>2021-02-28T08:44:24Z</time>
      </trkpt>
      <trkpt lat="45.913820061832666" lon="9.237927664071322">
        <ele>1410.75</ele>
        <time>2021-02-28T08:44:43Z</time>
      </trkpt>
      <trkpt lat="45.913822744041681" lon="9.237930849194527">
        <ele>1411.5899999999999</ele>
        <time>2021-02-28T08:45:41Z</time>
      </trkpt>
      <trkpt lat="45.913822827860713" lon="9.237927496433258">
        <ele>1411.4400000000001</ele>
        <time>2021-02-28T08:46:40Z</time>
      </trkpt>
      <trkpt lat="45.913818636909127" lon="9.237929424270988">
        <ele>1411.25</ele>
        <time>2021-02-28T08:47:28Z</time>
      </trkpt>
      <trkpt lat="45.913821319118142" lon="9.23793931491673">
        <ele>1411.6400000000001</ele>
        <time>2021-02-28T08:48:21Z</time>
      </trkpt>
      <trkpt lat="45.913822157308459" lon="9.237943338230252">
        <ele>1411.1500000000001</ele>
        <time>2021-02-28T08:49:20Z</time>
      </trkpt>
      <trkpt lat="45.913823246955872" lon="9.237944763153791">
        <ele>1411.79</ele>
        <time>2021-02-28T08:50:18Z</time>
      </trkpt>
      <trkpt lat="45.91382316313684" lon="9.23793638125062">
        <ele>1411.76</ele>
        <time>2021-02-28T08:51:12Z</time>
      </trkpt>
      <trkpt lat="45.913822911679745" lon="9.237938644364476">
        <ele>1412.0799999999999</ele>
        <time>2021-02-28T08:52:03Z</time>
      </trkpt>
      <trkpt lat="45.913822995498776" lon="9.237943505868316">
        <ele>1412.28</ele>
        <time>2021-02-28T08:53:00Z</time>
      </trkpt>
      <trkpt lat="45.913821319118142" lon="9.237940907478333">
        <ele>1412.3800000000001</ele>
        <time>2021-02-28T08:54:03Z</time>
      </trkpt>
      <trkpt lat="45.913823582231998" lon="9.237941326573491">
        <ele>1412.4100000000001</ele>
        <time>2021-02-28T08:55:10Z</time>
      </trkpt>
      <trkpt lat="45.913825258612633" lon="9.237943505868316">
        <ele>1412.1300000000001</ele>
        <time>2021-02-28T08:56:19Z</time>
      </trkpt>
      <trkpt lat="45.913822827860713" lon="9.237944008782506">
        <ele>1412.3199999999999</ele>
        <time>2021-02-28T08:57:19Z</time>
      </trkpt>
      <trkpt lat="45.913820983842015" lon="9.237940488383174">
        <ele>1412.9100000000001</ele>
        <time>2021-02-28T08:58:17Z</time>
      </trkpt>
      <trkpt lat="45.913822995498776" lon="9.237947696819902">
        <ele>1412.52</ele>
        <time>2021-02-28T08:59:25Z</time>
      </trkpt>
      <trkpt lat="45.91381779871881" lon="9.237948786467314">
        <ele>1412.4000000000001</ele>
        <time>2021-02-28T09:00:35Z</time>
      </trkpt>
      <trkpt lat="45.913815703243017" lon="9.237948954105377">
        <ele>1412.5899999999999</ele>
        <time>2021-02-28T09:01:42Z</time>
      </trkpt>
      <trkpt lat="45.913823917508125" lon="9.237944260239601">
        <ele>1412.96</ele>
        <time>2021-02-28T09:02:48Z</time>
      </trkpt>
      <trkpt lat="45.913823498412967" lon="9.237944511696696">
        <ele>1412.76</ele>
        <time>2021-02-28T09:03:49Z</time>
      </trkpt>
      <trkpt lat="45.913819475099444" lon="9.237946523353458">
        <ele>1412.95</ele>
        <time>2021-02-28T09:04:54Z</time>
      </trkpt>
      <trkpt lat="45.913824252784252" lon="9.23794568516314">
        <ele>1413.0899999999999</ele>
        <time>2021-02-28T09:05:53Z</time>
      </trkpt>
      <trkpt lat="45.913826683536172" lon="9.237945936620235">
        <ele>1413.03</ele>
        <time>2021-02-28T09:06:55Z</time>
      </trkpt>
      <trkpt lat="45.91382266022265" lon="9.237949708476663">
        <ele>1413.1099999999999</ele>
        <time>2021-02-28T09:07:59Z</time>
      </trkpt>
      <trkpt lat="45.913826767355204" lon="9.23795054666698">
        <ele>1412.99</ele>
        <time>2021-02-28T09:08:59Z</time>
      </trkpt>
      <trkpt lat="45.913832047954202" lon="9.237944930791855">
        <ele>1413.1700000000001</ele>
        <time>2021-02-28T09:10:00Z</time>
      </trkpt>
      <trkpt lat="45.913832299411297" lon="9.237950965762138">
        <ele>1413.01</ele>
        <time>2021-02-28T09:11:01Z</time>
      </trkpt>
      <trkpt lat="45.913827186450362" lon="9.237955491989851">
        <ele>1412.8499999999999</ele>
        <time>2021-02-28T09:12:00Z</time>
      </trkpt>
      <trkpt lat="45.913833389058709" lon="9.237949876114726">
        <ele>1413.0599999999999</ele>
        <time>2021-02-28T09:13:01Z</time>
      </trkpt>
      <trkpt lat="45.913843279704452" lon="9.237945517525077">
        <ele>1413.1700000000001</ele>
        <time>2021-02-28T09:14:02Z</time>
      </trkpt>
      <trkpt lat="45.913841016590595" lon="9.237956497818232">
        <ele>1413.29</ele>
        <time>2021-02-28T09:15:13Z</time>
      </trkpt>
      <trkpt lat="45.913837580010295" lon="9.237951636314392">
        <ele>1413.47</ele>
        <time>2021-02-28T09:16:29Z</time>
      </trkpt>
      <trkpt lat="45.913845375180244" lon="9.237954402342439">
        <ele>1413.8</ele>
        <time>2021-02-28T09:17:43Z</time>
      </trkpt>
      <trkpt lat="45.91384269297123" lon="9.237958593294025">
        <ele>1413.5999999999999</ele>
        <time>2021-02-28T09:19:01Z</time>
      </trkpt>
      <trkpt lat="45.913844956085086" lon="9.237955324351788">
        <ele>1413.4000000000001</ele>
        <time>2021-02-28T09:20:15Z</time>
      </trkpt>
      <trkpt lat="45.913843782618642" lon="9.237959766760469">
        <ele>1413.3800000000001</ele>
        <time>2021-02-28T09:21:21Z</time>
      </trkpt>
      <trkpt lat="45.913840513676405" lon="9.237959515303373">
        <ele>1413.4200000000001</ele>
        <time>2021-02-28T09:22:34Z</time>
      </trkpt>
      <trkpt lat="45.913849314674735" lon="9.23795884475112">
        <ele>1413.71</ele>
        <time>2021-02-28T09:23:45Z</time>
      </trkpt>
      <trkpt lat="45.913843363523483" lon="9.237963287159801">
        <ele>1413.97</ele>
        <time>2021-02-28T09:25:05Z</time>
      </trkpt>
      <trkpt lat="45.913844872266054" lon="9.237954318523407">
        <ele>1413.5799999999999</ele>
        <time>2021-02-28T09:26:19Z</time>
      </trkpt>
      <trkpt lat="45.913841184228659" lon="9.237953312695026">
        <ele>1413.3199999999999</ele>
        <time>2021-02-28T09:27:38Z</time>
      </trkpt>
      <trkpt lat="45.91383833438158" lon="9.237957000732422">
        <ele>1413.1099999999999</ele>
        <time>2021-02-28T09:28:52Z</time>
      </trkpt>
      <trkpt lat="45.913839256390929" lon="9.237953731790185">
        <ele>1412.9000000000001</ele>
        <time>2021-02-28T09:30:13Z</time>
      </trkpt>
      <trkpt lat="45.913834059610963" lon="9.237952893599868">
        <ele>1412.8800000000001</ele>
        <time>2021-02-28T09:31:26Z</time>
      </trkpt>
      <trkpt lat="45.913843866437674" lon="9.237948032096028">
        <ele>1412.8299999999999</ele>
        <time>2021-02-28T09:32:38Z</time>
      </trkpt>
      <trkpt lat="45.913835735991597" lon="9.237955240532756">
        <ele>1413.1099999999999</ele>
        <time>2021-02-28T09:33:45Z</time>
      </trkpt>
      <trkpt lat="45.913835903629661" lon="9.237954737618566">
        <ele>1413.1700000000001</ele>
        <time>2021-02-28T09:35:00Z</time>
      </trkpt>
      <trkpt lat="45.913832131773233" lon="9.23795348033309">
        <ele>1412.73</ele>
        <time>2021-02-28T09:36:17Z</time>
      </trkpt>
      <trkpt lat="45.913832299411297" lon="9.237955156713724">
        <ele>1412.6300000000001</ele>
        <time>2021-02-28T09:37:27Z</time>
      </trkpt>
      <trkpt lat="45.913828359916806" lon="9.237955324351788">
        <ele>1412.5699999999999</ele>
        <time>2021-02-28T09:38:42Z</time>
      </trkpt>
      <trkpt lat="45.913832383230329" lon="9.237956833094358">
        <ele>1412.5699999999999</ele>
        <time>2021-02-28T09:39:54Z</time>
      </trkpt>
      <trkpt lat="45.913836825639009" lon="9.237960185855627">
        <ele>1412.0699999999999</ele>
        <time>2021-02-28T09:41:16Z</time>
      </trkpt>
      <trkpt lat="45.913831125944853" lon="9.237973680719733">
        <ele>1412.1600000000001</ele>
        <time>2021-02-28T09:42:31Z</time>
      </trkpt>
      <trkpt lat="45.913831125944853" lon="9.237957755103707">
        <ele>1412.23</ele>
        <time>2021-02-28T09:43:42Z</time>
      </trkpt>
      <trkpt lat="45.913840848952532" lon="9.237959180027247">
        <ele>1411.9000000000001</ele>
        <time>2021-02-28T09:45:01Z</time>
      </trkpt>
      <trkpt lat="45.913845123723149" lon="9.237961694598198">
        <ele>1411.9200000000001</ele>
        <time>2021-02-28T09:46:19Z</time>
      </trkpt>
      <trkpt lat="45.9138407651335" lon="9.237958677113056">
        <ele>1411.8599999999999</ele>
        <time>2021-02-28T09:47:33Z</time>
      </trkpt>
      <trkpt lat="45.913843531161547" lon="9.237959599122405">
        <ele>1411.8699999999999</ele>
        <time>2021-02-28T09:48:50Z</time>
      </trkpt>
      <trkpt lat="45.913844788447022" lon="9.23796228133142">
        <ele>1411.5899999999999</ele>
        <time>2021-02-28T09:50:07Z</time>
      </trkpt>
      <trkpt lat="45.913841351866722" lon="9.237967981025577">
        <ele>1412.1300000000001</ele>
        <time>2021-02-28T09:51:16Z</time>
      </trkpt>
      <trkpt lat="45.913839172571898" lon="9.237967813387513">
        <ele>1411.78</ele>
        <time>2021-02-28T09:52:14Z</time>
      </trkpt>
      <trkpt lat="45.913836238905787" lon="9.237955408170819">
        <ele>1411.2</ele>
        <time>2021-02-28T09:53:07Z</time>
      </trkpt>
      <trkpt lat="45.913833389058709" lon="9.237955575808883">
        <ele>1411.6099999999999</ele>
        <time>2021-02-28T09:54:05Z</time>
      </trkpt>
      <trkpt lat="45.913830790668726" lon="9.237954989075661">
        <ele>1411.6300000000001</ele>
        <time>2021-02-28T09:55:13Z</time>
      </trkpt>
      <trkpt lat="45.913834227249026" lon="9.237959515303373">
        <ele>1411.4300000000001</ele>
        <time>2021-02-28T09:56:09Z</time>
      </trkpt>
      <trkpt lat="45.913823917508125" lon="9.237966137006879">
        <ele>1411.9300000000001</ele>
        <time>2021-02-28T09:56:56Z</time>
      </trkpt>
      <trkpt lat="45.913821738213301" lon="9.237969238311052">
        <ele>1411.8299999999999</ele>
        <time>2021-02-28T09:57:31Z</time>
      </trkpt>
      <trkpt lat="45.913834143429995" lon="9.23796814866364">
        <ele>1411.96</ele>
        <time>2021-02-28T09:57:52Z</time>
      </trkpt>
      <trkpt lat="45.91383833438158" lon="9.237962029874325">
        <ele>1412.1300000000001</ele>
        <time>2021-02-28T09:58:40Z</time>
      </trkpt>
      <trkpt lat="45.913840429857373" lon="9.237964963540435">
        <ele>1411.55</ele>
        <time>2021-02-28T09:59:33Z</time>
      </trkpt>
      <trkpt lat="45.913829701021314" lon="9.237951803952456">
        <ele>1412.27</ele>
        <time>2021-02-28T09:59:52Z</time>
      </trkpt>
      <trkpt lat="45.913836909458041" lon="9.237941913306713">
        <ele>1413</ele>
        <time>2021-02-28T10:00:14Z</time>
      </trkpt>
      <trkpt lat="45.913836658000946" lon="9.237939650192857">
        <ele>1413.3199999999999</ele>
        <time>2021-02-28T10:00:32Z</time>
      </trkpt>
      <trkpt lat="45.913840681314468" lon="9.237949792295694">
        <ele>1413.1400000000001</ele>
        <time>2021-02-28T10:00:45Z</time>
      </trkpt>
      <trkpt lat="45.913835652172565" lon="9.237945433706045">
        <ele>1413.29</ele>
        <time>2021-02-28T10:01:02Z</time>
      </trkpt>
      <trkpt lat="45.913833137601614" lon="9.237945936620235">
        <ele>1413.23</ele>
        <time>2021-02-28T10:01:19Z</time>
      </trkpt>
      <trkpt lat="45.913827521726489" lon="9.237942919135094">
        <ele>1413.2</ele>
        <time>2021-02-28T10:01:47Z</time>
      </trkpt>
      <trkpt lat="45.913833137601614" lon="9.237943757325411">
        <ele>1413.04</ele>
        <time>2021-02-28T10:01:58Z</time>
      </trkpt>
      <trkpt lat="45.913831377401948" lon="9.237946188077331">
        <ele>1413.9200000000001</ele>
        <time>2021-02-28T10:02:18Z</time>
      </trkpt>
      <trkpt lat="45.913832550868392" lon="9.237868571653962">
        <ele>1413.4400000000001</ele>
        <time>2021-02-28T10:02:38Z</time>
      </trkpt>
      <trkpt lat="45.913828862830997" lon="9.23780495300889">
        <ele>1413.6700000000001</ele>
        <time>2021-02-28T10:02:49Z</time>
      </trkpt>
      <trkpt lat="45.913841854780912" lon="9.237764468416572">
        <ele>1414.1800000000001</ele>
        <time>2021-02-28T10:03:01Z</time>
      </trkpt>
      <trkpt lat="45.913847219198942" lon="9.237761031836271">
        <ele>1414.1300000000001</ele>
        <time>2021-02-28T10:03:19Z</time>
      </trkpt>
      <trkpt lat="45.913863228634" lon="9.237728426232934">
        <ele>1414.6900000000001</ele>
        <time>2021-02-28T10:03:31Z</time>
      </trkpt>
      <trkpt lat="45.913901282474399" lon="9.237692132592201">
        <ele>1416.1300000000001</ele>
        <time>2021-02-28T10:03:42Z</time>
      </trkpt>
      <trkpt lat="45.913933971896768" lon="9.237627675756812">
        <ele>1418.04</ele>
        <time>2021-02-28T10:03:55Z</time>
      </trkpt>
      <trkpt lat="45.913943443447351" lon="9.23760462552309">
        <ele>1419.1700000000001</ele>
        <time>2021-02-28T10:04:07Z</time>
      </trkpt>
      <trkpt lat="45.91395559720695" lon="9.237539833411574">
        <ele>1420.0599999999999</ele>
        <time>2021-02-28T10:04:19Z</time>
      </trkpt>
      <trkpt lat="45.913965236395597" lon="9.237479651346803">
        <ele>1421.6800000000001</ele>
        <time>2021-02-28T10:04:31Z</time>
      </trkpt>
      <trkpt lat="45.913971774280071" lon="9.237421732395887">
        <ele>1422.9300000000001</ele>
        <time>2021-02-28T10:04:43Z</time>
      </trkpt>
      <trkpt lat="45.913956854492426" lon="9.237291980534792">
        <ele>1424.29</ele>
        <time>2021-02-28T10:04:59Z</time>
      </trkpt>
      <trkpt lat="45.913985185325146" lon="9.237251998856664">
        <ele>1425.5799999999999</ele>
        <time>2021-02-28T10:05:11Z</time>
      </trkpt>
      <trkpt lat="45.914007229730487" lon="9.237212939187884">
        <ele>1427.6800000000001</ele>
        <time>2021-02-28T10:05:23Z</time>
      </trkpt>
      <trkpt lat="45.914012929424644" lon="9.237107997760177">
        <ele>1429.6300000000001</ele>
        <time>2021-02-28T10:05:38Z</time>
      </trkpt>
      <trkpt lat="45.914010247215629" lon="9.237045887857676">
        <ele>1430.2</ele>
        <time>2021-02-28T10:05:50Z</time>
      </trkpt>
      <trkpt lat="45.91401762329042" lon="9.23693030141294">
        <ele>1431.8</ele>
        <time>2021-02-28T10:06:04Z</time>
      </trkpt>
      <trkpt lat="45.914032207801938" lon="9.236787222325802">
        <ele>1432.77</ele>
        <time>2021-02-28T10:06:20Z</time>
      </trkpt>
      <trkpt lat="45.914041260257363" lon="9.236712455749512">
        <ele>1433.51</ele>
        <time>2021-02-28T10:06:27Z</time>
      </trkpt>
      <trkpt lat="45.914059029892087" lon="9.236474493518472">
        <ele>1433.6300000000001</ele>
        <time>2021-02-28T10:06:44Z</time>
      </trkpt>
      <trkpt lat="45.914123235270381" lon="9.236292187124491">
        <ele>1434.1400000000001</ele>
        <time>2021-02-28T10:06:59Z</time>
      </trkpt>
      <trkpt lat="45.914179980754852" lon="9.236140977591276">
        <ele>1434.78</ele>
        <time>2021-02-28T10:07:13Z</time>
      </trkpt>
      <trkpt lat="45.914192721247673" lon="9.236135613173246">
        <ele>1434.9000000000001</ele>
        <time>2021-02-28T10:07:24Z</time>
      </trkpt>
      <trkpt lat="45.91420822776854" lon="9.236085908487439">
        <ele>1435.1900000000001</ele>
        <time>2021-02-28T10:07:36Z</time>
      </trkpt>
      <trkpt lat="45.914246533066034" lon="9.235942326486111">
        <ele>1435.5999999999999</ele>
        <time>2021-02-28T10:07:49Z</time>
      </trkpt>
      <trkpt lat="45.91426002793014" lon="9.235861860215664">
        <ele>1435.3499999999999</ele>
        <time>2021-02-28T10:08:01Z</time>
      </trkpt>
      <trkpt lat="45.914263464510441" lon="9.235874097794294">
        <ele>1434.8900000000001</ele>
        <time>2021-02-28T10:08:22Z</time>
      </trkpt>
      <trkpt lat="45.914259860292077" lon="9.235807377845049">
        <ele>1434.7</ele>
        <time>2021-02-28T10:08:47Z</time>
      </trkpt>
      <trkpt lat="45.914268577471375" lon="9.235766474157572">
        <ele>1434.6400000000001</ele>
        <time>2021-02-28T10:08:50Z</time>
      </trkpt>
      <trkpt lat="45.914270421490073" lon="9.23558215610683">
        <ele>1435.3099999999999</ele>
        <time>2021-02-28T10:09:06Z</time>
      </trkpt>
      <trkpt lat="45.914258435368538" lon="9.235463049262762">
        <ele>1436.4000000000001</ele>
        <time>2021-02-28T10:09:19Z</time>
      </trkpt>
      <trkpt lat="45.914245275780559" lon="9.235292142257094">
        <ele>1437.98</ele>
        <time>2021-02-28T10:09:34Z</time>
      </trkpt>
      <trkpt lat="45.914237983524799" lon="9.235166916623712">
        <ele>1439.5599999999999</ele>
        <time>2021-02-28T10:09:47Z</time>
      </trkpt>
      <trkpt lat="45.914226165041327" lon="9.23507010564208">
        <ele>1440.9000000000001</ele>
        <time>2021-02-28T10:10:01Z</time>
      </trkpt>
      <trkpt lat="45.914224153384566" lon="9.235050324350596">
        <ele>1441.1300000000001</ele>
        <time>2021-02-28T10:10:14Z</time>
      </trkpt>
      <trkpt lat="45.914214933291078" lon="9.234922248870134">
        <ele>1442.6900000000001</ele>
        <time>2021-02-28T10:10:29Z</time>
      </trkpt>
      <trkpt lat="45.914198085665703" lon="9.234800711274147">
        <ele>1444.73</ele>
        <time>2021-02-28T10:10:45Z</time>
      </trkpt>
      <trkpt lat="45.914190961048007" lon="9.23466794192791">
        <ele>1447.0599999999999</ele>
        <time>2021-02-28T10:11:02Z</time>
      </trkpt>
      <trkpt lat="45.914193307980895" lon="9.234629552811384">
        <ele>1447.96</ele>
        <time>2021-02-28T10:11:16Z</time>
      </trkpt>
      <trkpt lat="45.914197666570544" lon="9.234633324667811">
        <ele>1447.75</ele>
        <time>2021-02-28T10:11:30Z</time>
      </trkpt>
      <trkpt lat="45.914189536124468" lon="9.234552690759301">
        <ele>1449.3900000000001</ele>
        <time>2021-02-28T10:11:49Z</time>
      </trkpt>
      <trkpt lat="45.914183584973216" lon="9.23442754894495">
        <ele>1451.99</ele>
        <time>2021-02-28T10:12:04Z</time>
      </trkpt>
      <trkpt lat="45.914165647700429" lon="9.23433618620038">
        <ele>1454.23</ele>
        <time>2021-02-28T10:12:17Z</time>
      </trkpt>
      <trkpt lat="45.914165563881397" lon="9.234219761565328">
        <ele>1457.3399999999999</ele>
        <time>2021-02-28T10:12:32Z</time>
      </trkpt>
      <trkpt lat="45.914154835045338" lon="9.234128231182694">
        <ele>1459.53</ele>
        <time>2021-02-28T10:12:46Z</time>
      </trkpt>
      <trkpt lat="45.914134467020631" lon="9.234038041904569">
        <ele>1461.97</ele>
        <time>2021-02-28T10:13:01Z</time>
      </trkpt>
      <trkpt lat="45.914146956056356" lon="9.233947265893221">
        <ele>1463.6700000000001</ele>
        <time>2021-02-28T10:13:15Z</time>
      </trkpt>
      <trkpt lat="45.914138909429312" lon="9.23386319540441">
        <ele>1466.0999999999999</ele>
        <time>2021-02-28T10:13:30Z</time>
      </trkpt>
      <trkpt lat="45.914122397080064" lon="9.233792703598738">
        <ele>1468.5799999999999</ele>
        <time>2021-02-28T10:13:43Z</time>
      </trkpt>
      <trkpt lat="45.914099011570215" lon="9.233732772991061">
        <ele>1470.5</ele>
        <time>2021-02-28T10:13:55Z</time>
      </trkpt>
      <trkpt lat="45.914128934964538" lon="9.233617689460516">
        <ele>1473.0999999999999</ele>
        <time>2021-02-28T10:14:11Z</time>
      </trkpt>
      <trkpt lat="45.914127174764872" lon="9.233514089137316">
        <ele>1476.1700000000001</ele>
        <time>2021-02-28T10:14:27Z</time>
      </trkpt>
      <trkpt lat="45.914065651595592" lon="9.23348349519074">
        <ele>1478.4400000000001</ele>
        <time>2021-02-28T10:14:42Z</time>
      </trkpt>
      <trkpt lat="45.914049474522471" lon="9.233421133831143">
        <ele>1480.76</ele>
        <time>2021-02-28T10:14:54Z</time>
      </trkpt>
      <trkpt lat="45.914015946909785" lon="9.233373356983066">
        <ele>1482.98</ele>
        <time>2021-02-28T10:15:09Z</time>
      </trkpt>
      <trkpt lat="45.913993734866381" lon="9.233313426375389">
        <ele>1485.1800000000001</ele>
        <time>2021-02-28T10:15:22Z</time>
      </trkpt>
      <trkpt lat="45.913957022130489" lon="9.233257938176394">
        <ele>1488.04</ele>
        <time>2021-02-28T10:15:35Z</time>
      </trkpt>
      <trkpt lat="45.91389499604702" lon="9.233202785253525">
        <ele>1490.46</ele>
        <time>2021-02-28T10:15:51Z</time>
      </trkpt>
      <trkpt lat="45.913843447342515" lon="9.233195492997766">
        <ele>1491.1300000000001</ele>
        <time>2021-02-28T10:16:02Z</time>
      </trkpt>
      <trkpt lat="45.913847219198942" lon="9.23318593762815">
        <ele>1491.4200000000001</ele>
        <time>2021-02-28T10:16:16Z</time>
      </trkpt>
      <trkpt lat="45.913848811760545" lon="9.233182920143008">
        <ele>1491.3199999999999</ele>
        <time>2021-02-28T10:16:37Z</time>
      </trkpt>
      <trkpt lat="45.913847386837006" lon="9.233181076124311">
        <ele>1491.0799999999999</ele>
        <time>2021-02-28T10:16:54Z</time>
      </trkpt>
      <trkpt lat="45.913842357695103" lon="9.23318057321012">
        <ele>1489.96</ele>
        <time>2021-02-28T10:17:14Z</time>
      </trkpt>
      <trkpt lat="45.913840010762215" lon="9.233182836323977">
        <ele>1491.24</ele>
        <time>2021-02-28T10:17:17Z</time>
      </trkpt>
      <trkpt lat="45.913819475099444" lon="9.233131958171725">
        <ele>1491.73</ele>
        <time>2021-02-28T10:17:37Z</time>
      </trkpt>
      <trkpt lat="45.91377773322165" lon="9.233065489679575">
        <ele>1494.1700000000001</ele>
        <time>2021-02-28T10:17:50Z</time>
      </trkpt>
      <trkpt lat="45.913719478994608" lon="9.232968930155039">
        <ele>1497.01</ele>
        <time>2021-02-28T10:18:08Z</time>
      </trkpt>
      <trkpt lat="45.913678240031004" lon="9.232882428914309">
        <ele>1499.02</ele>
        <time>2021-02-28T10:18:23Z</time>
      </trkpt>
      <trkpt lat="45.913670947775245" lon="9.232858205214143">
        <ele>1499.3699999999999</ele>
        <time>2021-02-28T10:18:47Z</time>
      </trkpt>
      <trkpt lat="45.913612861186266" lon="9.232811266556382">
        <ele>1501.01</ele>
        <time>2021-02-28T10:19:02Z</time>
      </trkpt>
      <trkpt lat="45.913586290553212" lon="9.232714036479592">
        <ele>1502.98</ele>
        <time>2021-02-28T10:19:18Z</time>
      </trkpt>
      <trkpt lat="45.913558881729841" lon="9.23261764459312">
        <ele>1505.3399999999999</ele>
        <time>2021-02-28T10:19:32Z</time>
      </trkpt>
      <trkpt lat="45.913528790697455" lon="9.232507171109319">
        <ele>1507.99</ele>
        <time>2021-02-28T10:19:48Z</time>
      </trkpt>
      <trkpt lat="45.913480762392282" lon="9.232412371784449">
        <ele>1509.8800000000001</ele>
        <time>2021-02-28T10:20:03Z</time>
      </trkpt>
      <trkpt lat="45.913454443216324" lon="9.232315644621849">
        <ele>1511.53</ele>
        <time>2021-02-28T10:20:17Z</time>
      </trkpt>
      <trkpt lat="45.913424855098128" lon="9.232278680428863">
        <ele>1512.24</ele>
        <time>2021-02-28T10:20:31Z</time>
      </trkpt>
      <trkpt lat="45.913389902561903" lon="9.232201399281621">
        <ele>1513.03</ele>
        <time>2021-02-28T10:20:43Z</time>
      </trkpt>
      <trkpt lat="45.913327960297465" lon="9.232083968818188">
        <ele>1514.8299999999999</ele>
        <time>2021-02-28T10:20:59Z</time>
      </trkpt>
      <trkpt lat="45.913342125713825" lon="9.232041640207171">
        <ele>1515.1500000000001</ele>
        <time>2021-02-28T10:21:09Z</time>
      </trkpt>
      <trkpt lat="45.913309017196298" lon="9.232042478397489">
        <ele>1515.8299999999999</ele>
        <time>2021-02-28T10:21:23Z</time>
      </trkpt>
      <trkpt lat="45.913295187056065" lon="9.232033677399159">
        <ele>1515.54</ele>
        <time>2021-02-28T10:21:40Z</time>
      </trkpt>
      <trkpt lat="45.913231652230024" lon="9.23194189555943">
        <ele>1517.01</ele>
        <time>2021-02-28T10:21:53Z</time>
      </trkpt>
      <trkpt lat="45.913171470165253" lon="9.2318294942379">
        <ele>1519.54</ele>
        <time>2021-02-28T10:22:10Z</time>
      </trkpt>
      <trkpt lat="45.913129728287458" lon="9.231780124828219">
        <ele>1521.3</ele>
        <time>2021-02-28T10:22:25Z</time>
      </trkpt>
      <trkpt lat="45.913097793236375" lon="9.231723630800843">
        <ele>1522.9300000000001</ele>
        <time>2021-02-28T10:22:39Z</time>
      </trkpt>
      <trkpt lat="45.913057811558247" lon="9.231657832860947">
        <ele>1525.6400000000001</ele>
        <time>2021-02-28T10:22:55Z</time>
      </trkpt>
      <trkpt lat="45.91303744353354" lon="9.231633609160781">
        <ele>1526.5999999999999</ele>
        <time>2021-02-28T10:23:08Z</time>
      </trkpt>
      <trkpt lat="45.91301690787077" lon="9.231527745723724">
        <ele>1529.46</ele>
        <time>2021-02-28T10:23:24Z</time>
      </trkpt>
      <trkpt lat="45.912974579259753" lon="9.231462283059955">
        <ele>1531.54</ele>
        <time>2021-02-28T10:23:37Z</time>
      </trkpt>
      <trkpt lat="45.912937698885798" lon="9.231410399079323">
        <ele>1533.9100000000001</ele>
        <time>2021-02-28T10:23:51Z</time>
      </trkpt>
      <trkpt lat="45.912902327254415" lon="9.231338230893016">
        <ele>1536.49</ele>
        <time>2021-02-28T10:24:05Z</time>
      </trkpt>
      <trkpt lat="45.912880701944232" lon="9.23126564361155">
        <ele>1537.24</ele>
        <time>2021-02-28T10:24:18Z</time>
      </trkpt>
      <trkpt lat="45.912872236222029" lon="9.231252148747444">
        <ele>1537.1600000000001</ele>
        <time>2021-02-28T10:24:31Z</time>
      </trkpt>
      <trkpt lat="45.912909032776952" lon="9.231250304728746">
        <ele>1537.76</ele>
        <time>2021-02-28T10:24:41Z</time>
      </trkpt>
      <trkpt lat="45.912910038605332" lon="9.231253657490015">
        <ele>1537.8599999999999</ele>
        <time>2021-02-28T10:24:53Z</time>
      </trkpt>
      <trkpt lat="45.912904422730207" lon="9.231250975281">
        <ele>1537.53</ele>
        <time>2021-02-28T10:25:11Z</time>
      </trkpt>
      <trkpt lat="45.912912469357252" lon="9.231248209252954">
        <ele>1537.4100000000001</ele>
        <time>2021-02-28T10:25:28Z</time>
      </trkpt>
      <trkpt lat="45.912910709157586" lon="9.231246868148446">
        <ele>1537.53</ele>
        <time>2021-02-28T10:25:44Z</time>
      </trkpt>
      <trkpt lat="45.912911798804998" lon="9.231230607256293">
        <ele>1537.73</ele>
        <time>2021-02-28T10:25:56Z</time>
      </trkpt>
      <trkpt lat="45.912947170436382" lon="9.23119381070137">
        <ele>1537.95</ele>
        <time>2021-02-28T10:26:08Z</time>
      </trkpt>
      <trkpt lat="45.912947421893477" lon="9.231197666376829">
        <ele>1538.3800000000001</ele>
        <time>2021-02-28T10:26:29Z</time>
      </trkpt>
      <trkpt lat="45.912944488227367" lon="9.231187859550118">
        <ele>1538.6500000000001</ele>
        <time>2021-02-28T10:26:46Z</time>
      </trkpt>
      <trkpt lat="45.912943566218019" lon="9.23119087703526">
        <ele>1538.0999999999999</ele>
        <time>2021-02-28T10:27:06Z</time>
      </trkpt>
      <trkpt lat="45.912940967828035" lon="9.231196325272322">
        <ele>1538.3299999999999</ele>
        <time>2021-02-28T10:27:21Z</time>
      </trkpt>
      <trkpt lat="45.91294608078897" lon="9.231199594214559">
        <ele>1537.8900000000001</ele>
        <time>2021-02-28T10:27:40Z</time>
      </trkpt>
      <trkpt lat="45.912951109930873" lon="9.23120504245162">
        <ele>1537.9200000000001</ele>
        <time>2021-02-28T10:27:59Z</time>
      </trkpt>
      <trkpt lat="45.912952115759254" lon="9.231210239231587">
        <ele>1537.71</ele>
        <time>2021-02-28T10:28:11Z</time>
      </trkpt>
      <trkpt lat="45.912954127416015" lon="9.231212753802538">
        <ele>1538.6199999999999</ele>
        <time>2021-02-28T10:28:18Z</time>
      </trkpt>
      <trkpt lat="45.912953456863761" lon="9.231212502345443">
        <ele>1537.6300000000001</ele>
        <time>2021-02-28T10:28:20Z</time>
      </trkpt>
      <trkpt lat="45.912953289225698" lon="9.231205293908715">
        <ele>1537.5699999999999</ele>
        <time>2021-02-28T10:28:36Z</time>
      </trkpt>
      <trkpt lat="45.912951864302158" lon="9.231203114613891">
        <ele>1537.55</ele>
        <time>2021-02-28T10:28:53Z</time>
      </trkpt>
      <trkpt lat="45.912950271740556" lon="9.231243515387178">
        <ele>1536.99</ele>
        <time>2021-02-28T10:29:06Z</time>
      </trkpt>
      <trkpt lat="45.912952870130539" lon="9.231239659711719">
        <ele>1537.4200000000001</ele>
        <time>2021-02-28T10:29:26Z</time>
      </trkpt>
      <trkpt lat="45.912949685007334" lon="9.231215268373489">
        <ele>1537.5699999999999</ele>
        <time>2021-02-28T10:29:35Z</time>
      </trkpt>
      <trkpt lat="45.912953792139888" lon="9.231186099350452">
        <ele>1537.5799999999999</ele>
        <time>2021-02-28T10:30:06Z</time>
      </trkpt>
      <trkpt lat="45.912949852645397" lon="9.231194229796529">
        <ele>1537.3399999999999</ele>
        <time>2021-02-28T10:30:21Z</time>
      </trkpt>
      <trkpt lat="45.912955719977617" lon="9.231200600042939">
        <ele>1537.5599999999999</ele>
        <time>2021-02-28T10:30:32Z</time>
      </trkpt>
      <trkpt lat="45.912951612845063" lon="9.231205210089684">
        <ele>1537.27</ele>
        <time>2021-02-28T10:30:45Z</time>
      </trkpt>
      <trkpt lat="45.912950355559587" lon="9.231141256168485">
        <ele>1537.28</ele>
        <time>2021-02-28T10:30:56Z</time>
      </trkpt>
      <trkpt lat="45.91297835111618" lon="9.23105257563293">
        <ele>1536.6700000000001</ele>
        <time>2021-02-28T10:31:07Z</time>
      </trkpt>
      <trkpt lat="45.912977429106832" lon="9.231046373024583">
        <ele>1536.4000000000001</ele>
        <time>2021-02-28T10:31:20Z</time>
      </trkpt>
      <trkpt lat="45.912987403571606" lon="9.230975713580847">
        <ele>1535.22</ele>
        <time>2021-02-28T10:31:35Z</time>
      </trkpt>
      <trkpt lat="45.912996707484126" lon="9.230840094387531">
        <ele>1534.03</ele>
        <time>2021-02-28T10:31:48Z</time>
      </trkpt>
      <trkpt lat="45.913009364157915" lon="9.230719897896051">
        <ele>1535.0999999999999</ele>
        <time>2021-02-28T10:32:01Z</time>
      </trkpt>
      <trkpt lat="45.913041131570935" lon="9.230548571795225">
        <ele>1535.23</ele>
        <time>2021-02-28T10:32:15Z</time>
      </trkpt>
      <trkpt lat="45.91307214461267" lon="9.230370875447989">
        <ele>1534.6199999999999</ele>
        <time>2021-02-28T10:32:29Z</time>
      </trkpt>
      <trkpt lat="45.91309804469347" lon="9.230204243212938">
        <ele>1534.1700000000001</ele>
        <time>2021-02-28T10:32:43Z</time>
      </trkpt>
      <trkpt lat="45.913111623376608" lon="9.230028726160526">
        <ele>1535.1800000000001</ele>
        <time>2021-02-28T10:32:58Z</time>
      </trkpt>
      <trkpt lat="45.913126124069095" lon="9.229864524677396">
        <ele>1536.8499999999999</ele>
        <time>2021-02-28T10:33:13Z</time>
      </trkpt>
      <trkpt lat="45.913148503750563" lon="9.229694036766887">
        <ele>1538.49</ele>
        <time>2021-02-28T10:33:29Z</time>
      </trkpt>
      <trkpt lat="45.913157975301147" lon="9.229604518041015">
        <ele>1539.4300000000001</ele>
        <time>2021-02-28T10:33:42Z</time>
      </trkpt>
      <trkpt lat="45.9131586458534" lon="9.229606781154871">
        <ele>1539.21</ele>
        <time>2021-02-28T10:34:04Z</time>
      </trkpt>
      <trkpt lat="45.913169709965587" lon="9.229524973779917">
        <ele>1540.0999999999999</ele>
        <time>2021-02-28T10:34:25Z</time>
      </trkpt>
      <trkpt lat="45.913182534277439" lon="9.229378290474415">
        <ele>1542.28</ele>
        <time>2021-02-28T10:34:41Z</time>
      </trkpt>
      <trkpt lat="45.913190497085452" lon="9.229248706251383">
        <ele>1544.3299999999999</ele>
        <time>2021-02-28T10:34:55Z</time>
      </trkpt>
      <trkpt lat="45.913191335275769" lon="9.229119289666414">
        <ele>1546.4400000000001</ele>
        <time>2021-02-28T10:35:10Z</time>
      </trkpt>
      <trkpt lat="45.913194268941879" lon="9.228988364338875">
        <ele>1548.1700000000001</ele>
        <time>2021-02-28T10:35:25Z</time>
      </trkpt>
      <trkpt lat="45.913189155980945" lon="9.228836484253407">
        <ele>1550.4100000000001</ele>
        <time>2021-02-28T10:35:42Z</time>
      </trkpt>
      <trkpt lat="45.913188150152564" lon="9.228722406551242">
        <ele>1552.52</ele>
        <time>2021-02-28T10:35:55Z</time>
      </trkpt>
      <trkpt lat="45.913184378296137" lon="9.228584356606007">
        <ele>1554.7</ele>
        <time>2021-02-28T10:36:10Z</time>
      </trkpt>
      <trkpt lat="45.913165099918842" lon="9.228462148457766">
        <ele>1557.45</ele>
        <time>2021-02-28T10:36:26Z</time>
      </trkpt>
      <trkpt lat="45.913158981129527" lon="9.2283636610955">
        <ele>1559.5</ele>
        <time>2021-02-28T10:36:39Z</time>
      </trkpt>
      <trkpt lat="45.913172140717506" lon="9.228263664990664">
        <ele>1561.3299999999999</ele>
        <time>2021-02-28T10:36:51Z</time>
      </trkpt>
      <trkpt lat="45.913208769634366" lon="9.228118155151606">
        <ele>1562.5699999999999</ele>
        <time>2021-02-28T10:37:07Z</time>
      </trkpt>
      <trkpt lat="45.913223437964916" lon="9.227989828214049">
        <ele>1562.8099999999999</ele>
        <time>2021-02-28T10:37:19Z</time>
      </trkpt>
      <trkpt lat="45.913245901465416" lon="9.227781537920237">
        <ele>1562.24</ele>
        <time>2021-02-28T10:37:36Z</time>
      </trkpt>
      <trkpt lat="45.913252355530858" lon="9.227618928998709">
        <ele>1561.8900000000001</ele>
        <time>2021-02-28T10:37:50Z</time>
      </trkpt>
      <trkpt lat="45.913255624473095" lon="9.227458331733942">
        <ele>1562</ele>
        <time>2021-02-28T10:38:04Z</time>
      </trkpt>
      <trkpt lat="45.913237687200308" lon="9.227252304553986">
        <ele>1561.49</ele>
        <time>2021-02-28T10:38:20Z</time>
      </trkpt>
      <trkpt lat="45.913213798776269" lon="9.227049378678203">
        <ele>1560.8</ele>
        <time>2021-02-28T10:38:35Z</time>
      </trkpt>
      <trkpt lat="45.913180103525519" lon="9.22683572396636">
        <ele>1560.74</ele>
        <time>2021-02-28T10:38:51Z</time>
      </trkpt>
      <trkpt lat="45.913155628368258" lon="9.226675210520625">
        <ele>1561.3199999999999</ele>
        <time>2021-02-28T10:39:05Z</time>
      </trkpt>
      <trkpt lat="45.913134757429361" lon="9.226504806429148">
        <ele>1562.5899999999999</ele>
        <time>2021-02-28T10:39:21Z</time>
      </trkpt>
      <trkpt lat="45.913120340555906" lon="9.226372539997101">
        <ele>1564.3599999999999</ele>
        <time>2021-02-28T10:39:36Z</time>
      </trkpt>
      <trkpt lat="45.91309217736125" lon="9.22622837126255">
        <ele>1566.0699999999999</ele>
        <time>2021-02-28T10:39:53Z</time>
      </trkpt>
      <trkpt lat="45.913057811558247" lon="9.226096943020821">
        <ele>1567.4100000000001</ele>
        <time>2021-02-28T10:40:09Z</time>
      </trkpt>
      <trkpt lat="45.913024451583624" lon="9.225958306342363">
        <ele>1569.04</ele>
        <time>2021-02-28T10:40:26Z</time>
      </trkpt>
      <trkpt lat="45.912999641150236" lon="9.225823860615492">
        <ele>1571.48</ele>
        <time>2021-02-28T10:40:43Z</time>
      </trkpt>
      <trkpt lat="45.912962174043059" lon="9.225719086825848">
        <ele>1572.72</ele>
        <time>2021-02-28T10:40:56Z</time>
      </trkpt>
      <trkpt lat="45.912924120202661" lon="9.225619425997138">
        <ele>1573.9000000000001</ele>
        <time>2021-02-28T10:41:09Z</time>
      </trkpt>
      <trkpt lat="45.912886988371611" lon="9.225531667470932">
        <ele>1576.02</ele>
        <time>2021-02-28T10:41:24Z</time>
      </trkpt>
      <trkpt lat="45.912881204858422" lon="9.225518004968762">
        <ele>1576</ele>
        <time>2021-02-28T10:41:36Z</time>
      </trkpt>
      <trkpt lat="45.912853293120861" lon="9.225470563396812">
        <ele>1578.1099999999999</ele>
        <time>2021-02-28T10:41:47Z</time>
      </trkpt>
      <trkpt lat="45.912827728316188" lon="9.225394371896982">
        <ele>1579.97</ele>
        <time>2021-02-28T10:42:00Z</time>
      </trkpt>
      <trkpt lat="45.912799565121531" lon="9.225298566743732">
        <ele>1582.6099999999999</ele>
        <time>2021-02-28T10:42:16Z</time>
      </trkpt>
      <trkpt lat="45.912771318107843" lon="9.225211897864938">
        <ele>1584.9400000000001</ele>
        <time>2021-02-28T10:42:31Z</time>
      </trkpt>
      <trkpt lat="45.912740305066109" lon="9.225113661959767">
        <ele>1586.54</ele>
        <time>2021-02-28T10:42:47Z</time>
      </trkpt>
      <trkpt lat="45.912751788273454" lon="9.225087175145745">
        <ele>1587.03</ele>
        <time>2021-02-28T10:42:57Z</time>
      </trkpt>
      <trkpt lat="45.912749022245407" lon="9.225058257579804">
        <ele>1587.6400000000001</ele>
        <time>2021-02-28T10:43:17Z</time>
      </trkpt>
      <trkpt lat="45.912736114114523" lon="9.225037470459938">
        <ele>1588.1400000000001</ele>
        <time>2021-02-28T10:43:30Z</time>
      </trkpt>
      <trkpt lat="45.912732928991318" lon="9.225037219002843">
        <ele>1588.3099999999999</ele>
        <time>2021-02-28T10:43:59Z</time>
      </trkpt>
      <trkpt lat="45.912735862657428" lon="9.225037721917033">
        <ele>1587.7</ele>
        <time>2021-02-28T10:44:16Z</time>
      </trkpt>
      <trkpt lat="45.912730498239398" lon="9.225036967545748">
        <ele>1587.9000000000001</ele>
        <time>2021-02-28T10:44:42Z</time>
      </trkpt>
      <trkpt lat="45.912733012810349" lon="9.225030262023211">
        <ele>1588.9400000000001</ele>
        <time>2021-02-28T10:44:57Z</time>
      </trkpt>
      <trkpt lat="45.912745082750916" lon="9.22502875328064">
        <ele>1587.6099999999999</ele>
        <time>2021-02-28T10:45:13Z</time>
      </trkpt>
      <trkpt lat="45.912750530987978" lon="9.225029172375798">
        <ele>1587.72</ele>
        <time>2021-02-28T10:45:34Z</time>
      </trkpt>
      <trkpt lat="45.912749944254756" lon="9.225033782422543">
        <ele>1587.8299999999999</ele>
        <time>2021-02-28T10:45:49Z</time>
      </trkpt>
      <trkpt lat="45.912753464654088" lon="9.225033530965447">
        <ele>1587.7</ele>
        <time>2021-02-28T10:46:20Z</time>
      </trkpt>
      <trkpt lat="45.91273938305676" lon="9.224964631721377">
        <ele>1588.8099999999999</ele>
        <time>2021-02-28T10:46:30Z</time>
      </trkpt>
      <trkpt lat="45.912736784666777" lon="9.224811661988497">
        <ele>1590.49</ele>
        <time>2021-02-28T10:46:45Z</time>
      </trkpt>
      <trkpt lat="45.912743154913187" lon="9.224701942875981">
        <ele>1592.53</ele>
        <time>2021-02-28T10:46:57Z</time>
      </trkpt>
      <trkpt lat="45.912750195711851" lon="9.224588368088007">
        <ele>1594.4400000000001</ele>
        <time>2021-02-28T10:47:12Z</time>
      </trkpt>
      <trkpt lat="45.912754638120532" lon="9.224526258185506">
        <ele>1595.55</ele>
        <time>2021-02-28T10:47:30Z</time>
      </trkpt>
      <trkpt lat="45.91275891289115" lon="9.224385693669319">
        <ele>1598.0999999999999</ele>
        <time>2021-02-28T10:47:47Z</time>
      </trkpt>
      <trkpt lat="45.91275405138731" lon="9.224264407530427">
        <ele>1600.4400000000001</ele>
        <time>2021-02-28T10:48:03Z</time>
      </trkpt>
      <trkpt lat="45.912750950083137" lon="9.224202381446958">
        <ele>1601.8900000000001</ele>
        <time>2021-02-28T10:48:18Z</time>
      </trkpt>
      <trkpt lat="45.912754302844405" lon="9.224195592105389">
        <ele>1602.1400000000001</ele>
        <time>2021-02-28T10:48:32Z</time>
      </trkpt>
      <trkpt lat="45.912752961739898" lon="9.224106324836612">
        <ele>1603.3499999999999</ele>
        <time>2021-02-28T10:48:48Z</time>
      </trkpt>
      <trkpt lat="45.912754386663437" lon="9.224008424207568">
        <ele>1605.46</ele>
        <time>2021-02-28T10:49:01Z</time>
      </trkpt>
      <trkpt lat="45.912747178226709" lon="9.223915804177523">
        <ele>1607.5</ele>
        <time>2021-02-28T10:49:16Z</time>
      </trkpt>
      <trkpt lat="45.912745418027043" lon="9.223895939067006">
        <ele>1607.6300000000001</ele>
        <time>2021-02-28T10:49:31Z</time>
      </trkpt>
      <trkpt lat="45.912740975618362" lon="9.223799295723438">
        <ele>1609.5599999999999</ele>
        <time>2021-02-28T10:49:44Z</time>
      </trkpt>
      <trkpt lat="45.912737539038062" lon="9.223763588815928">
        <ele>1610.1900000000001</ele>
        <time>2021-02-28T10:49:56Z</time>
      </trkpt>
      <trkpt lat="45.912735695019364" lon="9.223761577159166">
        <ele>1609.96</ele>
        <time>2021-02-28T10:50:15Z</time>
      </trkpt>
      <trkpt lat="45.912706777453423" lon="9.223697371780872">
        <ele>1609.52</ele>
        <time>2021-02-28T10:50:33Z</time>
      </trkpt>
      <trkpt lat="45.912696300074458" lon="9.223669962957501">
        <ele>1609.1300000000001</ele>
        <time>2021-02-28T10:50:45Z</time>
      </trkpt>
      <trkpt lat="45.912672411650419" lon="9.223597459495068">
        <ele>1608.8</ele>
        <time>2021-02-28T10:50:55Z</time>
      </trkpt>
      <trkpt lat="45.91266855597496" lon="9.223576169461012">
        <ele>1608.71</ele>
        <time>2021-02-28T10:50:57Z</time>
      </trkpt>
      <trkpt lat="45.912619354203343" lon="9.223438454791904">
        <ele>1608.22</ele>
        <time>2021-02-28T10:51:11Z</time>
      </trkpt>
      <trkpt lat="45.912567302584648" lon="9.223297135904431">
        <ele>1608.1400000000001</ele>
        <time>2021-02-28T10:51:24Z</time>
      </trkpt>
      <trkpt lat="45.912517346441746" lon="9.223163528367877">
        <ele>1608.75</ele>
        <time>2021-02-28T10:51:38Z</time>
      </trkpt>
      <trkpt lat="45.912484992295504" lon="9.223091192543507">
        <ele>1608.8099999999999</ele>
        <time>2021-02-28T10:51:50Z</time>
      </trkpt>
      <trkpt lat="45.912472251802683" lon="9.223040817305446">
        <ele>1608.6600000000001</ele>
        <time>2021-02-28T10:52:01Z</time>
      </trkpt>
      <trkpt lat="45.912440903484821" lon="9.222829677164555">
        <ele>1606.0899999999999</ele>
        <time>2021-02-28T10:52:15Z</time>
      </trkpt>
      <trkpt lat="45.912426067516208" lon="9.222607724368572">
        <ele>1602.9200000000001</ele>
        <time>2021-02-28T10:52:29Z</time>
      </trkpt>
      <trkpt lat="45.912426821887493" lon="9.222309999167919">
        <ele>1601.3299999999999</ele>
        <time>2021-02-28T10:52:47Z</time>
      </trkpt>
      <trkpt lat="45.912435874342918" lon="9.222071785479784">
        <ele>1600.51</ele>
        <time>2021-02-28T10:53:03Z</time>
      </trkpt>
      <trkpt lat="45.912436712533236" lon="9.221862237900496">
        <ele>1600.1900000000001</ele>
        <time>2021-02-28T10:53:17Z</time>
      </trkpt>
      <trkpt lat="45.912432689219713" lon="9.221674650907517">
        <ele>1600.8199999999999</ele>
        <time>2021-02-28T10:53:31Z</time>
      </trkpt>
      <trkpt lat="45.912451716139913" lon="9.221466947346926">
        <ele>1601.6700000000001</ele>
        <time>2021-02-28T10:53:46Z</time>
      </trkpt>
      <trkpt lat="45.912427995353937" lon="9.221271313726902">
        <ele>1603.74</ele>
        <time>2021-02-28T10:54:03Z</time>
      </trkpt>
      <trkpt lat="45.912403268739581" lon="9.221126893535256">
        <ele>1606.1800000000001</ele>
        <time>2021-02-28T10:54:18Z</time>
      </trkpt>
      <trkpt lat="45.912381056696177" lon="9.221001332625747">
        <ele>1608.5799999999999</ele>
        <time>2021-02-28T10:54:33Z</time>
      </trkpt>
      <trkpt lat="45.912382565438747" lon="9.220991358160973">
        <ele>1608.9100000000001</ele>
        <time>2021-02-28T10:54:48Z</time>
      </trkpt>
      <trkpt lat="45.912391450256109" lon="9.220977695658803">
        <ele>1608.9300000000001</ele>
        <time>2021-02-28T10:55:01Z</time>
      </trkpt>
      <trkpt lat="45.912396730855107" lon="9.220981635153294">
        <ele>1609.1800000000001</ele>
        <time>2021-02-28T10:55:13Z</time>
      </trkpt>
      <trkpt lat="45.912398910149932" lon="9.22098389826715">
        <ele>1609.1700000000001</ele>
        <time>2021-02-28T10:55:32Z</time>
      </trkpt>
      <trkpt lat="45.912400502711535" lon="9.220975516363978">
        <ele>1609.0799999999999</ele>
        <time>2021-02-28T10:55:54Z</time>
      </trkpt>
      <trkpt lat="45.912408130243421" lon="9.220982640981674">
        <ele>1604.46</ele>
        <time>2021-02-28T10:56:10Z</time>
      </trkpt>
      <trkpt lat="45.912408297881484" lon="9.220982054248452">
        <ele>1604.3499999999999</ele>
        <time>2021-02-28T10:56:11Z</time>
      </trkpt>
      <trkpt lat="45.912408800795674" lon="9.220981635153294">
        <ele>1605.8399999999999</ele>
        <time>2021-02-28T10:56:13Z</time>
      </trkpt>
      <trkpt lat="45.912409052252769" lon="9.220980880782008">
        <ele>1608.8800000000001</ele>
        <time>2021-02-28T10:56:15Z</time>
      </trkpt>
      <trkpt lat="45.91240955516696" lon="9.220979958772659">
        <ele>1610.2</ele>
        <time>2021-02-28T10:56:17Z</time>
      </trkpt>
      <trkpt lat="45.912412069737911" lon="9.220976522192359">
        <ele>1615.8599999999999</ele>
        <time>2021-02-28T10:56:29Z</time>
      </trkpt>
      <trkpt lat="45.91241198591888" lon="9.220976773649454">
        <ele>1614.74</ele>
        <time>2021-02-28T10:56:30Z</time>
      </trkpt>
      <trkpt lat="45.912412405014038" lon="9.220976354554296">
        <ele>1611.4000000000001</ele>
        <time>2021-02-28T10:56:31Z</time>
      </trkpt>
      <trkpt lat="45.912413159385324" lon="9.220976354554296">
        <ele>1609.6099999999999</ele>
        <time>2021-02-28T10:56:34Z</time>
      </trkpt>
      <trkpt lat="45.912417517974973" lon="9.220973756164312">
        <ele>1609.23</ele>
        <time>2021-02-28T10:56:59Z</time>
      </trkpt>
      <trkpt lat="45.912414165213704" lon="9.220977611839771">
        <ele>1609.51</ele>
        <time>2021-02-28T10:57:26Z</time>
      </trkpt>
      <trkpt lat="45.912412153556943" lon="9.220980713143945">
        <ele>1609.1600000000001</ele>
        <time>2021-02-28T10:57:42Z</time>
      </trkpt>
      <trkpt lat="45.912408046424389" lon="9.220982892438769">
        <ele>1609.0799999999999</ele>
        <time>2021-02-28T10:58:01Z</time>
      </trkpt>
      <trkpt lat="45.912408633157611" lon="9.220974091440439">
        <ele>1609.21</ele>
        <time>2021-02-28T10:58:26Z</time>
      </trkpt>
      <trkpt lat="45.912408716976643" lon="9.220973672345281">
        <ele>1609.4200000000001</ele>
        <time>2021-02-28T10:58:44Z</time>
      </trkpt>
      <trkpt lat="45.912409722805023" lon="9.220973504707217">
        <ele>1609.26</ele>
        <time>2021-02-28T10:59:02Z</time>
      </trkpt>
      <trkpt lat="45.912409722805023" lon="9.220980880782008">
        <ele>1609.04</ele>
        <time>2021-02-28T10:59:30Z</time>
      </trkpt>
      <trkpt lat="45.912409471347928" lon="9.220979288220406">
        <ele>1609</ele>
        <time>2021-02-28T10:59:59Z</time>
      </trkpt>
      <trkpt lat="45.912415338680148" lon="9.220982892438769">
        <ele>1609</ele>
        <time>2021-02-28T11:00:19Z</time>
      </trkpt>
      <trkpt lat="45.91241936199367" lon="9.220979372039437">
        <ele>1609.25</ele>
        <time>2021-02-28T11:00:42Z</time>
      </trkpt>
      <trkpt lat="45.912419864907861" lon="9.22098389826715">
        <ele>1609.1900000000001</ele>
        <time>2021-02-28T11:01:05Z</time>
      </trkpt>
      <trkpt lat="45.912406034767628" lon="9.220983060076833">
        <ele>1609.25</ele>
        <time>2021-02-28T11:01:17Z</time>
      </trkpt>
      <trkpt lat="45.912400502711535" lon="9.220984233543277">
        <ele>1608.75</ele>
        <time>2021-02-28T11:01:30Z</time>
      </trkpt>
      <trkpt lat="45.912405531853437" lon="9.220964200794697">
        <ele>1609.3199999999999</ele>
        <time>2021-02-28T11:01:44Z</time>
      </trkpt>
      <trkpt lat="45.912404442206025" lon="9.220954310148954">
        <ele>1609.48</ele>
        <time>2021-02-28T11:02:07Z</time>
      </trkpt>
      <trkpt lat="45.912406956776977" lon="9.220953555777669">
        <ele>1609.8199999999999</ele>
        <time>2021-02-28T11:02:27Z</time>
      </trkpt>
      <trkpt lat="45.91240662150085" lon="9.220950705930591">
        <ele>1609.74</ele>
        <time>2021-02-28T11:02:46Z</time>
      </trkpt>
      <trkpt lat="45.912406370043755" lon="9.220952549949288">
        <ele>1609.8099999999999</ele>
        <time>2021-02-28T11:03:03Z</time>
      </trkpt>
      <trkpt lat="45.91240419074893" lon="9.220957579091191">
        <ele>1609.75</ele>
        <time>2021-02-28T11:03:21Z</time>
      </trkpt>
      <trkpt lat="45.912407711148262" lon="9.220948610454798">
        <ele>1609.6300000000001</ele>
        <time>2021-02-28T11:03:40Z</time>
      </trkpt>
      <trkpt lat="45.912413829937577" lon="9.220916843041778">
        <ele>1610.3599999999999</ele>
        <time>2021-02-28T11:03:52Z</time>
      </trkpt>
      <trkpt lat="45.912441490218043" lon="9.220791282132268">
        <ele>1609.6900000000001</ele>
        <time>2021-02-28T11:04:03Z</time>
      </trkpt>
      <trkpt lat="45.912481304258108" lon="9.220712156966329">
        <ele>1608</ele>
        <time>2021-02-28T11:04:10Z</time>
      </trkpt>
      <trkpt lat="45.912580545991659" lon="9.220547955483198">
        <ele>1604.3399999999999</ele>
        <time>2021-02-28T11:04:24Z</time>
      </trkpt>
      <trkpt lat="45.912693869322538" lon="9.220384759828448">
        <ele>1601.24</ele>
        <time>2021-02-28T11:04:38Z</time>
      </trkpt>
      <trkpt lat="45.912795290350914" lon="9.220242351293564">
        <ele>1597.8399999999999</ele>
        <time>2021-02-28T11:04:49Z</time>
      </trkpt>
      <trkpt lat="45.912801576778293" lon="9.220226341858506">
        <ele>1597.5599999999999</ele>
        <time>2021-02-28T11:04:50Z</time>
      </trkpt>
      <trkpt lat="45.91284491121769" lon="9.220115700736642">
        <ele>1594.3399999999999</ele>
        <time>2021-02-28T11:04:58Z</time>
      </trkpt>
      <trkpt lat="45.912858406081796" lon="9.220068762078881">
        <ele>1593.1099999999999</ele>
        <time>2021-02-28T11:05:01Z</time>
      </trkpt>
      <trkpt lat="45.912901824340224" lon="9.219955187290907">
        <ele>1589.8900000000001</ele>
        <time>2021-02-28T11:05:09Z</time>
      </trkpt>
      <trkpt lat="45.912925293669105" lon="9.219823759049177">
        <ele>1586.8399999999999</ele>
        <time>2021-02-28T11:05:18Z</time>
      </trkpt>
      <trkpt lat="45.912967287003994" lon="9.219695180654526">
        <ele>1583.8299999999999</ele>
        <time>2021-02-28T11:05:27Z</time>
      </trkpt>
      <trkpt lat="45.913015399128199" lon="9.219513209536672">
        <ele>1580.5599999999999</ele>
        <time>2021-02-28T11:05:38Z</time>
      </trkpt>
      <trkpt lat="45.913065355271101" lon="9.219242557883263">
        <ele>1578.03</ele>
        <time>2021-02-28T11:05:54Z</time>
      </trkpt>
      <trkpt lat="45.913128554821014" lon="9.219006188213825">
        <ele>1578.6500000000001</ele>
        <time>2021-02-28T11:06:10Z</time>
      </trkpt>
      <trkpt lat="45.913194352760911" lon="9.218828408047557">
        <ele>1580.78</ele>
        <time>2021-02-28T11:06:24Z</time>
      </trkpt>
      <trkpt lat="45.913263754919171" lon="9.218631936237216">
        <ele>1581.9200000000001</ele>
        <time>2021-02-28T11:06:40Z</time>
      </trkpt>
      <trkpt lat="45.913343634456396" lon="9.218442672863603">
        <ele>1582.8399999999999</ele>
        <time>2021-02-28T11:06:56Z</time>
      </trkpt>
      <trkpt lat="45.913453521206975" lon="9.218247374519706">
        <ele>1582.51</ele>
        <time>2021-02-28T11:07:11Z</time>
      </trkpt>
      <trkpt lat="45.913550080731511" lon="9.21805459074676">
        <ele>1581.76</ele>
        <time>2021-02-28T11:07:26Z</time>
      </trkpt>
      <trkpt lat="45.913627445697784" lon="9.21781511977315">
        <ele>1578.6700000000001</ele>
        <time>2021-02-28T11:07:42Z</time>
      </trkpt>
      <trkpt lat="45.913645718246698" lon="9.217624766752124">
        <ele>1576.9200000000001</ele>
        <time>2021-02-28T11:07:53Z</time>
      </trkpt>
      <trkpt lat="45.91368829831481" lon="9.21741689555347">
        <ele>1577.73</ele>
        <time>2021-02-28T11:08:07Z</time>
      </trkpt>
      <trkpt lat="45.91372936964035" lon="9.217271553352475">
        <ele>1579.6400000000001</ele>
        <time>2021-02-28T11:08:20Z</time>
      </trkpt>
      <trkpt lat="45.913739930838346" lon="9.217234086245298">
        <ele>1578.9100000000001</ele>
        <time>2021-02-28T11:08:23Z</time>
      </trkpt>
      <trkpt lat="45.913785360753536" lon="9.217067956924439">
        <ele>1580.1199999999999</ele>
        <time>2021-02-28T11:08:37Z</time>
      </trkpt>
      <trkpt lat="45.913859037682414" lon="9.216845836490393">
        <ele>1582.01</ele>
        <time>2021-02-28T11:08:55Z</time>
      </trkpt>
      <trkpt lat="45.913912765681744" lon="9.21663410961628">
        <ele>1584.78</ele>
        <time>2021-02-28T11:09:13Z</time>
      </trkpt>
      <trkpt lat="45.913958279415965" lon="9.216514080762863">
        <ele>1587.46</ele>
        <time>2021-02-28T11:09:28Z</time>
      </trkpt>
      <trkpt lat="45.914001697674394" lon="9.216398745775223">
        <ele>1590.77</ele>
        <time>2021-02-28T11:09:44Z</time>
      </trkpt>
      <trkpt lat="45.91401762329042" lon="9.216294139623642">
        <ele>1593.5699999999999</ele>
        <time>2021-02-28T11:09:59Z</time>
      </trkpt>
      <trkpt lat="45.914048552513123" lon="9.21619531698525">
        <ele>1596.24</ele>
        <time>2021-02-28T11:10:13Z</time>
      </trkpt>
      <trkpt lat="45.914053497835994" lon="9.216132620349526">
        <ele>1597.99</ele>
        <time>2021-02-28T11:10:26Z</time>
      </trkpt>
      <trkpt lat="45.914057521149516" lon="9.216132620349526">
        <ele>1597.8199999999999</ele>
        <time>2021-02-28T11:10:44Z</time>
      </trkpt>
      <trkpt lat="45.914054587483406" lon="9.216129267588258">
        <ele>1597.48</ele>
        <time>2021-02-28T11:11:06Z</time>
      </trkpt>
      <trkpt lat="45.914060287177563" lon="9.216115018352866">
        <ele>1597.4400000000001</ele>
        <time>2021-02-28T11:11:26Z</time>
      </trkpt>
      <trkpt lat="45.914065903052688" lon="9.216085681691766">
        <ele>1598</ele>
        <time>2021-02-28T11:11:29Z</time>
      </trkpt>
      <trkpt lat="45.91409339569509" lon="9.215913182124496">
        <ele>1598.1500000000001</ele>
        <time>2021-02-28T11:11:41Z</time>
      </trkpt>
      <trkpt lat="45.91414175927639" lon="9.215696007013321">
        <ele>1596.1199999999999</ele>
        <time>2021-02-28T11:11:56Z</time>
      </trkpt>
      <trkpt lat="45.914222979918122" lon="9.215507162734866">
        <ele>1594.3299999999999</ele>
        <time>2021-02-28T11:12:09Z</time>
      </trkpt>
      <trkpt lat="45.914279976859689" lon="9.215334244072437">
        <ele>1593.25</ele>
        <time>2021-02-28T11:12:24Z</time>
      </trkpt>
      <trkpt lat="45.914331609383225" lon="9.215194853022695">
        <ele>1593.5799999999999</ele>
        <time>2021-02-28T11:12:36Z</time>
      </trkpt>
      <trkpt lat="45.914392042905092" lon="9.215074488893151">
        <ele>1593.8499999999999</ele>
        <time>2021-02-28T11:12:49Z</time>
      </trkpt>
      <trkpt lat="45.914463875815272" lon="9.214898804202676">
        <ele>1594.02</ele>
        <time>2021-02-28T11:13:06Z</time>
      </trkpt>
      <trkpt lat="45.91449991799891" lon="9.214756479486823">
        <ele>1594.8900000000001</ele>
        <time>2021-02-28T11:13:21Z</time>
      </trkpt>
      <trkpt lat="45.914515173062682" lon="9.214614406228066">
        <ele>1596.55</ele>
        <time>2021-02-28T11:13:37Z</time>
      </trkpt>
      <trkpt lat="45.914544761180878" lon="9.214454563334584">
        <ele>1599.0799999999999</ele>
        <time>2021-02-28T11:13:56Z</time>
      </trkpt>
      <trkpt lat="45.914570661261678" lon="9.214318273589015">
        <ele>1600.4100000000001</ele>
        <time>2021-02-28T11:14:10Z</time>
      </trkpt>
      <trkpt lat="45.914604440331459" lon="9.214206207543612">
        <ele>1601.4000000000001</ele>
        <time>2021-02-28T11:14:22Z</time>
      </trkpt>
      <trkpt lat="45.914616174995899" lon="9.214195562526584">
        <ele>1601.8299999999999</ele>
        <time>2021-02-28T11:14:35Z</time>
      </trkpt>
      <trkpt lat="45.914617013186216" lon="9.214197490364313">
        <ele>1601.8299999999999</ele>
        <time>2021-02-28T11:14:56Z</time>
      </trkpt>
      <trkpt lat="45.914622964337468" lon="9.214164800941944">
        <ele>1602.1300000000001</ele>
        <time>2021-02-28T11:15:10Z</time>
      </trkpt>
      <trkpt lat="45.914646768942475" lon="9.214075030758977">
        <ele>1602.3699999999999</ele>
        <time>2021-02-28T11:15:16Z</time>
      </trkpt>
      <trkpt lat="45.914723630994558" lon="9.213874535635114">
        <ele>1604.71</ele>
        <time>2021-02-28T11:15:33Z</time>
      </trkpt>
      <trkpt lat="45.914761852473021" lon="9.213659036904573">
        <ele>1606.6099999999999</ele>
        <time>2021-02-28T11:15:49Z</time>
      </trkpt>
      <trkpt lat="45.914790686219931" lon="9.213465247303248">
        <ele>1607.7</ele>
        <time>2021-02-28T11:16:04Z</time>
      </trkpt>
      <trkpt lat="45.914808874949813" lon="9.213324515148997">
        <ele>1608.75</ele>
        <time>2021-02-28T11:16:19Z</time>
      </trkpt>
      <trkpt lat="45.914812982082367" lon="9.213321916759014">
        <ele>1609.1800000000001</ele>
        <time>2021-02-28T11:16:29Z</time>
      </trkpt>
      <trkpt lat="45.914823459461331" lon="9.213260393589735">
        <ele>1610.3499999999999</ele>
        <time>2021-02-28T11:16:46Z</time>
      </trkpt>
      <trkpt lat="45.914824716746807" lon="9.21324891038239">
        <ele>1610.49</ele>
        <time>2021-02-28T11:17:08Z</time>
      </trkpt>
      <trkpt lat="45.914834691211581" lon="9.213258130475879">
        <ele>1610.6300000000001</ele>
        <time>2021-02-28T11:17:25Z</time>
      </trkpt>
      <trkpt lat="45.914828237146139" lon="9.213240779936314">
        <ele>1610.7</ele>
        <time>2021-02-28T11:17:43Z</time>
      </trkpt>
      <trkpt lat="45.914835026487708" lon="9.213208928704262">
        <ele>1611.4300000000001</ele>
        <time>2021-02-28T11:17:54Z</time>
      </trkpt>
      <trkpt lat="45.914829326793551" lon="9.213196858763695">
        <ele>1611.6900000000001</ele>
        <time>2021-02-28T11:18:04Z</time>
      </trkpt>
      <trkpt lat="45.914831003174186" lon="9.213186213746667">
        <ele>1611.26</ele>
        <time>2021-02-28T11:18:17Z</time>
      </trkpt>
      <trkpt lat="45.914827734231949" lon="9.213189650326967">
        <ele>1611.4300000000001</ele>
        <time>2021-02-28T11:18:31Z</time>
      </trkpt>
      <trkpt lat="45.914830667898059" lon="9.213191578164697">
        <ele>1611.3599999999999</ele>
        <time>2021-02-28T11:18:52Z</time>
      </trkpt>
      <trkpt lat="45.914819184690714" lon="9.213278917595744">
        <ele>1609.97</ele>
        <time>2021-02-28T11:19:05Z</time>
      </trkpt>
      <trkpt lat="45.91480677947402" lon="9.213345218449831">
        <ele>1608.6500000000001</ele>
        <time>2021-02-28T11:19:11Z</time>
      </trkpt>
      <trkpt lat="45.914774592965841" lon="9.2134556081146">
        <ele>1606.49</ele>
        <time>2021-02-28T11:19:23Z</time>
      </trkpt>
      <trkpt lat="45.914766630157828" lon="9.213503804057837">
        <ele>1606.0999999999999</ele>
        <time>2021-02-28T11:19:34Z</time>
      </trkpt>
      <trkpt lat="45.91476084664464" lon="9.213552922010422">
        <ele>1606.01</ele>
        <time>2021-02-28T11:19:47Z</time>
      </trkpt>
      <trkpt lat="45.91474131681025" lon="9.213663898408413">
        <ele>1605.1199999999999</ele>
        <time>2021-02-28T11:20:00Z</time>
      </trkpt>
      <trkpt lat="45.914717428386211" lon="9.213761799037457">
        <ele>1604.04</ele>
        <time>2021-02-28T11:20:12Z</time>
      </trkpt>
      <trkpt lat="45.914707286283374" lon="9.213820891454816">
        <ele>1603.45</ele>
        <time>2021-02-28T11:20:24Z</time>
      </trkpt>
      <trkpt lat="45.914711812511086" lon="9.213813431560993">
        <ele>1602.5</ele>
        <time>2021-02-28T11:20:34Z</time>
      </trkpt>
      <trkpt lat="45.914698988199234" lon="9.21381720341742">
        <ele>1602.52</ele>
        <time>2021-02-28T11:21:02Z</time>
      </trkpt>
      <trkpt lat="45.914696222171187" lon="9.213820556178689">
        <ele>1602.4000000000001</ele>
        <time>2021-02-28T11:21:33Z</time>
      </trkpt>
      <trkpt lat="45.914703933522105" lon="9.213819298893213">
        <ele>1602.46</ele>
        <time>2021-02-28T11:22:30Z</time>
      </trkpt>
      <trkpt lat="45.914709297940135" lon="9.213811587542296">
        <ele>1602.5999999999999</ele>
        <time>2021-02-28T11:23:41Z</time>
      </trkpt>
      <trkpt lat="45.914711812511086" lon="9.213812341913581">
        <ele>1602.96</ele>
        <time>2021-02-28T11:24:48Z</time>
      </trkpt>
      <trkpt lat="45.914714578539133" lon="9.213808653876185">
        <ele>1603.05</ele>
        <time>2021-02-28T11:26:04Z</time>
      </trkpt>
      <trkpt lat="45.914716338738799" lon="9.213802954182029">
        <ele>1602.96</ele>
        <time>2021-02-28T11:27:13Z</time>
      </trkpt>
      <trkpt lat="45.914716674014926" lon="9.213798260316253">
        <ele>1603</ele>
        <time>2021-02-28T11:28:28Z</time>
      </trkpt>
      <trkpt lat="45.914718182757497" lon="9.213802702724934">
        <ele>1602.4000000000001</ele>
        <time>2021-02-28T11:29:30Z</time>
      </trkpt>
      <trkpt lat="45.914716925472021" lon="9.213806726038456">
        <ele>1602.8499999999999</ele>
        <time>2021-02-28T11:30:30Z</time>
      </trkpt>
      <trkpt lat="45.914716003462672" lon="9.213812174275518">
        <ele>1602.71</ele>
        <time>2021-02-28T11:31:42Z</time>
      </trkpt>
      <trkpt lat="45.914714829996228" lon="9.213809156790376">
        <ele>1602.5799999999999</ele>
        <time>2021-02-28T11:32:42Z</time>
      </trkpt>
      <trkpt lat="45.914715081453323" lon="9.213813850656152">
        <ele>1602.53</ele>
        <time>2021-02-28T11:33:47Z</time>
      </trkpt>
      <trkpt lat="45.914714159443974" lon="9.213808318600059">
        <ele>1602.71</ele>
        <time>2021-02-28T11:34:53Z</time>
      </trkpt>
      <trkpt lat="45.914713153615594" lon="9.213808150961995">
        <ele>1602.75</ele>
        <time>2021-02-28T11:35:48Z</time>
      </trkpt>
      <trkpt lat="45.91471147723496" lon="9.213811168447137">
        <ele>1603.1400000000001</ele>
        <time>2021-02-28T11:36:51Z</time>
      </trkpt>
      <trkpt lat="45.914711058139801" lon="9.213814018294215">
        <ele>1603.0999999999999</ele>
        <time>2021-02-28T11:37:55Z</time>
      </trkpt>
      <trkpt lat="45.914710471406579" lon="9.213808234781027">
        <ele>1603.05</ele>
        <time>2021-02-28T11:39:01Z</time>
      </trkpt>
      <trkpt lat="45.914711561053991" lon="9.213805887848139">
        <ele>1603.21</ele>
        <time>2021-02-28T11:40:05Z</time>
      </trkpt>
      <trkpt lat="45.914711058139801" lon="9.213811084628105">
        <ele>1603.8499999999999</ele>
        <time>2021-02-28T11:41:11Z</time>
      </trkpt>
      <trkpt lat="45.914716254919767" lon="9.213806977495551">
        <ele>1603.25</ele>
        <time>2021-02-28T11:42:13Z</time>
      </trkpt>
      <trkpt lat="45.914716003462672" lon="9.213803960010409">
        <ele>1603.4300000000001</ele>
        <time>2021-02-28T11:43:20Z</time>
      </trkpt>
      <trkpt lat="45.914716087281704" lon="9.213808821514249">
        <ele>1603.25</ele>
        <time>2021-02-28T11:44:22Z</time>
      </trkpt>
      <trkpt lat="45.914718937128782" lon="9.213806558400393">
        <ele>1603.3499999999999</ele>
        <time>2021-02-28T11:45:32Z</time>
      </trkpt>
      <trkpt lat="45.914717428386211" lon="9.213800523430109">
        <ele>1603.47</ele>
        <time>2021-02-28T11:46:25Z</time>
      </trkpt>
      <trkpt lat="45.914712399244308" lon="9.213798176497221">
        <ele>1603.4400000000001</ele>
        <time>2021-02-28T11:46:36Z</time>
      </trkpt>
      <trkpt lat="45.914715249091387" lon="9.213799769058824">
        <ele>1603.52</ele>
        <time>2021-02-28T11:47:00Z</time>
      </trkpt>
      <trkpt lat="45.914716254919767" lon="9.213794823735952">
        <ele>1603.4000000000001</ele>
        <time>2021-02-28T11:47:35Z</time>
      </trkpt>
      <trkpt lat="45.914726061746478" lon="9.213802199810743">
        <ele>1603.7</ele>
        <time>2021-02-28T11:48:06Z</time>
      </trkpt>
      <trkpt lat="45.914735030382872" lon="9.21381276100874">
        <ele>1604.1900000000001</ele>
        <time>2021-02-28T11:48:18Z</time>
      </trkpt>
      <trkpt lat="45.914739221334457" lon="9.213811587542296">
        <ele>1604.5599999999999</ele>
        <time>2021-02-28T11:48:51Z</time>
      </trkpt>
      <trkpt lat="45.914740227162838" lon="9.213809324428439">
        <ele>1604.3699999999999</ele>
        <time>2021-02-28T11:49:38Z</time>
      </trkpt>
      <trkpt lat="45.914733354002237" lon="9.213806809857488">
        <ele>1604.53</ele>
        <time>2021-02-28T11:50:19Z</time>
      </trkpt>
      <trkpt lat="45.914728743955493" lon="9.213815024122596">
        <ele>1604.51</ele>
        <time>2021-02-28T11:50:47Z</time>
      </trkpt>
      <trkpt lat="45.914724050089717" lon="9.213826255872846">
        <ele>1604.1700000000001</ele>
        <time>2021-02-28T11:51:39Z</time>
      </trkpt>
      <trkpt lat="45.914725726470351" lon="9.213823406025767">
        <ele>1604.53</ele>
        <time>2021-02-28T11:52:44Z</time>
      </trkpt>
      <trkpt lat="45.91472614556551" lon="9.213819550350308">
        <ele>1604.0799999999999</ele>
        <time>2021-02-28T11:53:42Z</time>
      </trkpt>
      <trkpt lat="45.914728157222271" lon="9.213813180103898">
        <ele>1604.23</ele>
        <time>2021-02-28T11:54:38Z</time>
      </trkpt>
      <trkpt lat="45.914724720641971" lon="9.213816365227103">
        <ele>1604.51</ele>
        <time>2021-02-28T11:55:38Z</time>
      </trkpt>
      <trkpt lat="45.914727570489049" lon="9.21381569467485">
        <ele>1604.4100000000001</ele>
        <time>2021-02-28T11:56:40Z</time>
      </trkpt>
      <trkpt lat="45.914726899936795" lon="9.213817538693547">
        <ele>1604.6800000000001</ele>
        <time>2021-02-28T11:57:49Z</time>
      </trkpt>
      <trkpt lat="45.914727570489049" lon="9.213812006637454">
        <ele>1605.28</ele>
        <time>2021-02-28T11:58:56Z</time>
      </trkpt>
      <trkpt lat="45.914729163050652" lon="9.213804211467505">
        <ele>1605.28</ele>
        <time>2021-02-28T12:00:03Z</time>
      </trkpt>
      <trkpt lat="45.914731929078698" lon="9.213798847049475">
        <ele>1605</ele>
        <time>2021-02-28T12:01:09Z</time>
      </trkpt>
      <trkpt lat="45.914734778925776" lon="9.213797673583031">
        <ele>1605.1600000000001</ele>
        <time>2021-02-28T12:02:06Z</time>
      </trkpt>
      <trkpt lat="45.914731174707413" lon="9.213797338306904">
        <ele>1604.8800000000001</ele>
        <time>2021-02-28T12:03:06Z</time>
      </trkpt>
      <trkpt lat="45.914732934907079" lon="9.213793147355318">
        <ele>1604.75</ele>
        <time>2021-02-28T12:04:17Z</time>
      </trkpt>
      <trkpt lat="45.914733186364174" lon="9.213798847049475">
        <ele>1604.46</ele>
        <time>2021-02-28T12:05:22Z</time>
      </trkpt>
      <trkpt lat="45.914726061746478" lon="9.213803373277187">
        <ele>1604.75</ele>
        <time>2021-02-28T12:06:24Z</time>
      </trkpt>
      <trkpt lat="45.9147266484797" lon="9.213803876191378">
        <ele>1604.8499999999999</ele>
        <time>2021-02-28T12:07:29Z</time>
      </trkpt>
      <trkpt lat="45.914731090888381" lon="9.213791973888874">
        <ele>1605.1600000000001</ele>
        <time>2021-02-28T12:08:10Z</time>
      </trkpt>
      <trkpt lat="45.914739053696394" lon="9.213817454874516">
        <ele>1605.4100000000001</ele>
        <time>2021-02-28T12:08:54Z</time>
      </trkpt>
      <trkpt lat="45.914733437821269" lon="9.213828183710575">
        <ele>1607.1400000000001</ele>
        <time>2021-02-28T12:09:33Z</time>
      </trkpt>
      <trkpt lat="45.914736958220601" lon="9.21382256783545">
        <ele>1605.98</ele>
        <time>2021-02-28T12:10:10Z</time>
      </trkpt>
      <trkpt lat="45.914742071181536" lon="9.213822819292545">
        <ele>1606.1300000000001</ele>
        <time>2021-02-28T12:11:08Z</time>
      </trkpt>
      <trkpt lat="45.914742741733789" lon="9.213823238387704">
        <ele>1605.4000000000001</ele>
        <time>2021-02-28T12:12:22Z</time>
      </trkpt>
      <trkpt lat="45.914739808067679" lon="9.213823573663831">
        <ele>1605.54</ele>
        <time>2021-02-28T12:13:39Z</time>
      </trkpt>
      <trkpt lat="45.91474131681025" lon="9.213827680796385">
        <ele>1605.9300000000001</ele>
        <time>2021-02-28T12:14:59Z</time>
      </trkpt>
      <trkpt lat="45.914745507761836" lon="9.213822735473514">
        <ele>1606.0599999999999</ele>
        <time>2021-02-28T12:16:07Z</time>
      </trkpt>
      <trkpt lat="45.914746597409248" lon="9.213814856484532">
        <ele>1605.96</ele>
        <time>2021-02-28T12:17:08Z</time>
      </trkpt>
      <trkpt lat="45.914745256304741" lon="9.21381426975131">
        <ele>1606.1400000000001</ele>
        <time>2021-02-28T12:18:11Z</time>
      </trkpt>
      <trkpt lat="45.914740227162838" lon="9.213828183710575">
        <ele>1606.3299999999999</ele>
        <time>2021-02-28T12:18:50Z</time>
      </trkpt>
      <trkpt lat="45.914747938513756" lon="9.213835811242461">
        <ele>1606.9100000000001</ele>
        <time>2021-02-28T12:19:02Z</time>
      </trkpt>
      <trkpt lat="45.914750453084707" lon="9.213827261701226">
        <ele>1607.26</ele>
        <time>2021-02-28T12:19:19Z</time>
      </trkpt>
      <trkpt lat="45.914745256304741" lon="9.213832961395383">
        <ele>1607.0699999999999</ele>
        <time>2021-02-28T12:19:41Z</time>
      </trkpt>
      <trkpt lat="45.914740059524775" lon="9.213861124590039">
        <ele>1607.6300000000001</ele>
        <time>2021-02-28T12:20:07Z</time>
      </trkpt>
      <trkpt lat="45.91472857631743" lon="9.213862465694547">
        <ele>1607.4100000000001</ele>
        <time>2021-02-28T12:20:24Z</time>
      </trkpt>
      <trkpt lat="45.914722960442305" lon="9.213859615847468">
        <ele>1607.1300000000001</ele>
        <time>2021-02-28T12:20:45Z</time>
      </trkpt>
      <trkpt lat="45.9147232118994" lon="9.213860537856817">
        <ele>1607.1600000000001</ele>
        <time>2021-02-28T12:20:57Z</time>
      </trkpt>
      <trkpt lat="45.914722876623273" lon="9.213862214237452">
        <ele>1607.1700000000001</ele>
        <time>2021-02-28T12:21:10Z</time>
      </trkpt>
      <trkpt lat="45.914724469184875" lon="9.21386213041842">
        <ele>1607.0599999999999</ele>
        <time>2021-02-28T12:21:23Z</time>
      </trkpt>
      <trkpt lat="45.914729163050652" lon="9.213862968608737">
        <ele>1607.25</ele>
        <time>2021-02-28T12:21:41Z</time>
      </trkpt>
      <trkpt lat="45.91473008506" lon="9.213858610019088">
        <ele>1607.29</ele>
        <time>2021-02-28T12:22:05Z</time>
      </trkpt>
      <trkpt lat="45.91472857631743" lon="9.213857520371676">
        <ele>1607.5</ele>
        <time>2021-02-28T12:22:25Z</time>
      </trkpt>
      <trkpt lat="45.914712566882372" lon="9.21388459391892">
        <ele>1606.5999999999999</ele>
        <time>2021-02-28T12:22:43Z</time>
      </trkpt>
      <trkpt lat="45.914715668186545" lon="9.213895155116916">
        <ele>1606.3699999999999</ele>
        <time>2021-02-28T12:23:01Z</time>
      </trkpt>
      <trkpt lat="45.914692115038633" lon="9.213979141786695">
        <ele>1605.48</ele>
        <time>2021-02-28T12:23:08Z</time>
      </trkpt>
      <trkpt lat="45.914647942408919" lon="9.214160861447454">
        <ele>1605.1199999999999</ele>
        <time>2021-02-28T12:23:22Z</time>
      </trkpt>
      <trkpt lat="45.91464601457119" lon="9.214176535606384">
        <ele>1605.1199999999999</ele>
        <time>2021-02-28T12:23:24Z</time>
      </trkpt>
      <trkpt lat="45.914631262421608" lon="9.214214254170656">
        <ele>1604.8599999999999</ele>
        <time>2021-02-28T12:23:27Z</time>
      </trkpt>
      <trkpt lat="45.914583569392562" lon="9.214373342692852">
        <ele>1603.25</ele>
        <time>2021-02-28T12:23:41Z</time>
      </trkpt>
      <trkpt lat="45.914558339864016" lon="9.214540058746934">
        <ele>1602.1400000000001</ele>
        <time>2021-02-28T12:23:55Z</time>
      </trkpt>
      <trkpt lat="45.914546856656671" lon="9.214589176699519">
        <ele>1601.6300000000001</ele>
        <time>2021-02-28T12:23:59Z</time>
      </trkpt>
      <trkpt lat="45.914535708725452" lon="9.214658243581653">
        <ele>1600.5599999999999</ele>
        <time>2021-02-28T12:24:06Z</time>
      </trkpt>
      <trkpt lat="45.914524057880044" lon="9.214765867218375">
        <ele>1598.8800000000001</ele>
        <time>2021-02-28T12:24:14Z</time>
      </trkpt>
      <trkpt lat="45.914445770904422" lon="9.215001985430718">
        <ele>1597.51</ele>
        <time>2021-02-28T12:24:31Z</time>
      </trkpt>
      <trkpt lat="45.914374608546495" lon="9.215111369267106">
        <ele>1597.21</ele>
        <time>2021-02-28T12:24:42Z</time>
      </trkpt>
      <trkpt lat="45.914304200559855" lon="9.215323515236378">
        <ele>1597.1700000000001</ele>
        <time>2021-02-28T12:24:58Z</time>
      </trkpt>
      <trkpt lat="45.914242258295417" lon="9.215538594871759">
        <ele>1597.47</ele>
        <time>2021-02-28T12:25:13Z</time>
      </trkpt>
      <trkpt lat="45.914201689884067" lon="9.215650577098131">
        <ele>1598.24</ele>
        <time>2021-02-28T12:25:27Z</time>
      </trkpt>
      <trkpt lat="45.914165396243334" lon="9.215718973428011">
        <ele>1599.51</ele>
        <time>2021-02-28T12:25:44Z</time>
      </trkpt>
      <trkpt lat="45.914117116481066" lon="9.215911338105798">
        <ele>1601.29</ele>
        <time>2021-02-28T12:26:00Z</time>
      </trkpt>
      <trkpt lat="45.914095239713788" lon="9.216116275638342">
        <ele>1601.9100000000001</ele>
        <time>2021-02-28T12:26:15Z</time>
      </trkpt>
      <trkpt lat="45.914070177823305" lon="9.216227838769555">
        <ele>1600.2</ele>
        <time>2021-02-28T12:26:24Z</time>
      </trkpt>
      <trkpt lat="45.914029022678733" lon="9.216346526518464">
        <ele>1596.78</ele>
        <time>2021-02-28T12:26:38Z</time>
      </trkpt>
      <trkpt lat="45.91400689445436" lon="9.216460101306438">
        <ele>1593.5899999999999</ele>
        <time>2021-02-28T12:26:50Z</time>
      </trkpt>
      <trkpt lat="45.913958195596933" lon="9.216593289747834">
        <ele>1590.3699999999999</ele>
        <time>2021-02-28T12:27:02Z</time>
      </trkpt>
      <trkpt lat="45.913907652720809" lon="9.216765202581883">
        <ele>1587.2</ele>
        <time>2021-02-28T12:27:15Z</time>
      </trkpt>
      <trkpt lat="45.913827270269394" lon="9.217029316350818">
        <ele>1584.1600000000001</ele>
        <time>2021-02-28T12:27:32Z</time>
      </trkpt>
      <trkpt lat="45.913770105689764" lon="9.217244312167168">
        <ele>1583.01</ele>
        <time>2021-02-28T12:27:47Z</time>
      </trkpt>
      <trkpt lat="45.913722245022655" lon="9.217406501993537">
        <ele>1582.1099999999999</ele>
        <time>2021-02-28T12:28:00Z</time>
      </trkpt>
      <trkpt lat="45.913693411275744" lon="9.217508928850293">
        <ele>1581.6700000000001</ele>
        <time>2021-02-28T12:28:12Z</time>
      </trkpt>
      <trkpt lat="45.913691986352205" lon="9.21751412563026">
        <ele>1581.5999999999999</ele>
        <time>2021-02-28T12:28:13Z</time>
      </trkpt>
      <trkpt lat="45.913681508973241" lon="9.217560142278671">
        <ele>1581.5</ele>
        <time>2021-02-28T12:28:16Z</time>
      </trkpt>
      <trkpt lat="45.913657285273075" lon="9.217779412865639">
        <ele>1582.1700000000001</ele>
        <time>2021-02-28T12:28:32Z</time>
      </trkpt>
      <trkpt lat="45.913640521466732" lon="9.217842947691679">
        <ele>1582.48</ele>
        <time>2021-02-28T12:28:43Z</time>
      </trkpt>
      <trkpt lat="45.913595007732511" lon="9.217999186366797">
        <ele>1584.46</ele>
        <time>2021-02-28T12:28:57Z</time>
      </trkpt>
      <trkpt lat="45.913561647757888" lon="9.21808778308332">
        <ele>1585.5799999999999</ele>
        <time>2021-02-28T12:29:05Z</time>
      </trkpt>
      <trkpt lat="45.913467183709145" lon="9.21828031539917">
        <ele>1586.3599999999999</ele>
        <time>2021-02-28T12:29:22Z</time>
      </trkpt>
      <trkpt lat="45.913370456546545" lon="9.21844007447362">
        <ele>1586.74</ele>
        <time>2021-02-28T12:29:37Z</time>
      </trkpt>
      <trkpt lat="45.913297785446048" lon="9.218624224886298">
        <ele>1586.3099999999999</ele>
        <time>2021-02-28T12:29:52Z</time>
      </trkpt>
      <trkpt lat="45.9132778365165" lon="9.218689603731036">
        <ele>1586</ele>
        <time>2021-02-28T12:30:04Z</time>
      </trkpt>
      <trkpt lat="45.913253361359239" lon="9.218740900978446">
        <ele>1585.3599999999999</ele>
        <time>2021-02-28T12:30:13Z</time>
      </trkpt>
      <trkpt lat="45.913158394396305" lon="9.218995291739702">
        <ele>1583.3199999999999</ele>
        <time>2021-02-28T12:30:32Z</time>
      </trkpt>
      <trkpt lat="45.913100056350231" lon="9.219209617003799">
        <ele>1581.8699999999999</ele>
        <time>2021-02-28T12:30:49Z</time>
      </trkpt>
      <trkpt lat="45.913072228431702" lon="9.219355545938015">
        <ele>1582.21</ele>
        <time>2021-02-28T12:31:02Z</time>
      </trkpt>
      <trkpt lat="45.913058565929532" lon="9.219445986673236">
        <ele>1583.28</ele>
        <time>2021-02-28T12:31:14Z</time>
      </trkpt>
      <trkpt lat="45.913039622828364" lon="9.219545060768724">
        <ele>1584.96</ele>
        <time>2021-02-28T12:31:28Z</time>
      </trkpt>
      <trkpt lat="45.913022104650736" lon="9.219632735475898">
        <ele>1586.1600000000001</ele>
        <time>2021-02-28T12:31:39Z</time>
      </trkpt>
      <trkpt lat="45.912998551502824" lon="9.219702137634158">
        <ele>1587.23</ele>
        <time>2021-02-28T12:31:49Z</time>
      </trkpt>
      <trkpt lat="45.912987906485796" lon="9.219711106270552">
        <ele>1587.78</ele>
        <time>2021-02-28T12:32:03Z</time>
      </trkpt>
      <trkpt lat="45.912977512925863" lon="9.219717057421804">
        <ele>1587.97</ele>
        <time>2021-02-28T12:32:20Z</time>
      </trkpt>
      <trkpt lat="45.912972986698151" lon="9.219722505658865">
        <ele>1587.9000000000001</ele>
        <time>2021-02-28T12:32:37Z</time>
      </trkpt>
      <trkpt lat="45.912966364994645" lon="9.219733318313956">
        <ele>1587.9200000000001</ele>
        <time>2021-02-28T12:32:52Z</time>
      </trkpt>
      <trkpt lat="45.912955468520522" lon="9.219806659966707">
        <ele>1589.3</ele>
        <time>2021-02-28T12:33:06Z</time>
      </trkpt>
      <trkpt lat="45.912932585924864" lon="9.219914618879557">
        <ele>1592.0999999999999</ele>
        <time>2021-02-28T12:33:20Z</time>
      </trkpt>
      <trkpt lat="45.912919174879789" lon="9.219993827864528">
        <ele>1594.01</ele>
        <time>2021-02-28T12:33:33Z</time>
      </trkpt>
      <trkpt lat="45.912880953401327" lon="9.220070354640484">
        <ele>1596</ele>
        <time>2021-02-28T12:33:47Z</time>
      </trkpt>
      <trkpt lat="45.912855640053749" lon="9.220140427350998">
        <ele>1598.51</ele>
        <time>2021-02-28T12:34:02Z</time>
      </trkpt>
      <trkpt lat="45.912827309221029" lon="9.22019767574966">
        <ele>1600.51</ele>
        <time>2021-02-28T12:34:16Z</time>
      </trkpt>
      <trkpt lat="45.91281465254724" lon="9.220197591930628">
        <ele>1600.24</ele>
        <time>2021-02-28T12:34:28Z</time>
      </trkpt>
      <trkpt lat="45.91281364671886" lon="9.2202094104141">
        <ele>1599.8900000000001</ele>
        <time>2021-02-28T12:34:41Z</time>
      </trkpt>
      <trkpt lat="45.912806019186974" lon="9.220259450376034">
        <ele>1600.9000000000001</ele>
        <time>2021-02-28T12:34:54Z</time>
      </trkpt>
      <trkpt lat="45.912797804921865" lon="9.220287026837468">
        <ele>1601.4200000000001</ele>
        <time>2021-02-28T12:35:07Z</time>
      </trkpt>
      <trkpt lat="45.912789842113853" lon="9.220316614955664">
        <ele>1601.8099999999999</ele>
        <time>2021-02-28T12:35:45Z</time>
      </trkpt>
      <trkpt lat="45.912763774394989" lon="9.220345364883542">
        <ele>1602.48</ele>
        <time>2021-02-28T12:35:49Z</time>
      </trkpt>
      <trkpt lat="45.912636872380972" lon="9.220488779246807">
        <ele>1605.55</ele>
        <time>2021-02-28T12:36:06Z</time>
      </trkpt>
      <trkpt lat="45.912551544606686" lon="9.220623727887869">
        <ele>1608.8099999999999</ele>
        <time>2021-02-28T12:36:19Z</time>
      </trkpt>
      <trkpt lat="45.912498151883483" lon="9.220702350139618">
        <ele>1610.76</ele>
        <time>2021-02-28T12:36:35Z</time>
      </trkpt>
      <trkpt lat="45.912446938455105" lon="9.220776949077845">
        <ele>1612.51</ele>
        <time>2021-02-28T12:36:48Z</time>
      </trkpt>
      <trkpt lat="45.912441406399012" lon="9.22078650444746">
        <ele>1612.97</ele>
        <time>2021-02-28T12:37:10Z</time>
      </trkpt>
      <trkpt lat="45.912411315366626" lon="9.220825480297208">
        <ele>1613.8499999999999</ele>
        <time>2021-02-28T12:37:21Z</time>
      </trkpt>
      <trkpt lat="45.912425313144922" lon="9.220884656533599">
        <ele>1614.1099999999999</ele>
        <time>2021-02-28T12:37:38Z</time>
      </trkpt>
      <trkpt lat="45.912426318973303" lon="9.22099613584578">
        <ele>1613.8900000000001</ele>
        <time>2021-02-28T12:37:48Z</time>
      </trkpt>
      <trkpt lat="45.912446267902851" lon="9.221023377031088">
        <ele>1613.48</ele>
        <time>2021-02-28T12:38:00Z</time>
      </trkpt>
      <trkpt lat="45.912439897656441" lon="9.221058748662472">
        <ele>1612.97</ele>
        <time>2021-02-28T12:38:03Z</time>
      </trkpt>
      <trkpt lat="45.912471748888493" lon="9.221242647618055">
        <ele>1609.4200000000001</ele>
        <time>2021-02-28T12:38:14Z</time>
      </trkpt>
      <trkpt lat="45.912499576807022" lon="9.221441717818379">
        <ele>1606.4100000000001</ele>
        <time>2021-02-28T12:38:27Z</time>
      </trkpt>
      <trkpt lat="45.912483315914869" lon="9.221667442470789">
        <ele>1605.25</ele>
        <time>2021-02-28T12:38:42Z</time>
      </trkpt>
      <trkpt lat="45.912483735010028" lon="9.221858885139227">
        <ele>1604.8599999999999</ele>
        <time>2021-02-28T12:38:56Z</time>
      </trkpt>
      <trkpt lat="45.91248675249517" lon="9.222063990309835">
        <ele>1604.29</ele>
        <time>2021-02-28T12:39:12Z</time>
      </trkpt>
      <trkpt lat="45.912477616220713" lon="9.222238333895803">
        <ele>1604.8199999999999</ele>
        <time>2021-02-28T12:39:26Z</time>
      </trkpt>
      <trkpt lat="45.912475436925888" lon="9.222412593662739">
        <ele>1605.4300000000001</ele>
        <time>2021-02-28T12:39:41Z</time>
      </trkpt>
      <trkpt lat="45.912477448582649" lon="9.222565731033683">
        <ele>1605.54</ele>
        <time>2021-02-28T12:39:55Z</time>
      </trkpt>
      <trkpt lat="45.912478873506188" lon="9.222670756280422">
        <ele>1607.0599999999999</ele>
        <time>2021-02-28T12:40:08Z</time>
      </trkpt>
      <trkpt lat="45.912481639534235" lon="9.222774272784591">
        <ele>1608.8399999999999</ele>
        <time>2021-02-28T12:40:21Z</time>
      </trkpt>
      <trkpt lat="45.912495637312531" lon="9.222921878099442">
        <ele>1610.6700000000001</ele>
        <time>2021-02-28T12:40:37Z</time>
      </trkpt>
      <trkpt lat="45.912501001730561" lon="9.222995303571224">
        <ele>1611.28</ele>
        <time>2021-02-28T12:40:49Z</time>
      </trkpt>
      <trkpt lat="45.912529164925218" lon="9.223102843388915">
        <ele>1612.52</ele>
        <time>2021-02-28T12:40:58Z</time>
      </trkpt>
      <trkpt lat="45.912567218765616" lon="9.223188422620297">
        <ele>1612.23</ele>
        <time>2021-02-28T12:41:12Z</time>
      </trkpt>
      <trkpt lat="45.912581803277135" lon="9.22321449033916">
        <ele>1611.79</ele>
        <time>2021-02-28T12:41:17Z</time>
      </trkpt>
      <trkpt lat="45.912674171850085" lon="9.2234558891505">
        <ele>1611.5799999999999</ele>
        <time>2021-02-28T12:41:36Z</time>
      </trkpt>
      <trkpt lat="45.912685738876462" lon="9.223487824201584">
        <ele>1611.6099999999999</ele>
        <time>2021-02-28T12:41:40Z</time>
      </trkpt>
      <trkpt lat="45.912707112729549" lon="9.223548844456673">
        <ele>1611.51</ele>
        <time>2021-02-28T12:41:45Z</time>
      </trkpt>
      <trkpt lat="45.912763020023704" lon="9.223739197477698">
        <ele>1612.4300000000001</ele>
        <time>2021-02-28T12:42:00Z</time>
      </trkpt>
      <trkpt lat="45.912796212360263" lon="9.223877247422934">
        <ele>1611.5699999999999</ele>
        <time>2021-02-28T12:42:13Z</time>
      </trkpt>
      <trkpt lat="45.912803839892149" lon="9.223978165537119">
        <ele>1608.51</ele>
        <time>2021-02-28T12:42:25Z</time>
      </trkpt>
      <trkpt lat="45.91280534863472" lon="9.224086459726095">
        <ele>1606.49</ele>
        <time>2021-02-28T12:42:37Z</time>
      </trkpt>
      <trkpt lat="45.912799146026373" lon="9.224228365346789">
        <ele>1603.48</ele>
        <time>2021-02-28T12:42:51Z</time>
      </trkpt>
      <trkpt lat="45.912804342806339" lon="9.224386867135763">
        <ele>1600.3099999999999</ele>
        <time>2021-02-28T12:43:04Z</time>
      </trkpt>
      <trkpt lat="45.912802498787642" lon="9.224486108869314">
        <ele>1598.4100000000001</ele>
        <time>2021-02-28T12:43:13Z</time>
      </trkpt>
      <trkpt lat="45.91279998421669" lon="9.224526342004538">
        <ele>1597.8299999999999</ele>
        <time>2021-02-28T12:43:16Z</time>
      </trkpt>
      <trkpt lat="45.912788081914186" lon="9.224726669490337">
        <ele>1594.6800000000001</ele>
        <time>2021-02-28T12:43:30Z</time>
      </trkpt>
      <trkpt lat="45.912782633677125" lon="9.224919117987156">
        <ele>1592.1400000000001</ele>
        <time>2021-02-28T12:43:44Z</time>
      </trkpt>
      <trkpt lat="45.91278875246644" lon="9.225083068013191">
        <ele>1589.4200000000001</ele>
        <time>2021-02-28T12:44:00Z</time>
      </trkpt>
      <trkpt lat="45.91279755346477" lon="9.225117517635226">
        <ele>1588.9100000000001</ele>
        <time>2021-02-28T12:44:11Z</time>
      </trkpt>
      <trkpt lat="45.912799313664436" lon="9.225118607282639">
        <ele>1588.77</ele>
        <time>2021-02-28T12:44:18Z</time>
      </trkpt>
      <trkpt lat="45.91281658038497" lon="9.225144339725375">
        <ele>1588.5599999999999</ele>
        <time>2021-02-28T12:44:21Z</time>
      </trkpt>
      <trkpt lat="45.912823872640729" lon="9.22519194893539">
        <ele>1587.4200000000001</ele>
        <time>2021-02-28T12:44:25Z</time>
      </trkpt>
      <trkpt lat="45.912869134917855" lon="9.225317593663931">
        <ele>1583.6700000000001</ele>
        <time>2021-02-28T12:44:38Z</time>
      </trkpt>
      <trkpt lat="45.912884976714849" lon="9.22537031583488">
        <ele>1581.95</ele>
        <time>2021-02-28T12:44:49Z</time>
      </trkpt>
      <trkpt lat="45.912905177101493" lon="9.225464696064591">
        <ele>1580.1300000000001</ele>
        <time>2021-02-28T12:45:02Z</time>
      </trkpt>
      <trkpt lat="45.912961168214679" lon="9.225559327751398">
        <ele>1577.5</ele>
        <time>2021-02-28T12:45:13Z</time>
      </trkpt>
      <trkpt lat="45.913004921749234" lon="9.225693689659238">
        <ele>1574.46</ele>
        <time>2021-02-28T12:45:24Z</time>
      </trkpt>
      <trkpt lat="45.913067031651735" lon="9.225914133712649">
        <ele>1571.6800000000001</ele>
        <time>2021-02-28T12:45:41Z</time>
      </trkpt>
      <trkpt lat="45.91310047544539" lon="9.226081436499953">
        <ele>1569.1600000000001</ele>
        <time>2021-02-28T12:45:55Z</time>
      </trkpt>
      <trkpt lat="45.913151437416673" lon="9.226298024877906">
        <ele>1566.6199999999999</ele>
        <time>2021-02-28T12:46:11Z</time>
      </trkpt>
      <trkpt lat="45.913179600611329" lon="9.226524839177728">
        <ele>1563.45</ele>
        <time>2021-02-28T12:46:28Z</time>
      </trkpt>
      <trkpt lat="45.913212960585952" lon="9.22680051997304">
        <ele>1561.96</ele>
        <time>2021-02-28T12:46:46Z</time>
      </trkpt>
      <trkpt lat="45.9132588095963" lon="9.227089025080204">
        <ele>1561.6500000000001</ele>
        <time>2021-02-28T12:47:05Z</time>
      </trkpt>
      <trkpt lat="45.913286972790956" lon="9.227340398356319">
        <ele>1562.52</ele>
        <time>2021-02-28T12:47:23Z</time>
      </trkpt>
      <trkpt lat="45.913294348865747" lon="9.227590346708894">
        <ele>1562.7</ele>
        <time>2021-02-28T12:47:40Z</time>
      </trkpt>
      <trkpt lat="45.913283452391624" lon="9.227791177108884">
        <ele>1563.05</ele>
        <time>2021-02-28T12:47:54Z</time>
      </trkpt>
      <trkpt lat="45.913257552310824" lon="9.227992258965969">
        <ele>1563.6300000000001</ele>
        <time>2021-02-28T12:48:08Z</time>
      </trkpt>
      <trkpt lat="45.91321187093854" lon="9.228214379400015">
        <ele>1562.52</ele>
        <time>2021-02-28T12:48:23Z</time>
      </trkpt>
      <trkpt lat="45.913189155980945" lon="9.228431805968285">
        <ele>1559.28</ele>
        <time>2021-02-28T12:48:40Z</time>
      </trkpt>
      <trkpt lat="45.913210446015" lon="9.228568430989981">
        <ele>1556.24</ele>
        <time>2021-02-28T12:48:52Z</time>
      </trkpt>
      <trkpt lat="45.913211787119508" lon="9.228581506758928">
        <ele>1555.95</ele>
        <time>2021-02-28T12:48:53Z</time>
      </trkpt>
      <trkpt lat="45.91321773827076" lon="9.228643449023366">
        <ele>1554.5699999999999</ele>
        <time>2021-02-28T12:48:57Z</time>
      </trkpt>
      <trkpt lat="45.913219749927521" lon="9.22887621447444">
        <ele>1551.1300000000001</ele>
        <time>2021-02-28T12:49:12Z</time>
      </trkpt>
      <trkpt lat="45.913224527612329" lon="9.229074027389288">
        <ele>1548.04</ele>
        <time>2021-02-28T12:49:25Z</time>
      </trkpt>
      <trkpt lat="45.913222432136536" lon="9.229259686544538">
        <ele>1545.1600000000001</ele>
        <time>2021-02-28T12:49:37Z</time>
      </trkpt>
      <trkpt lat="45.913210529834032" lon="9.229483734816313">
        <ele>1541.97</ele>
        <time>2021-02-28T12:49:52Z</time>
      </trkpt>
      <trkpt lat="45.913188736885786" lon="9.229694372043014">
        <ele>1538.8399999999999</ele>
        <time>2021-02-28T12:50:06Z</time>
      </trkpt>
      <trkpt lat="45.913163674995303" lon="9.229938285425305">
        <ele>1536.05</ele>
        <time>2021-02-28T12:50:22Z</time>
      </trkpt>
      <trkpt lat="45.913139870390296" lon="9.230208098888397">
        <ele>1534.24</ele>
        <time>2021-02-28T12:50:39Z</time>
      </trkpt>
      <trkpt lat="45.913115227594972" lon="9.230393506586552">
        <ele>1534.0699999999999</ele>
        <time>2021-02-28T12:50:52Z</time>
      </trkpt>
      <trkpt lat="45.913087483495474" lon="9.230546308681369">
        <ele>1534.21</ele>
        <time>2021-02-28T12:51:05Z</time>
      </trkpt>
      <trkpt lat="45.913071222603321" lon="9.230641527101398">
        <ele>1534.75</ele>
        <time>2021-02-28T12:51:16Z</time>
      </trkpt>
      <trkpt lat="45.913058565929532" lon="9.230692237615585">
        <ele>1534.52</ele>
        <time>2021-02-28T12:51:21Z</time>
      </trkpt>
      <trkpt lat="45.913039539009333" lon="9.230783013626933">
        <ele>1534.0699999999999</ele>
        <time>2021-02-28T12:51:28Z</time>
      </trkpt>
      <trkpt lat="45.913018668070436" lon="9.230955010280013">
        <ele>1534.0699999999999</ele>
        <time>2021-02-28T12:51:42Z</time>
      </trkpt>
      <trkpt lat="45.912995701655746" lon="9.231054335832596">
        <ele>1535.79</ele>
        <time>2021-02-28T12:51:54Z</time>
      </trkpt>
      <trkpt lat="45.912964520975947" lon="9.231105213984847">
        <ele>1536.4400000000001</ele>
        <time>2021-02-28T12:52:06Z</time>
      </trkpt>
      <trkpt lat="45.912962509319186" lon="9.231097251176834">
        <ele>1536.45</ele>
        <time>2021-02-28T12:52:25Z</time>
      </trkpt>
      <trkpt lat="45.912967873737216" lon="9.231099681928754">
        <ele>1536.2</ele>
        <time>2021-02-28T12:52:54Z</time>
      </trkpt>
      <trkpt lat="45.912967957556248" lon="9.2310955747962">
        <ele>1536.29</ele>
        <time>2021-02-28T12:53:14Z</time>
      </trkpt>
      <trkpt lat="45.912970472127199" lon="9.231099849566817">
        <ele>1536.26</ele>
        <time>2021-02-28T12:53:39Z</time>
      </trkpt>
      <trkpt lat="45.912972819060087" lon="9.231100268661976">
        <ele>1536.0899999999999</ele>
        <time>2021-02-28T12:54:03Z</time>
      </trkpt>
      <trkpt lat="45.9129739087075" lon="9.231102950870991">
        <ele>1535.95</ele>
        <time>2021-02-28T12:54:33Z</time>
      </trkpt>
      <trkpt lat="45.912961419671774" lon="9.23119330778718">
        <ele>1537</ele>
        <time>2021-02-28T12:54:46Z</time>
      </trkpt>
      <trkpt lat="45.912929233163595" lon="9.231320964172483">
        <ele>1536.01</ele>
        <time>2021-02-28T12:54:59Z</time>
      </trkpt>
      <trkpt lat="45.912945158779621" lon="9.231368657201529">
        <ele>1534.3199999999999</ele>
        <time>2021-02-28T12:55:11Z</time>
      </trkpt>
      <trkpt lat="45.912989499047399" lon="9.231416936963797">
        <ele>1532.96</ele>
        <time>2021-02-28T12:55:25Z</time>
      </trkpt>
      <trkpt lat="45.913036270067096" lon="9.231472760438919">
        <ele>1530.6600000000001</ele>
        <time>2021-02-28T12:55:37Z</time>
      </trkpt>
      <trkpt lat="45.913076167926192" lon="9.231552807614207">
        <ele>1527.72</ele>
        <time>2021-02-28T12:55:50Z</time>
      </trkpt>
      <trkpt lat="45.913082538172603" lon="9.23158859834075">
        <ele>1526.8499999999999</ele>
        <time>2021-02-28T12:56:01Z</time>
      </trkpt>
      <trkpt lat="45.91311514377594" lon="9.231655821204186">
        <ele>1525.0699999999999</ele>
        <time>2021-02-28T12:56:14Z</time>
      </trkpt>
      <trkpt lat="45.913127129897475" lon="9.231696221977472">
        <ele>1523.76</ele>
        <time>2021-02-28T12:56:26Z</time>
      </trkpt>
      <trkpt lat="45.913132159039378" lon="9.231700832024217">
        <ele>1523.3</ele>
        <time>2021-02-28T12:56:40Z</time>
      </trkpt>
      <trkpt lat="45.913170631974936" lon="9.231768976897001">
        <ele>1520.8699999999999</ele>
        <time>2021-02-28T12:56:53Z</time>
      </trkpt>
      <trkpt lat="45.913221258670092" lon="9.231860423460603">
        <ele>1517.75</ele>
        <time>2021-02-28T12:57:03Z</time>
      </trkpt>
      <trkpt lat="45.913313794881105" lon="9.232000652700663">
        <ele>1515.29</ele>
        <time>2021-02-28T12:57:19Z</time>
      </trkpt>
      <trkpt lat="45.913339862599969" lon="9.23204256221652">
        <ele>1514.8299999999999</ele>
        <time>2021-02-28T12:57:23Z</time>
      </trkpt>
      <trkpt lat="45.91345670633018" lon="9.232247583568096">
        <ele>1511.5899999999999</ele>
        <time>2021-02-28T12:57:42Z</time>
      </trkpt>
      <trkpt lat="45.913525521755219" lon="9.232420418411493">
        <ele>1508.4300000000001</ele>
        <time>2021-02-28T12:57:56Z</time>
      </trkpt>
      <trkpt lat="45.913598025217652" lon="9.232577327638865">
        <ele>1505.1500000000001</ele>
        <time>2021-02-28T12:58:10Z</time>
      </trkpt>
      <trkpt lat="45.913646724075079" lon="9.232716634869576">
        <ele>1502.55</ele>
        <time>2021-02-28T12:58:23Z</time>
      </trkpt>
      <trkpt lat="45.91365359723568" lon="9.232789389789105">
        <ele>1501.29</ele>
        <time>2021-02-28T12:58:35Z</time>
      </trkpt>
      <trkpt lat="45.913703385740519" lon="9.232850410044193">
        <ele>1498.75</ele>
        <time>2021-02-28T12:58:44Z</time>
      </trkpt>
      <trkpt lat="45.913765663281083" lon="9.232977731153369">
        <ele>1495.75</ele>
        <time>2021-02-28T12:58:57Z</time>
      </trkpt>
      <trkpt lat="45.913816960528493" lon="9.233060795813799">
        <ele>1493.79</ele>
        <time>2021-02-28T12:59:10Z</time>
      </trkpt>
      <trkpt lat="45.913879154250026" lon="9.233150817453861">
        <ele>1490.78</ele>
        <time>2021-02-28T12:59:23Z</time>
      </trkpt>
      <trkpt lat="45.913932379335165" lon="9.23318644054234">
        <ele>1489.1500000000001</ele>
        <time>2021-02-28T12:59:34Z</time>
      </trkpt>
      <trkpt lat="45.913976887241006" lon="9.233240587636828">
        <ele>1487.1700000000001</ele>
        <time>2021-02-28T12:59:46Z</time>
      </trkpt>
      <trkpt lat="45.913982167840004" lon="9.233239917084575">
        <ele>1487.21</ele>
        <time>2021-02-28T13:00:01Z</time>
      </trkpt>
      <trkpt lat="45.914024580270052" lon="9.233284005895257">
        <ele>1485.01</ele>
        <time>2021-02-28T13:00:13Z</time>
      </trkpt>
      <trkpt lat="45.91406213119626" lon="9.233370255678892">
        <ele>1481.5999999999999</ele>
        <time>2021-02-28T13:00:27Z</time>
      </trkpt>
      <trkpt lat="45.91405869461596" lon="9.233390456065536">
        <ele>1480.8800000000001</ele>
        <time>2021-02-28T13:00:40Z</time>
      </trkpt>
      <trkpt lat="45.914077134802938" lon="9.233414176851511">
        <ele>1480.1700000000001</ele>
        <time>2021-02-28T13:00:50Z</time>
      </trkpt>
      <trkpt lat="45.914071183651686" lon="9.2334751971066">
        <ele>1478.3399999999999</ele>
        <time>2021-02-28T13:01:01Z</time>
      </trkpt>
      <trkpt lat="45.914099682122469" lon="9.233520543202758">
        <ele>1476.55</ele>
        <time>2021-02-28T13:01:15Z</time>
      </trkpt>
      <trkpt lat="45.914101609960198" lon="9.233560943976045">
        <ele>1474.74</ele>
        <time>2021-02-28T13:01:28Z</time>
      </trkpt>
      <trkpt lat="45.914101526141167" lon="9.233613833785057">
        <ele>1473.46</ele>
        <time>2021-02-28T13:01:42Z</time>
      </trkpt>
      <trkpt lat="45.914111752063036" lon="9.233667813241482">
        <ele>1471.45</ele>
        <time>2021-02-28T13:01:54Z</time>
      </trkpt>
      <trkpt lat="45.914150979369879" lon="9.233746267855167">
        <ele>1468.51</ele>
        <time>2021-02-28T13:02:05Z</time>
      </trkpt>
      <trkpt lat="45.914166402071714" lon="9.233809132128954">
        <ele>1466.3099999999999</ele>
        <time>2021-02-28T13:02:16Z</time>
      </trkpt>
      <trkpt lat="45.914171515032649" lon="9.23385439440608">
        <ele>1465.1199999999999</ele>
        <time>2021-02-28T13:02:28Z</time>
      </trkpt>
      <trkpt lat="45.914177969098091" lon="9.233972495421767">
        <ele>1462.4400000000001</ele>
        <time>2021-02-28T13:02:46Z</time>
      </trkpt>
      <trkpt lat="45.914174700155854" lon="9.234076179563999">
        <ele>1460.3699999999999</ele>
        <time>2021-02-28T13:02:58Z</time>
      </trkpt>
      <trkpt lat="45.91418668627739" lon="9.234144911170006">
        <ele>1457.8199999999999</ele>
        <time>2021-02-28T13:03:09Z</time>
      </trkpt>
      <trkpt lat="45.9142223931849" lon="9.234237195923924">
        <ele>1455.6800000000001</ele>
        <time>2021-02-28T13:03:19Z</time>
      </trkpt>
      <trkpt lat="45.914209485054016" lon="9.23431221395731">
        <ele>1453.98</ele>
        <time>2021-02-28T13:03:30Z</time>
      </trkpt>
      <trkpt lat="45.914209065958858" lon="9.234416903927922">
        <ele>1451.9200000000001</ele>
        <time>2021-02-28T13:03:42Z</time>
      </trkpt>
      <trkpt lat="45.914221471175551" lon="9.234558055177331">
        <ele>1448.8699999999999</ele>
        <time>2021-02-28T13:03:55Z</time>
      </trkpt>
      <trkpt lat="45.914233960211277" lon="9.234675988554955">
        <ele>1446.29</ele>
        <time>2021-02-28T13:04:07Z</time>
      </trkpt>
      <trkpt lat="45.914244186133146" lon="9.23484044149518">
        <ele>1443.1400000000001</ele>
        <time>2021-02-28T13:04:21Z</time>
      </trkpt>
      <trkpt lat="45.91425608843565" lon="9.235004894435406">
        <ele>1440.2</ele>
        <time>2021-02-28T13:04:35Z</time>
      </trkpt>
      <trkpt lat="45.914255334064364" lon="9.235029285773635">
        <ele>1439.98</ele>
        <time>2021-02-28T13:04:37Z</time>
      </trkpt>
      <trkpt lat="45.914272265508771" lon="9.235230954363942">
        <ele>1437.8699999999999</ele>
        <time>2021-02-28T13:04:52Z</time>
      </trkpt>
      <trkpt lat="45.914275115355849" lon="9.235377470031381">
        <ele>1435.96</ele>
        <time>2021-02-28T13:05:05Z</time>
      </trkpt>
      <trkpt lat="45.914272852241993" lon="9.235560279339552">
        <ele>1434.4100000000001</ele>
        <time>2021-02-28T13:05:19Z</time>
      </trkpt>
      <trkpt lat="45.914254914969206" lon="9.235706711187959">
        <ele>1434.0599999999999</ele>
        <time>2021-02-28T13:05:33Z</time>
      </trkpt>
      <trkpt lat="45.914242258295417" lon="9.235755410045385">
        <ele>1433.77</ele>
        <time>2021-02-28T13:05:45Z</time>
      </trkpt>
      <trkpt lat="45.914235636591911" lon="9.235755242407322">
        <ele>1434.22</ele>
        <time>2021-02-28T13:05:57Z</time>
      </trkpt>
      <trkpt lat="45.914228092879057" lon="9.235755745321512">
        <ele>1433.1400000000001</ele>
        <time>2021-02-28T13:06:10Z</time>
      </trkpt>
      <trkpt lat="45.914227170869708" lon="9.23574979417026">
        <ele>1432.26</ele>
        <time>2021-02-28T13:06:35Z</time>
      </trkpt>
      <trkpt lat="45.914231864735484" lon="9.235743591561914">
        <ele>1432.3</ele>
        <time>2021-02-28T13:06:55Z</time>
      </trkpt>
      <trkpt lat="45.914231445640326" lon="9.235747279599309">
        <ele>1432.3599999999999</ele>
        <time>2021-02-28T13:07:14Z</time>
      </trkpt>
      <trkpt lat="45.914234798401594" lon="9.235753901302815">
        <ele>1432.5999999999999</ele>
        <time>2021-02-28T13:08:17Z</time>
      </trkpt>
      <trkpt lat="45.914235217496753" lon="9.235758343711495">
        <ele>1432.6900000000001</ele>
        <time>2021-02-28T13:09:15Z</time>
      </trkpt>
      <trkpt lat="45.914242090657353" lon="9.235766641795635">
        <ele>1432.6600000000001</ele>
        <time>2021-02-28T13:10:15Z</time>
      </trkpt>
      <trkpt lat="45.914238402619958" lon="9.235761445015669">
        <ele>1433</ele>
        <time>2021-02-28T13:10:57Z</time>
      </trkpt>
      <trkpt lat="45.914235385134816" lon="9.235759936273098">
        <ele>1433.5799999999999</ele>
        <time>2021-02-28T13:11:00Z</time>
      </trkpt>
      <trkpt lat="45.914228092879057" lon="9.235761947929859">
        <ele>1434.0799999999999</ele>
        <time>2021-02-28T13:11:10Z</time>
      </trkpt>
      <trkpt lat="45.914229266345501" lon="9.235760690644383">
        <ele>1433.8299999999999</ele>
        <time>2021-02-28T13:11:28Z</time>
      </trkpt>
      <trkpt lat="45.914235804229975" lon="9.235767647624016">
        <ele>1433.5799999999999</ele>
        <time>2021-02-28T13:11:32Z</time>
      </trkpt>
      <trkpt lat="45.914240414276719" lon="9.235796900466085">
        <ele>1433.47</ele>
        <time>2021-02-28T13:11:34Z</time>
      </trkpt>
      <trkpt lat="45.914270672947168" lon="9.235922042280436">
        <ele>1432.96</ele>
        <time>2021-02-28T13:11:49Z</time>
      </trkpt>
      <trkpt lat="45.914265057072043" lon="9.235931597650051">
        <ele>1433.0699999999999</ele>
        <time>2021-02-28T13:12:03Z</time>
      </trkpt>
      <trkpt lat="45.914264805614948" lon="9.235974345356226">
        <ele>1433.0899999999999</ele>
        <time>2021-02-28T13:12:16Z</time>
      </trkpt>
      <trkpt lat="45.914258267730474" lon="9.235978117212653">
        <ele>1432.8900000000001</ele>
        <time>2021-02-28T13:12:34Z</time>
      </trkpt>
      <trkpt lat="45.914256004616618" lon="9.235969567671418">
        <ele>1433.3399999999999</ele>
        <time>2021-02-28T13:12:56Z</time>
      </trkpt>
      <trkpt lat="45.914256004616618" lon="9.235952971503139">
        <ele>1433.3099999999999</ele>
        <time>2021-02-28T13:13:15Z</time>
      </trkpt>
      <trkpt lat="45.914258603006601" lon="9.235958168283105">
        <ele>1433.1600000000001</ele>
        <time>2021-02-28T13:13:36Z</time>
      </trkpt>
      <trkpt lat="45.914256172254682" lon="9.235955737531185">
        <ele>1433.05</ele>
        <time>2021-02-28T13:13:55Z</time>
      </trkpt>
      <trkpt lat="45.914280312135816" lon="9.235974345356226">
        <ele>1432.1400000000001</ele>
        <time>2021-02-28T13:14:15Z</time>
      </trkpt>
      <trkpt lat="45.914295399561524" lon="9.236087249591947">
        <ele>1431.95</ele>
        <time>2021-02-28T13:14:26Z</time>
      </trkpt>
      <trkpt lat="45.914339236915112" lon="9.236240135505796">
        <ele>1431.3599999999999</ele>
        <time>2021-02-28T13:14:39Z</time>
      </trkpt>
      <trkpt lat="45.914384080097079" lon="9.236359326168895">
        <ele>1430.9100000000001</ele>
        <time>2021-02-28T13:14:52Z</time>
      </trkpt>
      <trkpt lat="45.914425319060683" lon="9.236507350578904">
        <ele>1431.3399999999999</ele>
        <time>2021-02-28T13:15:05Z</time>
      </trkpt>
      <trkpt lat="45.914469324052334" lon="9.236699212342501">
        <ele>1432.72</ele>
        <time>2021-02-28T13:15:21Z</time>
      </trkpt>
      <trkpt lat="45.914514251053333" lon="9.236849835142493">
        <ele>1433.3800000000001</ele>
        <time>2021-02-28T13:15:35Z</time>
      </trkpt>
      <trkpt lat="45.914566637948155" lon="9.237043708562851">
        <ele>1433.6199999999999</ele>
        <time>2021-02-28T13:15:50Z</time>
      </trkpt>
      <trkpt lat="45.914602596312761" lon="9.237156612798572">
        <ele>1434.3</ele>
        <time>2021-02-28T13:16:05Z</time>
      </trkpt>
      <trkpt lat="45.914610475301743" lon="9.237185111269355">
        <ele>1433.9200000000001</ele>
        <time>2021-02-28T13:16:09Z</time>
      </trkpt>
      <trkpt lat="45.914670573547482" lon="9.237379571422935">
        <ele>1433.77</ele>
        <time>2021-02-28T13:16:24Z</time>
      </trkpt>
      <trkpt lat="45.914736120030284" lon="9.237558944150806">
        <ele>1433.22</ele>
        <time>2021-02-28T13:16:37Z</time>
      </trkpt>
      <trkpt lat="45.91481214389205" lon="9.237794810906053">
        <ele>1432.21</ele>
        <time>2021-02-28T13:16:54Z</time>
      </trkpt>
      <trkpt lat="45.91485757380724" lon="9.237912744283676">
        <ele>1431.5899999999999</ele>
        <time>2021-02-28T13:17:06Z</time>
      </trkpt>
      <trkpt lat="45.914892023429275" lon="9.237993629649282">
        <ele>1430.79</ele>
        <time>2021-02-28T13:17:21Z</time>
      </trkpt>
      <trkpt lat="45.914914989843965" lon="9.23804341815412">
        <ele>1430.04</ele>
        <time>2021-02-28T13:17:25Z</time>
      </trkpt>
      <trkpt lat="45.915022948756814" lon="9.238263024017215">
        <ele>1427.9200000000001</ele>
        <time>2021-02-28T13:17:43Z</time>
      </trkpt>
      <trkpt lat="45.915067456662655" lon="9.238339299336076">
        <ele>1426.8499999999999</ele>
        <time>2021-02-28T13:17:56Z</time>
      </trkpt>
      <trkpt lat="45.915119675919414" lon="9.238415490835905">
        <ele>1425.23</ele>
        <time>2021-02-28T13:18:13Z</time>
      </trkpt>
      <trkpt lat="45.915188575163484" lon="9.238559575751424">
        <ele>1422.99</ele>
        <time>2021-02-28T13:18:29Z</time>
      </trkpt>
      <trkpt lat="45.915270214900374" lon="9.238681113347411">
        <ele>1420.76</ele>
        <time>2021-02-28T13:18:44Z</time>
      </trkpt>
      <trkpt lat="45.91537163592875" lon="9.238828467205167">
        <ele>1418.6800000000001</ele>
        <time>2021-02-28T13:19:00Z</time>
      </trkpt>
      <trkpt lat="45.915480935946107" lon="9.238959727808833">
        <ele>1416.3900000000001</ele>
        <time>2021-02-28T13:19:16Z</time>
      </trkpt>
      <trkpt lat="45.915599707514048" lon="9.23907975666225">
        <ele>1413.96</ele>
        <time>2021-02-28T13:19:33Z</time>
      </trkpt>
      <trkpt lat="45.915606999769807" lon="9.239085037261248">
        <ele>1413.8399999999999</ele>
        <time>2021-02-28T13:19:34Z</time>
      </trkpt>
      <trkpt lat="45.915639689192176" lon="9.239108841866255">
        <ele>1413.53</ele>
        <time>2021-02-28T13:19:38Z</time>
      </trkpt>
      <trkpt lat="45.915789222344756" lon="9.239195007830858">
        <ele>1410.8599999999999</ele>
        <time>2021-02-28T13:19:55Z</time>
      </trkpt>
      <trkpt lat="45.915894247591496" lon="9.239238258451223">
        <ele>1408.78</ele>
        <time>2021-02-28T13:20:07Z</time>
      </trkpt>
      <trkpt lat="45.916003128513694" lon="9.239265248179436">
        <ele>1408.3099999999999</ele>
        <time>2021-02-28T13:20:18Z</time>
      </trkpt>
      <trkpt lat="45.916018970310688" lon="9.239270780235529">
        <ele>1407.99</ele>
        <time>2021-02-28T13:20:24Z</time>
      </trkpt>
      <trkpt lat="45.916053084656596" lon="9.239282682538033">
        <ele>1407.8800000000001</ele>
        <time>2021-02-28T13:20:27Z</time>
      </trkpt>
      <trkpt lat="45.916112847626209" lon="9.239293746650219">
        <ele>1407.0699999999999</ele>
        <time>2021-02-28T13:20:32Z</time>
      </trkpt>
      <trkpt lat="45.916269840672612" lon="9.239281006157398">
        <ele>1404.21</ele>
        <time>2021-02-28T13:20:45Z</time>
      </trkpt>
      <trkpt lat="45.916399508714676" lon="9.239269439131022">
        <ele>1401.8699999999999</ele>
        <time>2021-02-28T13:20:57Z</time>
      </trkpt>
      <trkpt lat="45.916461870074272" lon="9.239265248179436">
        <ele>1400.0799999999999</ele>
        <time>2021-02-28T13:21:04Z</time>
      </trkpt>
      <trkpt lat="45.916578378528357" lon="9.239232391119003">
        <ele>1396.6800000000001</ele>
        <time>2021-02-28T13:21:17Z</time>
      </trkpt>
      <trkpt lat="45.916683906689286" lon="9.239212106913328">
        <ele>1393.5699999999999</ele>
        <time>2021-02-28T13:21:29Z</time>
      </trkpt>
      <trkpt lat="45.916706873103976" lon="9.239219482988119">
        <ele>1392.53</ele>
        <time>2021-02-28T13:21:43Z</time>
      </trkpt>
      <trkpt lat="45.916726570576429" lon="9.239217052236199">
        <ele>1391.8599999999999</ele>
        <time>2021-02-28T13:21:55Z</time>
      </trkpt>
      <trkpt lat="45.916738556697965" lon="9.239223673939705">
        <ele>1391.7</ele>
        <time>2021-02-28T13:22:02Z</time>
      </trkpt>
      <trkpt lat="45.916800918057561" lon="9.239239599555731">
        <ele>1390.23</ele>
        <time>2021-02-28T13:22:09Z</time>
      </trkpt>
      <trkpt lat="45.916884820908308" lon="9.23927279189229">
        <ele>1387.4200000000001</ele>
        <time>2021-02-28T13:22:20Z</time>
      </trkpt>
      <trkpt lat="45.916974171996117" lon="9.239288130775094">
        <ele>1384.3299999999999</ele>
        <time>2021-02-28T13:22:32Z</time>
      </trkpt>
      <trkpt lat="45.917041562497616" lon="9.23925275914371">
        <ele>1381.26</ele>
        <time>2021-02-28T13:22:42Z</time>
      </trkpt>
      <trkpt lat="45.917103420943022" lon="9.239186039194465">
        <ele>1378.1199999999999</ele>
        <time>2021-02-28T13:22:55Z</time>
      </trkpt>
      <trkpt lat="45.917129321023822" lon="9.23914915882051">
        <ele>1376.8699999999999</ele>
        <time>2021-02-28T13:23:08Z</time>
      </trkpt>
      <trkpt lat="45.917144240811467" lon="9.239150080829859">
        <ele>1376.5799999999999</ele>
        <time>2021-02-28T13:23:26Z</time>
      </trkpt>
      <trkpt lat="45.917186737060547" lon="9.239122001454234">
        <ele>1374.8699999999999</ele>
        <time>2021-02-28T13:23:41Z</time>
      </trkpt>
      <trkpt lat="45.917238537222147" lon="9.239093251526356">
        <ele>1372.96</ele>
        <time>2021-02-28T13:23:53Z</time>
      </trkpt>
      <trkpt lat="45.917319925501943" lon="9.239049078896642">
        <ele>1369.77</ele>
        <time>2021-02-28T13:24:05Z</time>
      </trkpt>
      <trkpt lat="45.917400978505611" lon="9.239013455808163">
        <ele>1367.1600000000001</ele>
        <time>2021-02-28T13:24:16Z</time>
      </trkpt>
      <trkpt lat="45.917461747303605" lon="9.238977581262589">
        <ele>1364.47</ele>
        <time>2021-02-28T13:24:27Z</time>
      </trkpt>
      <trkpt lat="45.91748152859509" lon="9.238952854648233">
        <ele>1363.1400000000001</ele>
        <time>2021-02-28T13:24:40Z</time>
      </trkpt>
      <trkpt lat="45.917535591870546" lon="9.238934330642223">
        <ele>1361.46</ele>
        <time>2021-02-28T13:24:55Z</time>
      </trkpt>
      <trkpt lat="45.917587140575051" lon="9.238908179104328">
        <ele>1360.1900000000001</ele>
        <time>2021-02-28T13:25:07Z</time>
      </trkpt>
      <trkpt lat="45.91768529266119" lon="9.238872639834881">
        <ele>1357.8900000000001</ele>
        <time>2021-02-28T13:25:21Z</time>
      </trkpt>
      <trkpt lat="45.91768529266119" lon="9.238870879635215">
        <ele>1357.6700000000001</ele>
        <time>2021-02-28T13:25:32Z</time>
      </trkpt>
      <trkpt lat="45.917688645422459" lon="9.238869287073612">
        <ele>1357.3</ele>
        <time>2021-02-28T13:25:50Z</time>
      </trkpt>
      <trkpt lat="45.917709683999419" lon="9.238845650106669">
        <ele>1356.6600000000001</ele>
        <time>2021-02-28T13:26:02Z</time>
      </trkpt>
      <trkpt lat="45.917764082551003" lon="9.238824192434549">
        <ele>1354.54</ele>
        <time>2021-02-28T13:26:13Z</time>
      </trkpt>
      <trkpt lat="45.917794844135642" lon="9.238806255161762">
        <ele>1353.51</ele>
        <time>2021-02-28T13:26:24Z</time>
      </trkpt>
      <trkpt lat="45.917800795286894" lon="9.238798962906003">
        <ele>1353.3599999999999</ele>
        <time>2021-02-28T13:26:37Z</time>
      </trkpt>
      <trkpt lat="45.917813703417778" lon="9.238786976784468">
        <ele>1353.02</ele>
        <time>2021-02-28T13:26:53Z</time>
      </trkpt>
      <trkpt lat="45.917834658175707" lon="9.238776415586472">
        <ele>1352.5999999999999</ele>
        <time>2021-02-28T13:27:09Z</time>
      </trkpt>
      <trkpt lat="45.917901378124952" lon="9.238742804154754">
        <ele>1350.4100000000001</ele>
        <time>2021-02-28T13:27:25Z</time>
      </trkpt>
      <trkpt lat="45.917981928214431" lon="9.238691171631217">
        <ele>1347.5799999999999</ele>
        <time>2021-02-28T13:27:36Z</time>
      </trkpt>
      <trkpt lat="45.918067591264844" lon="9.238643310964108">
        <ele>1344.78</ele>
        <time>2021-02-28T13:27:47Z</time>
      </trkpt>
      <trkpt lat="45.918096508830786" lon="9.238610789179802">
        <ele>1343.3699999999999</ele>
        <time>2021-02-28T13:27:58Z</time>
      </trkpt>
      <trkpt lat="45.9181475546211" lon="9.238581536337733">
        <ele>1342.03</ele>
        <time>2021-02-28T13:28:11Z</time>
      </trkpt>
      <trkpt lat="45.918165240436792" lon="9.238574327901006">
        <ele>1341.97</ele>
        <time>2021-02-28T13:28:23Z</time>
      </trkpt>
      <trkpt lat="45.918170437216759" lon="9.238568712025881">
        <ele>1341.9100000000001</ele>
        <time>2021-02-28T13:28:41Z</time>
      </trkpt>
      <trkpt lat="45.91821301728487" lon="9.238524287939072">
        <ele>1340.5899999999999</ele>
        <time>2021-02-28T13:28:58Z</time>
      </trkpt>
      <trkpt lat="45.918271187692881" lon="9.238492771983147">
        <ele>1339.29</ele>
        <time>2021-02-28T13:29:08Z</time>
      </trkpt>
      <trkpt lat="45.918323406949639" lon="9.238452035933733">
        <ele>1338.0899999999999</ele>
        <time>2021-02-28T13:29:19Z</time>
      </trkpt>
      <trkpt lat="45.918409740552306" lon="9.238389926031232">
        <ele>1335.9300000000001</ele>
        <time>2021-02-28T13:29:32Z</time>
      </trkpt>
      <trkpt lat="45.918474700301886" lon="9.238352626562119">
        <ele>1333.9200000000001</ele>
        <time>2021-02-28T13:29:44Z</time>
      </trkpt>
      <trkpt lat="45.918526416644454" lon="9.238317674025893">
        <ele>1331.4100000000001</ele>
        <time>2021-02-28T13:29:56Z</time>
      </trkpt>
      <trkpt lat="45.918527171015739" lon="9.238315830007196">
        <ele>1331.1500000000001</ele>
        <time>2021-02-28T13:30:16Z</time>
      </trkpt>
      <trkpt lat="45.918603865429759" lon="9.238288924098015">
        <ele>1327.96</ele>
        <time>2021-02-28T13:30:29Z</time>
      </trkpt>
      <trkpt lat="45.918614594265819" lon="9.238291103392839">
        <ele>1327.6199999999999</ele>
        <time>2021-02-28T13:30:41Z</time>
      </trkpt>
      <trkpt lat="45.918658599257469" lon="9.238267801702023">
        <ele>1326.3199999999999</ele>
        <time>2021-02-28T13:30:56Z</time>
      </trkpt>
      <trkpt lat="45.918662119656801" lon="9.23826084472239">
        <ele>1325.8599999999999</ele>
        <time>2021-02-28T13:31:11Z</time>
      </trkpt>
      <trkpt lat="45.918702436611056" lon="9.238250115886331">
        <ele>1324.5699999999999</ele>
        <time>2021-02-28T13:31:28Z</time>
      </trkpt>
      <trkpt lat="45.918789189308882" lon="9.238218013197184">
        <ele>1322.03</ele>
        <time>2021-02-28T13:31:39Z</time>
      </trkpt>
      <trkpt lat="45.918879043310881" lon="9.238148359581828">
        <ele>1320.3399999999999</ele>
        <time>2021-02-28T13:31:52Z</time>
      </trkpt>
      <trkpt lat="45.918921455740929" lon="9.238123381510377">
        <ele>1319.8199999999999</ele>
        <time>2021-02-28T13:32:04Z</time>
      </trkpt>
      <trkpt lat="45.918925730511546" lon="9.23811667598784">
        <ele>1319.7</ele>
        <time>2021-02-28T13:32:20Z</time>
      </trkpt>
      <trkpt lat="45.91896353289485" lon="9.238094883039594">
        <ele>1319.22</ele>
        <time>2021-02-28T13:32:29Z</time>
      </trkpt>
      <trkpt lat="45.918983314186335" lon="9.238065294921398">
        <ele>1317.8900000000001</ele>
        <time>2021-02-28T13:32:41Z</time>
      </trkpt>
      <trkpt lat="45.919045424088836" lon="9.237982230260968">
        <ele>1314.6800000000001</ele>
        <time>2021-02-28T13:32:54Z</time>
      </trkpt>
      <trkpt lat="45.919114490970969" lon="9.237917186692357">
        <ele>1311.6099999999999</ele>
        <time>2021-02-28T13:33:06Z</time>
      </trkpt>
      <trkpt lat="45.919218007475138" lon="9.237873265519738">
        <ele>1308.78</ele>
        <time>2021-02-28T13:33:20Z</time>
      </trkpt>
      <trkpt lat="45.919241225346923" lon="9.237878965213895">
        <ele>1308.23</ele>
        <time>2021-02-28T13:33:32Z</time>
      </trkpt>
      <trkpt lat="45.919235358014703" lon="9.238000083714724">
        <ele>1306.1800000000001</ele>
        <time>2021-02-28T13:33:49Z</time>
      </trkpt>
      <trkpt lat="45.919277099892497" lon="9.238094547763467">
        <ele>1303.1300000000001</ele>
        <time>2021-02-28T13:34:01Z</time>
      </trkpt>
      <trkpt lat="45.919359996914864" lon="9.23805071040988">
        <ele>1300.01</ele>
        <time>2021-02-28T13:34:13Z</time>
      </trkpt>
      <trkpt lat="45.919439708814025" lon="9.238004442304373">
        <ele>1296.99</ele>
        <time>2021-02-28T13:34:25Z</time>
      </trkpt>
      <trkpt lat="45.91952545568347" lon="9.237954318523407">
        <ele>1293.95</ele>
        <time>2021-02-28T13:34:36Z</time>
      </trkpt>
      <trkpt lat="45.91962662525475" lon="9.23790411092341">
        <ele>1291.8900000000001</ele>
        <time>2021-02-28T13:34:49Z</time>
      </trkpt>
      <trkpt lat="45.919725950807333" lon="9.237888855859637">
        <ele>1290.5799999999999</ele>
        <time>2021-02-28T13:35:03Z</time>
      </trkpt>
      <trkpt lat="45.91980641707778" lon="9.237875863909721">
        <ele>1289.6600000000001</ele>
        <time>2021-02-28T13:35:14Z</time>
      </trkpt>
      <trkpt lat="45.919847404584289" lon="9.237865302711725">
        <ele>1289.01</ele>
        <time>2021-02-28T13:35:30Z</time>
      </trkpt>
      <trkpt lat="45.919971205294132" lon="9.23789581283927">
        <ele>1287</ele>
        <time>2021-02-28T13:35:44Z</time>
      </trkpt>
      <trkpt lat="45.920000290498137" lon="9.237903775647283">
        <ele>1286.8</ele>
        <time>2021-02-28T13:35:57Z</time>
      </trkpt>
      <trkpt lat="45.920016719028354" lon="9.23791978508234">
        <ele>1286.3199999999999</ele>
        <time>2021-02-28T13:36:11Z</time>
      </trkpt>
      <trkpt lat="45.920057957991958" lon="9.237848874181509">
        <ele>1284.04</ele>
        <time>2021-02-28T13:36:25Z</time>
      </trkpt>
      <trkpt lat="45.920064663514495" lon="9.237811826169491">
        <ele>1283.05</ele>
        <time>2021-02-28T13:36:37Z</time>
      </trkpt>
      <trkpt lat="45.920060137286782" lon="9.237799253314734">
        <ele>1283.3699999999999</ele>
        <time>2021-02-28T13:36:54Z</time>
      </trkpt>
      <trkpt lat="45.920061813667417" lon="9.237796571105719">
        <ele>1282.9100000000001</ele>
        <time>2021-02-28T13:37:15Z</time>
      </trkpt>
      <trkpt lat="45.920066842809319" lon="9.237794978544116">
        <ele>1282.99</ele>
        <time>2021-02-28T13:37:39Z</time>
      </trkpt>
      <trkpt lat="45.920072458684444" lon="9.237786764279008">
        <ele>1282.6099999999999</ele>
        <time>2021-02-28T13:37:58Z</time>
      </trkpt>
      <trkpt lat="45.920080756768584" lon="9.237779472023249">
        <ele>1282.5</ele>
        <time>2021-02-28T13:38:14Z</time>
      </trkpt>
      <trkpt lat="45.920086456462741" lon="9.23777905292809">
        <ele>1283.05</ele>
        <time>2021-02-28T13:38:39Z</time>
      </trkpt>
      <trkpt lat="45.92010841704905" lon="9.237796990200877">
        <ele>1282.98</ele>
        <time>2021-02-28T13:39:03Z</time>
      </trkpt>
      <trkpt lat="45.920169102028012" lon="9.237758433446288">
        <ele>1280.0899999999999</ele>
        <time>2021-02-28T13:39:14Z</time>
      </trkpt>
      <trkpt lat="45.920204389840364" lon="9.237722055986524">
        <ele>1278.8499999999999</ele>
        <time>2021-02-28T13:39:25Z</time>
      </trkpt>
      <trkpt lat="45.920274294912815" lon="9.237639997154474">
        <ele>1276.46</ele>
        <time>2021-02-28T13:39:38Z</time>
      </trkpt>
      <trkpt lat="45.920358449220657" lon="9.23756355419755">
        <ele>1273.23</ele>
        <time>2021-02-28T13:39:52Z</time>
      </trkpt>
      <trkpt lat="45.920425336807966" lon="9.237500270828605">
        <ele>1271.5</ele>
        <time>2021-02-28T13:40:04Z</time>
      </trkpt>
      <trkpt lat="45.920481998473406" lon="9.23744092695415">
        <ele>1269.98</ele>
        <time>2021-02-28T13:40:17Z</time>
      </trkpt>
      <trkpt lat="45.920538827776909" lon="9.237376386299729">
        <ele>1268.5699999999999</ele>
        <time>2021-02-28T13:40:24Z</time>
      </trkpt>
      <trkpt lat="45.92065273784101" lon="9.237278904765844">
        <ele>1267.24</ele>
        <time>2021-02-28T13:40:36Z</time>
      </trkpt>
      <trkpt lat="45.920729599893093" lon="9.237168682739139">
        <ele>1265.27</ele>
        <time>2021-02-28T13:40:46Z</time>
      </trkpt>
      <trkpt lat="45.92081643640995" lon="9.23704563640058">
        <ele>1263.8499999999999</ele>
        <time>2021-02-28T13:40:58Z</time>
      </trkpt>
      <trkpt lat="45.92091073282063" lon="9.236966343596578">
        <ele>1262.4000000000001</ele>
        <time>2021-02-28T13:41:09Z</time>
      </trkpt>
      <trkpt lat="45.921014165505767" lon="9.236882105469704">
        <ele>1260.6800000000001</ele>
        <time>2021-02-28T13:41:21Z</time>
      </trkpt>
      <trkpt lat="45.92111206613481" lon="9.236811865121126">
        <ele>1258.97</ele>
        <time>2021-02-28T13:41:32Z</time>
      </trkpt>
      <trkpt lat="45.921240476891398" lon="9.236751683056355">
        <ele>1256.97</ele>
        <time>2021-02-28T13:41:44Z</time>
      </trkpt>
      <trkpt lat="45.921367630362511" lon="9.236711282283068">
        <ele>1255.73</ele>
        <time>2021-02-28T13:41:56Z</time>
      </trkpt>
      <trkpt lat="45.921425884589553" lon="9.236674569547176">
        <ele>1255.0599999999999</ele>
        <time>2021-02-28T13:42:02Z</time>
      </trkpt>
      <trkpt lat="45.921535938978195" lon="9.236447839066386">
        <ele>1251.79</ele>
        <time>2021-02-28T13:42:18Z</time>
      </trkpt>
      <trkpt lat="45.921595199033618" lon="9.236214151605964">
        <ele>1248.75</ele>
        <time>2021-02-28T13:42:32Z</time>
      </trkpt>
      <trkpt lat="45.921629397198558" lon="9.236048525199294">
        <ele>1245.3499999999999</ele>
        <time>2021-02-28T13:42:46Z</time>
      </trkpt>
      <trkpt lat="45.921652195975184" lon="9.235932352021337">
        <ele>1242.3299999999999</ele>
        <time>2021-02-28T13:42:58Z</time>
      </trkpt>
      <trkpt lat="45.921682454645634" lon="9.235800420865417">
        <ele>1239.1199999999999</ele>
        <time>2021-02-28T13:43:12Z</time>
      </trkpt>
      <trkpt lat="45.921715646982193" lon="9.235684666782618">
        <ele>1236.05</ele>
        <time>2021-02-28T13:43:25Z</time>
      </trkpt>
      <trkpt lat="45.921736098825932" lon="9.235608642920852">
        <ele>1234.1400000000001</ele>
        <time>2021-02-28T13:43:37Z</time>
      </trkpt>
      <trkpt lat="45.921768117696047" lon="9.235475873574615">
        <ele>1230.8900000000001</ele>
        <time>2021-02-28T13:43:48Z</time>
      </trkpt>
      <trkpt lat="45.921812038868666" lon="9.235336482524872">
        <ele>1227.6900000000001</ele>
        <time>2021-02-28T13:44:01Z</time>
      </trkpt>
      <trkpt lat="45.921845650300384" lon="9.23520932905376">
        <ele>1224.54</ele>
        <time>2021-02-28T13:44:14Z</time>
      </trkpt>
      <trkpt lat="45.921851098537445" lon="9.235184602439404">
        <ele>1223.6199999999999</ele>
        <time>2021-02-28T13:44:29Z</time>
      </trkpt>
      <trkpt lat="45.921877166256309" lon="9.235088210552931">
        <ele>1221.1900000000001</ele>
        <time>2021-02-28T13:44:41Z</time>
      </trkpt>
      <trkpt lat="45.921891834586859" lon="9.235064322128892">
        <ele>1220.24</ele>
        <time>2021-02-28T13:44:53Z</time>
      </trkpt>
      <trkpt lat="45.921972719952464" lon="9.235007157549262">
        <ele>1217.9300000000001</ele>
        <time>2021-02-28T13:45:03Z</time>
      </trkpt>
      <trkpt lat="45.922012366354465" lon="9.23500606790185">
        <ele>1216.3499999999999</ele>
        <time>2021-02-28T13:45:07Z</time>
      </trkpt>
      <trkpt lat="45.922138513997197" lon="9.235011097043753">
        <ele>1213.01</ele>
        <time>2021-02-28T13:45:21Z</time>
      </trkpt>
      <trkpt lat="45.922199282795191" lon="9.234954351559281">
        <ele>1210.6199999999999</ele>
        <time>2021-02-28T13:45:32Z</time>
      </trkpt>
      <trkpt lat="45.922243120148778" lon="9.234876316040754">
        <ele>1207.5</ele>
        <time>2021-02-28T13:45:43Z</time>
      </trkpt>
      <trkpt lat="45.922293495386839" lon="9.234755448997021">
        <ele>1204.51</ele>
        <time>2021-02-28T13:45:56Z</time>
      </trkpt>
      <trkpt lat="45.922311432659626" lon="9.234663918614388">
        <ele>1202.73</ele>
        <time>2021-02-28T13:46:07Z</time>
      </trkpt>
      <trkpt lat="45.922329956665635" lon="9.234580602496862">
        <ele>1200.6900000000001</ele>
        <time>2021-02-28T13:46:18Z</time>
      </trkpt>
      <trkpt lat="45.922343032434583" lon="9.234465770423412">
        <ele>1197.3299999999999</ele>
        <time>2021-02-28T13:46:31Z</time>
      </trkpt>
      <trkpt lat="45.922360885888338" lon="9.234324954450131">
        <ele>1194.02</ele>
        <time>2021-02-28T13:46:44Z</time>
      </trkpt>
      <trkpt lat="45.92238393612206" lon="9.234207104891539">
        <ele>1190.97</ele>
        <time>2021-02-28T13:46:55Z</time>
      </trkpt>
      <trkpt lat="45.922398688271642" lon="9.234142061322928">
        <ele>1189.22</ele>
        <time>2021-02-28T13:47:06Z</time>
      </trkpt>
      <trkpt lat="45.922399945557117" lon="9.234077017754316">
        <ele>1187.48</ele>
        <time>2021-02-28T13:47:13Z</time>
      </trkpt>
      <trkpt lat="45.922361724078655" lon="9.23395212739706">
        <ele>1184.4300000000001</ele>
        <time>2021-02-28T13:47:27Z</time>
      </trkpt>
      <trkpt lat="45.922339595854282" lon="9.233916504308581">
        <ele>1182.6700000000001</ele>
        <time>2021-02-28T13:47:38Z</time>
      </trkpt>
      <trkpt lat="45.922309253364801" lon="9.233908960595727">
        <ele>1181.6500000000001</ele>
        <time>2021-02-28T13:47:47Z</time>
      </trkpt>
      <trkpt lat="45.922281257808208" lon="9.23390812240541">
        <ele>1181.1800000000001</ele>
        <time>2021-02-28T13:47:50Z</time>
      </trkpt>
      <trkpt lat="45.922170365229249" lon="9.233881384134293">
        <ele>1177.8499999999999</ele>
        <time>2021-02-28T13:48:02Z</time>
      </trkpt>
      <trkpt lat="45.922087216749787" lon="9.233819022774696">
        <ele>1174.73</ele>
        <time>2021-02-28T13:48:13Z</time>
      </trkpt>
      <trkpt lat="45.922079673036933" lon="9.233804689720273">
        <ele>1174.75</ele>
        <time>2021-02-28T13:48:25Z</time>
      </trkpt>
      <trkpt lat="45.922059305012226" lon="9.23375909216702">
        <ele>1173.6199999999999</ele>
        <time>2021-02-28T13:48:37Z</time>
      </trkpt>
      <trkpt lat="45.922028040513396" lon="9.233681559562683">
        <ele>1172.23</ele>
        <time>2021-02-28T13:48:50Z</time>
      </trkpt>
      <trkpt lat="45.921995686367154" lon="9.233628083020449">
        <ele>1170.76</ele>
        <time>2021-02-28T13:49:03Z</time>
      </trkpt>
      <trkpt lat="45.921989986672997" lon="9.233618276193738">
        <ele>1170.0699999999999</ele>
        <time>2021-02-28T13:49:21Z</time>
      </trkpt>
      <trkpt lat="45.921973055228591" lon="9.233555998653173">
        <ele>1168.77</ele>
        <time>2021-02-28T13:49:35Z</time>
      </trkpt>
      <trkpt lat="45.921955369412899" lon="9.233443848788738">
        <ele>1167.05</ele>
        <time>2021-02-28T13:49:44Z</time>
      </trkpt>
      <trkpt lat="45.921896360814571" lon="9.233274618163705">
        <ele>1163.47</ele>
        <time>2021-02-28T13:49:56Z</time>
      </trkpt>
      <trkpt lat="45.921853361651301" lon="9.233155259862542">
        <ele>1161.74</ele>
        <time>2021-02-28T13:50:10Z</time>
      </trkpt>
      <trkpt lat="45.921841207891703" lon="9.233103543519974">
        <ele>1160.8199999999999</ele>
        <time>2021-02-28T13:50:21Z</time>
      </trkpt>
      <trkpt lat="45.921813547611237" lon="9.233022574335337">
        <ele>1159.73</ele>
        <time>2021-02-28T13:50:28Z</time>
      </trkpt>
      <trkpt lat="45.921742971986532" lon="9.232819313183427">
        <ele>1157.6500000000001</ele>
        <time>2021-02-28T13:50:44Z</time>
      </trkpt>
      <trkpt lat="45.921693937852979" lon="9.232633737847209">
        <ele>1155.8</ele>
        <time>2021-02-28T13:50:59Z</time>
      </trkpt>
      <trkpt lat="45.921701649203897" lon="9.232424860820174">
        <ele>1153.4100000000001</ele>
        <time>2021-02-28T13:51:14Z</time>
      </trkpt>
      <trkpt lat="45.921730734407902" lon="9.232274238020182">
        <ele>1151.4000000000001</ele>
        <time>2021-02-28T13:51:28Z</time>
      </trkpt>
      <trkpt lat="45.921728890389204" lon="9.232231071218848">
        <ele>1150.4200000000001</ele>
        <time>2021-02-28T13:51:43Z</time>
      </trkpt>
      <trkpt lat="45.921788988634944" lon="9.2321558855474">
        <ele>1149.49</ele>
        <time>2021-02-28T13:51:52Z</time>
      </trkpt>
      <trkpt lat="45.921976324170828" lon="9.231985732913017">
        <ele>1146.6700000000001</ele>
        <time>2021-02-28T13:52:13Z</time>
      </trkpt>
      <trkpt lat="45.922064501792192" lon="9.231885485351086">
        <ele>1145.1099999999999</ele>
        <time>2021-02-28T13:52:27Z</time>
      </trkpt>
      <trkpt lat="45.922132814303041" lon="9.231791356578469">
        <ele>1143.48</ele>
        <time>2021-02-28T13:52:42Z</time>
      </trkpt>
      <trkpt lat="45.922132059931755" lon="9.231718182563782">
        <ele>1140.96</ele>
        <time>2021-02-28T13:52:53Z</time>
      </trkpt>
      <trkpt lat="45.922143207862973" lon="9.231592705473304">
        <ele>1137.7</ele>
        <time>2021-02-28T13:53:04Z</time>
      </trkpt>
      <trkpt lat="45.922174639999866" lon="9.231505114585161">
        <ele>1135.6500000000001</ele>
        <time>2021-02-28T13:53:16Z</time>
      </trkpt>
      <trkpt lat="45.9221884701401" lon="9.231492206454277">
        <ele>1135.4200000000001</ele>
        <time>2021-02-28T13:53:26Z</time>
      </trkpt>
      <trkpt lat="45.922191152349114" lon="9.231484159827232">
        <ele>1136.0799999999999</ele>
        <time>2021-02-28T13:53:44Z</time>
      </trkpt>
      <trkpt lat="45.922190062701702" lon="9.231489608064294">
        <ele>1135.73</ele>
        <time>2021-02-28T13:54:05Z</time>
      </trkpt>
      <trkpt lat="45.922187380492687" lon="9.231483824551106">
        <ele>1135.4300000000001</ele>
        <time>2021-02-28T13:54:27Z</time>
      </trkpt>
      <trkpt lat="45.92218360863626" lon="9.231487009674311">
        <ele>1135.5599999999999</ele>
        <time>2021-02-28T13:54:45Z</time>
      </trkpt>
      <trkpt lat="45.922187296673656" lon="9.231496145948768">
        <ele>1135.6900000000001</ele>
        <time>2021-02-28T13:55:05Z</time>
      </trkpt>
      <trkpt lat="45.922185871750116" lon="9.231494721025229">
        <ele>1135.3299999999999</ele>
        <time>2021-02-28T13:55:25Z</time>
      </trkpt>
      <trkpt lat="45.922182602807879" lon="9.231486171483994">
        <ele>1135.0599999999999</ele>
        <time>2021-02-28T13:55:53Z</time>
      </trkpt>
      <trkpt lat="45.922179669141769" lon="9.231479465961456">
        <ele>1135.3299999999999</ele>
        <time>2021-02-28T13:56:17Z</time>
      </trkpt>
      <trkpt lat="45.922182770445943" lon="9.231475777924061">
        <ele>1135.45</ele>
        <time>2021-02-28T13:56:47Z</time>
      </trkpt>
      <trkpt lat="45.92218117788434" lon="9.231491703540087">
        <ele>1135.24</ele>
        <time>2021-02-28T13:57:15Z</time>
      </trkpt>
      <trkpt lat="45.922184530645609" lon="9.231492877006531">
        <ele>1134.5999999999999</ele>
        <time>2021-02-28T13:57:36Z</time>
      </trkpt>
      <trkpt lat="45.922184614464641" lon="9.231491954997182">
        <ele>1135.49</ele>
        <time>2021-02-28T13:57:40Z</time>
      </trkpt>
      <trkpt lat="45.922183943912387" lon="9.231485165655613">
        <ele>1135.1500000000001</ele>
        <time>2021-02-28T13:58:08Z</time>
      </trkpt>
      <trkpt lat="45.922184530645609" lon="9.231484243646264">
        <ele>1135</ele>
        <time>2021-02-28T13:58:27Z</time>
      </trkpt>
      <trkpt lat="45.922185536473989" lon="9.231481729075313">
        <ele>1134.98</ele>
        <time>2021-02-28T13:58:50Z</time>
      </trkpt>
      <trkpt lat="45.922180591151118" lon="9.231488853693008">
        <ele>1134.8900000000001</ele>
        <time>2021-02-28T13:59:08Z</time>
      </trkpt>
      <trkpt lat="45.922182938084006" lon="9.231487680226564">
        <ele>1134.75</ele>
        <time>2021-02-28T13:59:31Z</time>
      </trkpt>
      <trkpt lat="45.922190481796861" lon="9.231491200625897">
        <ele>1135.01</ele>
        <time>2021-02-28T13:59:58Z</time>
      </trkpt>
      <trkpt lat="45.922187883406878" lon="9.2314219661057">
        <ele>1133.4400000000001</ele>
        <time>2021-02-28T14:00:14Z</time>
      </trkpt>
      <trkpt lat="45.922217890620232" lon="9.231284419074655">
        <ele>1130.4200000000001</ele>
        <time>2021-02-28T14:00:27Z</time>
      </trkpt>
      <trkpt lat="45.922284694388509" lon="9.231223734095693">
        <ele>1128.5699999999999</ele>
        <time>2021-02-28T14:00:38Z</time>
      </trkpt>
      <trkpt lat="45.922396341338754" lon="9.23119280487299">
        <ele>1126.0599999999999</ele>
        <time>2021-02-28T14:00:52Z</time>
      </trkpt>
      <trkpt lat="45.922499606385827" lon="9.231170173734427">
        <ele>1122.8900000000001</ele>
        <time>2021-02-28T14:01:06Z</time>
      </trkpt>
      <trkpt lat="45.922572780400515" lon="9.231142932549119">
        <ele>1120.5699999999999</ele>
        <time>2021-02-28T14:01:16Z</time>
      </trkpt>
      <trkpt lat="45.922688702121377" lon="9.231073698028922">
        <ele>1117.26</ele>
        <time>2021-02-28T14:01:30Z</time>
      </trkpt>
      <trkpt lat="45.922783501446247" lon="9.230979820713401">
        <ele>1114.4400000000001</ele>
        <time>2021-02-28T14:01:45Z</time>
      </trkpt>
      <trkpt lat="45.922874109819531" lon="9.23090455122292">
        <ele>1111.6099999999999</ele>
        <time>2021-02-28T14:01:58Z</time>
      </trkpt>
      <trkpt lat="45.923013417050242" lon="9.230856355279684">
        <ele>1109.3299999999999</ele>
        <time>2021-02-28T14:02:12Z</time>
      </trkpt>
      <trkpt lat="45.923087596893311" lon="9.230847302824259">
        <ele>1108.1500000000001</ele>
        <time>2021-02-28T14:02:24Z</time>
      </trkpt>
      <trkpt lat="45.923096565529704" lon="9.230863060802221">
        <ele>1107.6800000000001</ele>
        <time>2021-02-28T14:02:35Z</time>
      </trkpt>
      <trkpt lat="45.923098744824529" lon="9.230873622000217">
        <ele>1108.23</ele>
        <time>2021-02-28T14:02:48Z</time>
      </trkpt>
      <trkpt lat="45.923107713460922" lon="9.230898516252637">
        <ele>1107.8699999999999</ele>
        <time>2021-02-28T14:03:05Z</time>
      </trkpt>
      <trkpt lat="45.923111066222191" lon="9.230901869013906">
        <ele>1108.3199999999999</ele>
        <time>2021-02-28T14:03:19Z</time>
      </trkpt>
      <trkpt lat="45.923109473660588" lon="9.230894241482019">
        <ele>1107.8499999999999</ele>
        <time>2021-02-28T14:03:35Z</time>
      </trkpt>
      <trkpt lat="45.923107881098986" lon="9.230889128521085">
        <ele>1108.49</ele>
        <time>2021-02-28T14:03:50Z</time>
      </trkpt>
      <trkpt lat="45.923138055950403" lon="9.230879824608564">
        <ele>1108.48</ele>
        <time>2021-02-28T14:04:02Z</time>
      </trkpt>
      <trkpt lat="45.923160435631871" lon="9.230863228440285">
        <ele>1108.29</ele>
        <time>2021-02-28T14:04:05Z</time>
      </trkpt>
      <trkpt lat="45.923231681808829" lon="9.230848643928766">
        <ele>1108.8199999999999</ele>
        <time>2021-02-28T14:04:14Z</time>
      </trkpt>
      <trkpt lat="45.923280799761415" lon="9.230742529034615">
        <ele>1108.46</ele>
        <time>2021-02-28T14:04:25Z</time>
      </trkpt>
      <trkpt lat="45.923345005139709" lon="9.2306655831635">
        <ele>1108.3299999999999</ele>
        <time>2021-02-28T14:04:34Z</time>
      </trkpt>
      <trkpt lat="45.923483725637197" lon="9.230683604255319">
        <ele>1108.49</ele>
        <time>2021-02-28T14:04:49Z</time>
      </trkpt>
      <trkpt lat="45.923489592969418" lon="9.230710593983531">
        <ele>1108.72</ele>
        <time>2021-02-28T14:05:00Z</time>
      </trkpt>
      <trkpt lat="45.923487832769752" lon="9.230725094676018">
        <ele>1107.24</ele>
        <time>2021-02-28T14:05:13Z</time>
      </trkpt>
    </trkseg>
  </trk>

</gpx>